Darstellungsparameter: Aktuell verwendete Einstellungen:
Skalierung der Graphiken ... ?
xyx+y,   Skalierungsfaktor:      Skalierung: Modus: x, Faktor: 1
Darstellungszeitraum ... ?
Vom - - bis: - -   Zeitraum: 02.02.2020 - 01.05.2020
Min/Max/Avg-Anzeige ... ?
Zeige MMA aktuell
Zeige MMA Monat
Zeige MMA alles
Zeige --A aktuell
Zeige --A Monat
Zeige --A alles
Keine MMA-Anzeige
MMA:
Average (ber die Originaldaten)
MMA-Basis: 02.02.2020 - 01.05.2020
Quicknavigation für Darstellung... ?
Tage:      1T, 2T, 3T, 5T -1T -2T -3T -5T +1T +2T +3T +5T
Wochen: 1W, 2W, 3W -1W -2W -3W +1W +2W +3W
Monate: 1M, 3M, 6M -1M -3M -6M +1M +3M +6M
Jahre:    1J, 3J, 5J, 10J -1J -3J -5J -10J +1J +3J +5J +10J
Nutze für die Darstellung ... ?
Originaldaten oder Mittelwerte auf ...
Stundenbasis Tagesbasis Wochenbasis
Monatsbasis Jahresbasis      Datenbasis: Original-Daten
Darstellen als:
Statistik (Auto) Statistik J:M      Darstellung:
Zur Graphik,    zurück zur Übersicht aller Sensoren.
 
Tabellarische Datenbersicht: ?
 
Sensor: Nr:Datum:Temp:Feuchte:
Aussen-T/F 1 02-02-2020 00:06:16 8 C 28 %
2 02-02-2020 00:16:16 7.6 C 28 %
3 02-02-2020 00:26:16 7.9 C 28 %
4 02-02-2020 00:36:16 7.6 C 28 %
5 02-02-2020 00:46:16 7.7 C 28 %
6 02-02-2020 00:56:16 7.8 C 28 %
7 02-02-2020 01:06:17 7.8 C 28 %
8 02-02-2020 01:16:16 7.9 C 28 %
9 02-02-2020 01:26:16 7.9 C 28 %
10 02-02-2020 01:36:16 8 C 28 %
11 02-02-2020 01:46:16 7.8 C 28 %
12 02-02-2020 01:56:16 7.9 C 28 %
13 02-02-2020 02:06:17 7.8 C 28 %
14 02-02-2020 02:16:15 7.7 C 28 %
15 02-02-2020 02:26:15 7.9 C 28 %
16 02-02-2020 02:36:16 7.9 C 28 %
17 02-02-2020 02:46:17 7.9 C 28 %
18 02-02-2020 02:56:17 7.9 C 28 %
19 02-02-2020 03:06:17 8 C 28 %
20 02-02-2020 03:16:17 7.9 C 28 %
21 02-02-2020 03:26:17 7.8 C 28 %
22 02-02-2020 03:36:18 7.8 C 28 %
23 02-02-2020 03:46:18 7.8 C 27 %
24 02-02-2020 03:56:18 7.7 C 28 %
25 02-02-2020 04:06:18 7.6 C 28 %
Sensor: Nr:Datum:Temp:Feuchte:
Aussen-T/F 26 02-02-2020 04:16:17 7.6 C 28 %
27 02-02-2020 04:26:17 7.3 C 28 %
28 02-02-2020 04:36:17 7.2 C 28 %
29 02-02-2020 04:46:18 7 C 28 %
30 02-02-2020 04:56:18 7.1 C 28 %
31 02-02-2020 05:06:17 7 C 28 %
32 02-02-2020 05:16:17 7.1 C 28 %
33 02-02-2020 05:26:17 6.9 C 30 %
34 02-02-2020 05:36:18 6.8 C 30 %
35 02-02-2020 05:46:17 6.9 C 30 %
36 02-02-2020 05:56:17 6.8 C 30 %
37 02-02-2020 06:06:18 6.9 C 30 %
38 02-02-2020 06:16:17 6.7 C 31 %
39 02-02-2020 06:26:17 6.8 C 30 %
40 02-02-2020 06:36:17 6.7 C 31 %
41 02-02-2020 06:46:18 6.6 C 32 %
42 02-02-2020 06:56:18 6.5 C 32 %
43 02-02-2020 07:06:18 6.2 C 36 %
44 02-02-2020 07:16:17 6 C 40 %
45 02-02-2020 07:26:17 6 C 42 %
46 02-02-2020 07:36:17 6.1 C 44 %
47 02-02-2020 07:46:17 6.1 C 44 %
48 02-02-2020 07:56:17 6.3 C 44 %
49 02-02-2020 08:06:18 6.2 C 44 %
50 02-02-2020 08:16:17 6.2 C 44 %
Sensor: Nr:Datum:Temp:Feuchte:
Aussen-T/F 51 02-02-2020 08:26:17 6.2 C 44 %
52 02-02-2020 08:36:17 6.2 C 44 %
53 02-02-2020 08:46:17 6.3 C 44 %
54 02-02-2020 08:56:17 6.2 C 44 %
55 02-02-2020 09:06:17 6.3 C 44 %
56 02-02-2020 09:16:17 6.3 C 44 %
57 02-02-2020 09:26:17 6.2 C 43 %
58 02-02-2020 09:36:18 6.4 C 44 %
59 02-02-2020 09:46:17 6.6 C 44 %
60 02-02-2020 09:56:18 6.7 C 43 %
61 02-02-2020 10:06:18 6.7 C 43 %
62 02-02-2020 10:16:18 7 C 41 %
63 02-02-2020 10:26:18 6.9 C 42 %
64 02-02-2020 10:36:18 7 C 41 %
65 02-02-2020 10:46:17 7.1 C 41 %
66 02-02-2020 10:56:17 7.2 C 42 %
67 02-02-2020 11:06:18 7.4 C 42 %
68 02-02-2020 11:16:17 7.6 C 42 %
69 02-02-2020 11:26:17 8 C 41 %
70 02-02-2020 11:36:17 8 C 40 %
71 02-02-2020 11:46:17 7.9 C 40 %
72 02-02-2020 11:56:17 8.1 C 40 %
73 02-02-2020 12:06:17 8.5 C 40 %
74 02-02-2020 12:16:17 9.2 C 38 %
75 02-02-2020 12:26:17 10.4 C 40 %
Sensor: Nr:Datum:Temp:Feuchte:
Aussen-T/F 76 02-02-2020 12:36:17 11.4 C 36 %
77 02-02-2020 12:46:17 12 C 34 %
78 02-02-2020 12:56:17 12.3 C 33 %
79 02-02-2020 13:06:18 12.4 C 33 %
80 02-02-2020 13:16:18 12.4 C 33 %
81 02-02-2020 13:26:18 12.4 C 33 %
82 02-02-2020 13:36:17 12.5 C 33 %
83 02-02-2020 13:46:18 12.8 C 33 %
84 02-02-2020 13:56:18 13 C 32 %
85 02-02-2020 14:06:17 13.1 C 32 %
86 02-02-2020 14:16:17 13.2 C 32 %
87 02-02-2020 14:26:17 13.4 C 31 %
88 02-02-2020 14:36:17 13.4 C 32 %
89 02-02-2020 14:46:17 13.4 C 32 %
90 02-02-2020 14:56:17 13.5 C 31 %
91 02-02-2020 15:06:17 13.8 C 31 %
92 02-02-2020 15:16:18 13.9 C 31 %
93 02-02-2020 15:26:18 13.7 C 31 %
94 02-02-2020 15:36:18 13.1 C 32 %
95 02-02-2020 15:46:17 13.3 C 32 %
96 02-02-2020 15:56:18 13.5 C 31 %
97 02-02-2020 16:06:18 14.3 C 28 %
98 02-02-2020 16:16:18 14.4 C 27 %
99 02-02-2020 16:26:18 14.1 C 27 %
100 02-02-2020 16:36:17 14.4 C 26 %
Sensor: Nr:Datum:Temp:Feuchte:
Aussen-T/F 101 02-02-2020 16:46:17 14.5 C 25 %
102 02-02-2020 16:56:17 14 C 25 %
103 02-02-2020 17:06:17 14 C 25 %
104 02-02-2020 17:16:17 13.7 C 25 %
105 02-02-2020 17:26:17 13.9 C 25 %
106 02-02-2020 17:36:17 13.8 C 25 %
107 02-02-2020 17:46:17 13.7 C 25 %
108 02-02-2020 17:56:17 13.4 C 25 %
109 02-02-2020 18:06:18 13.2 C 25 %
110 02-02-2020 18:16:18 13.4 C 25 %
111 02-02-2020 18:26:18 13.2 C 25 %
112 02-02-2020 18:36:17 12.8 C 26 %
113 02-02-2020 18:46:17 12.9 C 26 %
114 02-02-2020 18:56:17 13.1 C 25 %
115 02-02-2020 19:06:18 13.3 C 23 %
116 02-02-2020 19:16:17 13.1 C 22 %
117 02-02-2020 19:26:17 12.9 C 25 %
118 02-02-2020 19:36:17 12.6 C 25 %
119 02-02-2020 19:46:17 12.9 C 25 %
120 02-02-2020 19:56:17 12.9 C 25 %
121 02-02-2020 20:06:18 12.7 C 25 %
122 02-02-2020 20:16:17 12.6 C 25 %
123 02-02-2020 20:26:17 12.5 C 25 %
124 02-02-2020 20:36:17 12 C 26 %
125 02-02-2020 20:46:18 12 C 26 %
Sensor: Nr:Datum:Temp:Feuchte:
Aussen-T/F 126 02-02-2020 20:56:18 12.4 C 25 %
127 02-02-2020 21:06:18 12.2 C 25 %
128 02-02-2020 21:16:17 12.2 C 25 %
129 02-02-2020 21:26:17 12.3 C 25 %
130 02-02-2020 21:36:18 12.3 C 25 %
131 02-02-2020 21:46:17 12.1 C 25 %
132 02-02-2020 21:56:18 12.2 C 25 %
133 02-02-2020 22:06:17 12.2 C 25 %
134 02-02-2020 22:16:17 11.9 C 26 %
135 02-02-2020 22:26:18 11.9 C 26 %
136 02-02-2020 22:36:18 12 C 25 %
137 02-02-2020 22:46:18 12.1 C 25 %
138 02-02-2020 22:56:18 11.8 C 25 %
139 02-02-2020 23:06:17 11.8 C 26 %
140 02-02-2020 23:16:17 12 C 25 %
141 02-02-2020 23:26:17 11.5 C 26 %
142 02-02-2020 23:36:17 11.7 C 26 %
143 02-02-2020 23:46:18 11.6 C 26 %
144 02-02-2020 23:56:18 11.2 C 27 %
145 03-02-2020 00:06:18 11.2 C 27 %
146 03-02-2020 00:16:17 11.3 C 26 %
147 03-02-2020 00:26:17 11 C 26 %
148 03-02-2020 00:36:17 10.4 C 26 %
149 03-02-2020 00:46:17 9.8 C 29 %
150 03-02-2020 00:56:17 9.6 C 30 %
Sensor: Nr:Datum:Temp:Feuchte:
Aussen-T/F 151 03-02-2020 01:06:18 9.7 C 30 %
152 03-02-2020 01:16:17 9.5 C 31 %
153 03-02-2020 01:26:17 9.1 C 32 %
154 03-02-2020 01:36:17 9 C 32 %
155 03-02-2020 01:46:17 9.5 C 31 %
156 03-02-2020 01:56:17 10 C 30 %
157 03-02-2020 02:06:18 9.9 C 30 %
158 03-02-2020 02:16:17 10.3 C 30 %
159 03-02-2020 02:26:17 10.4 C 30 %
160 03-02-2020 02:36:17 10.2 C 30 %
161 03-02-2020 02:46:17 10.5 C 30 %
162 03-02-2020 02:56:17 10.3 C 30 %
163 03-02-2020 03:06:18 10.5 C 29 %
164 03-02-2020 03:16:17 10.4 C 30 %
165 03-02-2020 03:26:17 10.4 C 30 %
166 03-02-2020 03:36:17 10.4 C 30 %
167 03-02-2020 03:46:17 10.1 C 30 %
168 03-02-2020 03:56:17 10.1 C 30 %
169 03-02-2020 04:06:17 9.9 C 32 %
170 03-02-2020 04:16:17 9.9 C 32 %
171 03-02-2020 04:26:18 9.9 C 32 %
172 03-02-2020 04:36:18 10.1 C 31 %
173 03-02-2020 04:46:17 10.1 C 31 %
174 03-02-2020 04:56:18 10.1 C 31 %
175 03-02-2020 05:06:18 10.1 C 31 %
Sensor: Nr:Datum:Temp:Feuchte:
Aussen-T/F 176 03-02-2020 05:16:17 10.1 C 31 %
177 03-02-2020 05:26:17 9.8 C 32 %
178 03-02-2020 05:36:17 10.1 C 31 %
179 03-02-2020 05:46:17 9.7 C 32 %
180 03-02-2020 05:56:17 10.2 C 31 %
181 03-02-2020 06:06:17 10.4 C 31 %
182 03-02-2020 06:16:17 10.7 C 30 %
183 03-02-2020 06:26:17 10.5 C 30 %
184 03-02-2020 06:36:17 10.4 C 30 %
185 03-02-2020 06:46:17 10.2 C 30 %
186 03-02-2020 06:56:17 10.5 C 30 %
187 03-02-2020 07:06:18 10.5 C 30 %
188 03-02-2020 07:16:18 10.3 C 30 %
189 03-02-2020 07:26:18 10.3 C 30 %
190 03-02-2020 07:36:18 10 C 30 %
191 03-02-2020 07:46:18 9.9 C 31 %
192 03-02-2020 07:56:18 10 C 30 %
193 03-02-2020 08:06:17 10.1 C 30 %
194 03-02-2020 08:16:17 9.8 C 31 %
195 03-02-2020 08:26:17 10.1 C 30 %
196 03-02-2020 08:36:17 10.1 C 30 %
197 03-02-2020 08:46:17 10 C 30 %
198 03-02-2020 08:56:17 10.4 C 30 %
199 03-02-2020 09:06:17 10.2 C 30 %
200 03-02-2020 09:16:18 9.8 C 31 %
Sensor: Nr:Datum:Temp:Feuchte:
Aussen-T/F 201 03-02-2020 09:26:18 9.8 C 31 %
202 03-02-2020 09:36:17 10.2 C 30 %
203 03-02-2020 09:46:17 10.4 C 30 %
204 03-02-2020 09:56:17 10.5 C 30 %
205 03-02-2020 10:06:17 10.4 C 30 %
206 03-02-2020 10:16:17 10.4 C 30 %
207 03-02-2020 10:26:17 10.4 C 30 %
208 03-02-2020 10:36:18 11.2 C 28 %
209 03-02-2020 10:46:18 11.4 C 27 %
210 03-02-2020 10:56:18 11.7 C 27 %
211 03-02-2020 11:06:18 11.9 C 25 %
212 03-02-2020 11:16:17 12.1 C 21 %
213 03-02-2020 11:26:17 12.1 C 20 %
214 03-02-2020 11:36:17 12.1 C 20 %
215 03-02-2020 11:46:17 12.4 C 20 %
216 03-02-2020 11:56:17 12.3 C 20 %
217 03-02-2020 12:06:17 12.2 C 20 %
218 03-02-2020 12:16:17 12.3 C 20 %
219 03-02-2020 12:26:17 12.3 C 20 %
220 03-02-2020 12:36:17 12.5 C 20 %
221 03-02-2020 12:46:18 12.5 C 20 %
222 03-02-2020 12:56:18 12.5 C 20 %
223 03-02-2020 13:06:18 12.2 C 20 %
224 03-02-2020 13:16:17 12.3 C 20 %
225 03-02-2020 13:26:17 12.1 C 20 %
Sensor: Nr:Datum:Temp:Feuchte:
Aussen-T/F 226 03-02-2020 13:36:17 12.3 C 20 %
227 03-02-2020 13:46:17 12.1 C 20 %
228 03-02-2020 13:56:17 12.2 C 20 %
229 03-02-2020 14:06:18 12.5 C 20 %
230 03-02-2020 14:16:18 12.2 C 20 %
231 03-02-2020 14:26:18 11.7 C 23 %
232 03-02-2020 14:36:17 12.3 C 20 %
233 03-02-2020 14:46:17 11.9 C 23 %
234 03-02-2020 14:56:17 12 C 20 %
235 03-02-2020 15:06:17 12.1 C 20 %
236 03-02-2020 15:16:17 12.1 C 20 %
237 03-02-2020 15:26:17 12 C 20 %
238 03-02-2020 15:36:18 12 C 20 %
239 03-02-2020 15:46:18 12 C 20 %
240 03-02-2020 15:56:18 12.1 C 20 %
241 03-02-2020 16:06:17 12 C 20 %
242 03-02-2020 16:16:17 12 C 20 %
243 03-02-2020 16:26:17 11.8 C 20 %
244 03-02-2020 16:36:17 11.6 C 20 %
245 03-02-2020 16:46:17 11.5 C 20 %
246 03-02-2020 16:56:17 11.5 C 20 %
247 03-02-2020 17:06:17 11.4 C 21 %
248 03-02-2020 17:16:18 11.3 C 21 %
249 03-02-2020 17:26:18 11 C 23 %
250 03-02-2020 17:36:17 11 C 23 %
Sensor: Nr:Datum:Temp:Feuchte:
Aussen-T/F 251 03-02-2020 17:46:18 10.9 C 23 %
252 03-02-2020 17:56:18 11 C 22 %
253 03-02-2020 18:06:17 10.7 C 22 %
254 03-02-2020 18:16:17 10.5 C 23 %
255 03-02-2020 18:26:17 10.4 C 25 %
256 03-02-2020 18:36:18 10.2 C 26 %
257 03-02-2020 18:46:18 10.7 C 25 %
258 03-02-2020 18:56:18 10.4 C 25 %
259 03-02-2020 19:06:18 9.8 C 27 %
260 03-02-2020 19:16:17 8.9 C 32 %
261 03-02-2020 19:26:17 8.5 C 35 %
262 03-02-2020 19:36:17 8.2 C 38 %
263 03-02-2020 19:46:17 8.1 C 40 %
264 03-02-2020 19:56:17 7.9 C 43 %
265 03-02-2020 20:06:18 7.9 C 44 %
266 03-02-2020 20:16:17 7.9 C 44 %
267 03-02-2020 20:26:17 7.9 C 44 %
268 03-02-2020 20:36:17 8 C 43 %
269 03-02-2020 20:46:17 7.9 C 43 %
270 03-02-2020 20:56:18 7.9 C 43 %
271 03-02-2020 21:06:18 7.8 C 44 %
272 03-02-2020 21:16:17 7.8 C 44 %
273 03-02-2020 21:26:17 7.8 C 44 %
274 03-02-2020 21:36:17 7.7 C 44 %
275 03-02-2020 21:46:17 7.7 C 43 %
Sensor: Nr:Datum:Temp:Feuchte:
Aussen-T/F 276 03-02-2020 21:56:17 7.7 C 43 %
277 03-02-2020 22:06:17 7.8 C 43 %
278 03-02-2020 22:16:18 7.2 C 43 %
279 03-02-2020 22:26:18 7.2 C 43 %
280 03-02-2020 22:36:17 7.2 C 43 %
281 03-02-2020 22:46:18 7.2 C 43 %
282 03-02-2020 22:56:18 6.9 C 44 %
283 03-02-2020 23:06:18 6.9 C 44 %
284 03-02-2020 23:16:17 6.8 C 43 %
285 03-02-2020 23:26:17 6.7 C 43 %
286 03-02-2020 23:36:17 6.5 C 43 %
287 03-02-2020 23:46:17 6.3 C 43 %
288 03-02-2020 23:56:17 6.2 C 43 %
289 04-02-2020 00:06:17 5.9 C 42 %
290 04-02-2020 00:16:18 5.7 C 43 %
291 04-02-2020 00:26:18 5.5 C 44 %
292 04-02-2020 00:36:18 5.4 C 43 %
293 04-02-2020 00:46:18 5.2 C 42 %
294 04-02-2020 00:56:18 5.1 C 41 %
295 04-02-2020 01:06:17 5.1 C 41 %
296 04-02-2020 01:16:17 5.1 C 42 %
297 04-02-2020 01:26:17 5.1 C 42 %
298 04-02-2020 01:36:17 4.9 C 40 %
299 04-02-2020 01:46:17 4.8 C 40 %
300 04-02-2020 01:56:17 4.6 C 41 %
Sensor: Nr:Datum:Temp:Feuchte:
Aussen-T/F 301 04-02-2020 02:06:18 4.2 C 39 %
302 04-02-2020 02:16:17 4 C 39 %
303 04-02-2020 02:26:17 3.9 C 41 %
304 04-02-2020 02:36:17 3.9 C 41 %
305 04-02-2020 02:46:17 3.9 C 41 %
306 04-02-2020 02:56:17 3.9 C 41 %
307 04-02-2020 03:06:18 4 C 39 %
308 04-02-2020 03:16:17 3.9 C 41 %
309 04-02-2020 03:26:17 4.1 C 40 %
310 04-02-2020 03:36:17 3.7 C 41 %
311 04-02-2020 03:46:17 3.9 C 40 %
312 04-02-2020 03:56:17 4.1 C 37 %
313 04-02-2020 04:06:17 3.8 C 39 %
314 04-02-2020 04:16:17 3.7 C 39 %
315 04-02-2020 04:26:17 4 C 38 %
316 04-02-2020 04:36:18 4.2 C 38 %
317 04-02-2020 04:46:18 4.1 C 37 %
318 04-02-2020 04:56:18 3.7 C 39 %
319 04-02-2020 05:06:17 3.6 C 39 %
320 04-02-2020 05:16:18 3.2 C 41 %
321 04-02-2020 05:26:18 3.4 C 42 %
322 04-02-2020 05:36:18 3.6 C 41 %
323 04-02-2020 05:46:17 3.8 C 38 %
324 04-02-2020 05:56:17 3.9 C 36 %
325 04-02-2020 06:06:17 4.2 C 35 %
Sensor: Nr:Datum:Temp:Feuchte:
Aussen-T/F 326 04-02-2020 06:16:17 4.4 C 33 %
327 04-02-2020 06:26:17 4.6 C 33 %
328 04-02-2020 06:36:17 4.7 C 32 %
329 04-02-2020 06:46:17 4.3 C 34 %
330 04-02-2020 06:56:17 4.4 C 34 %
331 04-02-2020 07:06:18 4.7 C 33 %
332 04-02-2020 07:16:17 4.6 C 32 %
333 04-02-2020 07:26:17 4.3 C 33 %
334 04-02-2020 07:36:17 4 C 34 %
335 04-02-2020 07:46:17 3.9 C 35 %
336 04-02-2020 07:56:17 3.8 C 35 %
337 04-02-2020 08:06:17 3.6 C 35 %
338 04-02-2020 08:16:17 3.8 C 35 %
339 04-02-2020 08:26:17 3.6 C 35 %
340 04-02-2020 08:36:18 3.6 C 35 %
341 04-02-2020 08:46:18 3.8 C 35 %
342 04-02-2020 08:56:18 3.9 C 35 %
343 04-02-2020 09:06:18 4 C 34 %
344 04-02-2020 09:16:17 3.7 C 36 %
345 04-02-2020 09:26:17 4 C 35 %
346 04-02-2020 09:36:17 4 C 34 %
347 04-02-2020 09:46:17 3.6 C 36 %
348 04-02-2020 09:56:17 3.4 C 37 %
349 04-02-2020 10:06:18 3 C 40 %
350 04-02-2020 10:16:17 3.3 C 42 %
Sensor: Nr:Datum:Temp:Feuchte:
Aussen-T/F 351 04-02-2020 10:26:17 3.9 C 37 %
352 04-02-2020 10:36:17 4.1 C 35 %
353 04-02-2020 10:46:17 4.4 C 36 %
354 04-02-2020 10:56:17 4.9 C 34 %
355 04-02-2020 11:06:17 4.9 C 34 %
356 04-02-2020 11:16:18 5.3 C 32 %
357 04-02-2020 11:26:18 3.9 C 36 %
358 04-02-2020 11:36:18 4.1 C 35 %
359 04-02-2020 11:46:18 4.9 C 35 %
360 04-02-2020 11:56:18 4.6 C 35 %
361 04-02-2020 12:06:17 4.2 C 36 %
362 04-02-2020 12:16:17 3.8 C 38 %
363 04-02-2020 12:26:17 3.4 C 40 %
364 04-02-2020 12:36:18 3.9 C 38 %
365 04-02-2020 12:46:17 3.8 C 38 %
366 04-02-2020 12:56:18 4.1 C 36 %
367 04-02-2020 13:06:18 4.7 C 34 %
368 04-02-2020 13:16:17 4.8 C 33 %
369 04-02-2020 13:26:17 5.2 C 31 %
370 04-02-2020 13:36:17 5.3 C 31 %
371 04-02-2020 13:46:17 5.6 C 30 %
372 04-02-2020 13:56:17 5.7 C 30 %
373 04-02-2020 14:06:18 5.9 C 30 %
374 04-02-2020 14:16:17 6.1 C 27 %
375 04-02-2020 14:26:17 6.4 C 27 %
Sensor: Nr:Datum:Temp:Feuchte:
Aussen-T/F 376 04-02-2020 14:36:17 6 C 27 %
377 04-02-2020 14:46:18 6.5 C 26 %
378 04-02-2020 14:56:18 6.5 C 27 %
379 04-02-2020 15:06:17 5.9 C 27 %
380 04-02-2020 15:16:17 5.1 C 29 %
381 04-02-2020 15:26:17 4.8 C 30 %
382 04-02-2020 15:36:18 4.4 C 32 %
383 04-02-2020 15:46:18 4.4 C 33 %
384 04-02-2020 15:56:18 4.5 C 33 %
385 04-02-2020 16:06:17 4.5 C 33 %
386 04-02-2020 16:16:17 4.5 C 33 %
387 04-02-2020 16:26:17 4.8 C 33 %
388 04-02-2020 16:36:17 4.8 C 33 %
389 04-02-2020 16:46:17 4.9 C 33 %
390 04-02-2020 16:56:18 4.4 C 33 %
391 04-02-2020 17:06:17 4.3 C 34 %
392 04-02-2020 17:16:17 4 C 35 %
393 04-02-2020 17:26:17 4 C 36 %
394 04-02-2020 17:36:17 4 C 36 %
395 04-02-2020 17:46:17 4.2 C 35 %
396 04-02-2020 17:56:17 4 C 35 %
397 04-02-2020 18:06:18 3.8 C 37 %
398 04-02-2020 18:16:17 3.9 C 37 %
399 04-02-2020 18:26:17 4.1 C 35 %
400 04-02-2020 18:36:17 4.1 C 35 %
Sensor: Nr:Datum:Temp:Feuchte:
Aussen-T/F 401 04-02-2020 18:46:17 4.3 C 35 %
402 04-02-2020 18:56:17 4.3 C 35 %
403 04-02-2020 19:06:18 4.4 C 35 %
404 04-02-2020 19:16:18 4.3 C 35 %
405 04-02-2020 19:26:18 4 C 37 %
406 04-02-2020 19:36:17 3.9 C 39 %
407 04-02-2020 19:46:18 3.8 C 40 %
408 04-02-2020 19:56:18 3.9 C 38 %
409 04-02-2020 20:06:17 4 C 37 %
410 04-02-2020 20:16:17 3.9 C 39 %
411 04-02-2020 20:26:17 3.8 C 39 %
412 04-02-2020 20:36:17 3.8 C 39 %
413 04-02-2020 20:46:17 3.9 C 39 %
414 04-02-2020 20:56:17 3.9 C 39 %
415 04-02-2020 21:06:18 4 C 38 %
416 04-02-2020 21:16:18 4 C 38 %
417 04-02-2020 21:26:18 4 C 38 %
418 04-02-2020 21:36:17 3.8 C 39 %
419 04-02-2020 21:46:17 3.8 C 40 %
420 04-02-2020 21:56:17 3.8 C 40 %
421 04-02-2020 22:06:17 3.8 C 40 %
422 04-02-2020 22:16:17 4 C 40 %
423 04-02-2020 22:26:17 4 C 39 %
424 04-02-2020 22:36:18 3.8 C 39 %
425 04-02-2020 22:46:18 3.5 C 40 %
Sensor: Nr:Datum:Temp:Feuchte:
Aussen-T/F 426 04-02-2020 22:56:18 3.6 C 40 %
427 04-02-2020 23:06:17 3.7 C 40 %
428 04-02-2020 23:16:17 3.7 C 40 %
429 04-02-2020 23:26:17 4.1 C 37 %
430 04-02-2020 23:36:18 4.1 C 36 %
431 04-02-2020 23:46:17 4.1 C 36 %
432 04-02-2020 23:56:17 4.1 C 37 %
433 05-02-2020 00:06:17 4.2 C 36 %
434 05-02-2020 00:16:17 4 C 37 %
435 05-02-2020 00:26:17 4 C 37 %
436 05-02-2020 00:36:18 4.2 C 36 %
437 05-02-2020 00:46:17 4.2 C 36 %
438 05-02-2020 00:56:18 4.3 C 35 %
439 05-02-2020 01:06:18 4.4 C 35 %
440 05-02-2020 01:16:18 4.5 C 34 %
441 05-02-2020 01:26:18 4.6 C 33 %
442 05-02-2020 01:36:17 4.7 C 34 %
443 05-02-2020 01:46:18 4.7 C 33 %
444 05-02-2020 01:56:18 4.8 C 33 %
445 05-02-2020 02:06:17 4.8 C 33 %
446 05-02-2020 02:16:17 4.8 C 34 %
447 05-02-2020 02:26:17 4.7 C 34 %
448 05-02-2020 02:36:17 4.7 C 34 %
449 05-02-2020 02:46:17 4.6 C 35 %
450 05-02-2020 02:56:17 4.6 C 35 %
Sensor: Nr:Datum:Temp:Feuchte:
Aussen-T/F 451 05-02-2020 03:06:18 4.7 C 35 %
452 05-02-2020 03:16:17 4.6 C 36 %
453 05-02-2020 03:26:17 4.6 C 36 %
454 05-02-2020 03:36:18 4.5 C 36 %
455 05-02-2020 03:46:17 4.1 C 37 %
456 05-02-2020 03:56:18 3.6 C 38 %
457 05-02-2020 04:06:18 3.5 C 40 %
458 05-02-2020 04:16:18 3.8 C 40 %
459 05-02-2020 04:26:18 3.6 C 39 %
460 05-02-2020 04:36:17 3.6 C 38 %
461 05-02-2020 04:46:17 3.5 C 39 %
462 05-02-2020 04:56:17 3.3 C 38 %
463 05-02-2020 05:06:18 3.4 C 39 %
464 05-02-2020 05:16:18 2.6 C 40 %
465 05-02-2020 05:26:18 3.1 C 41 %
466 05-02-2020 05:36:18 2.6 C 41 %
467 05-02-2020 05:46:18 2.8 C 41 %
468 05-02-2020 05:56:18 3 C 41 %
469 05-02-2020 06:06:17 3.3 C 42 %
470 05-02-2020 06:16:17 4 C 38 %
471 05-02-2020 06:26:17 3.8 C 38 %
472 05-02-2020 06:36:18 3.7 C 38 %
473 05-02-2020 06:46:17 3.7 C 38 %
474 05-02-2020 06:56:18 3.1 C 38 %
475 05-02-2020 07:06:18 3.1 C 38 %
Sensor: Nr:Datum:Temp:Feuchte:
Aussen-T/F 476 05-02-2020 07:16:17 2.8 C 39 %
477 05-02-2020 07:26:17 2.5 C 39 %
478 05-02-2020 07:36:17 2.5 C 40 %
479 05-02-2020 07:46:17 2.6 C 40 %
480 05-02-2020 07:56:17 2.6 C 40 %
481 05-02-2020 08:06:18 2.3 C 40 %
482 05-02-2020 08:16:17 2 C 41 %
483 05-02-2020 08:26:17 1.7 C 43 %
484 05-02-2020 08:36:17 1.6 C 43 %
485 05-02-2020 08:46:17 1.6 C 43 %
486 05-02-2020 08:56:17 1.5 C 44 %
487 05-02-2020 09:06:17 1.4 C 45 %
488 05-02-2020 09:16:17 2 C 44 %
489 05-02-2020 09:26:17 2 C 42 %
490 05-02-2020 09:36:18 2 C 42 %
491 05-02-2020 09:46:18 2.7 C 42 %
492 05-02-2020 09:56:18 3.6 C 39 %
493 05-02-2020 10:06:17 4 C 40 %
494 05-02-2020 10:16:17 4.3 C 37 %
495 05-02-2020 10:26:17 4.4 C 32 %
496 05-02-2020 10:36:17 4.7 C 31 %
497 05-02-2020 10:46:17 5 C 31 %
498 05-02-2020 10:56:17 5.1 C 30 %
499 05-02-2020 11:06:17 4.9 C 31 %
500 05-02-2020 11:16:17 5 C 30 %
Sensor: Nr:Datum:Temp:Feuchte:
Aussen-T/F 501 05-02-2020 11:26:17 5.2 C 30 %
502 05-02-2020 11:36:17 5.1 C 30 %
503 05-02-2020 11:46:17 5.2 C 30 %
504 05-02-2020 11:56:17 5.3 C 30 %
505 05-02-2020 12:06:17 5.7 C 30 %
506 05-02-2020 12:16:17 5.9 C 29 %
507 05-02-2020 12:26:17 5.8 C 29 %
508 05-02-2020 12:36:18 5.6 C 28 %
509 05-02-2020 12:46:17 5.5 C 29 %
510 05-02-2020 12:56:17 5.9 C 28 %
511 05-02-2020 13:06:17 5.4 C 28 %
512 05-02-2020 13:16:17 5.3 C 28 %
513 05-02-2020 13:26:17 5.8 C 28 %
514 05-02-2020 13:36:18 5.8 C 27 %
515 05-02-2020 13:46:18 5.9 C 27 %
516 05-02-2020 13:56:18 5.9 C 27 %
517 05-02-2020 14:06:17 5.8 C 27 %
518 05-02-2020 14:16:18 5.6 C 27 %
519 05-02-2020 14:26:18 5.7 C 27 %
520 05-02-2020 14:36:17 6 C 28 %
521 05-02-2020 14:46:17 7.7 C 26 %
522 05-02-2020 14:56:17 7.1 C 25 %
523 05-02-2020 15:06:17 6.9 C 25 %
524 05-02-2020 15:16:17 7.3 C 25 %
525 05-02-2020 15:26:17 5.7 C 27 %
Sensor: Nr:Datum:Temp:Feuchte:
Aussen-T/F 526 05-02-2020 15:36:17 6.9 C 25 %
527 05-02-2020 15:46:17 6.4 C 27 %
528 05-02-2020 15:56:17 5 C 29 %
529 05-02-2020 16:06:17 5.8 C 28 %
530 05-02-2020 16:16:17 6.2 C 27 %
531 05-02-2020 16:26:17 6.8 C 26 %
532 05-02-2020 16:36:18 4.8 C 30 %
533 05-02-2020 16:46:18 3.8 C 33 %
534 05-02-2020 16:56:18 3.7 C 35 %
535 05-02-2020 17:06:17 3.4 C 35 %
536 05-02-2020 17:16:17 3.4 C 35 %
537 05-02-2020 17:26:17 3.2 C 35 %
538 05-02-2020 17:36:18 3.1 C 35 %
539 05-02-2020 17:46:18 2.6 C 36 %
540 05-02-2020 17:56:18 2.4 C 36 %
541 05-02-2020 18:06:17 2.3 C 37 %
542 05-02-2020 18:16:17 2.1 C 37 %
543 05-02-2020 18:26:17 1.8 C 39 %
544 05-02-2020 18:36:17 1.3 C 40 %
545 05-02-2020 18:46:17 0.5 C 42 %
546 05-02-2020 18:56:17 0.8 C 46 %
547 05-02-2020 19:06:18 0.1 C 45 %
548 05-02-2020 19:16:18 -0.1 C 45 %
549 05-02-2020 19:26:18 -0.1 C 46 %
550 05-02-2020 19:36:18 -0.4 C 46 %
Sensor: Nr:Datum:Temp:Feuchte:
Aussen-T/F 551 05-02-2020 19:46:17 -0.5 C 46 %
552 05-02-2020 19:56:18 -0.7 C 46 %
553 05-02-2020 20:06:18 -0.7 C 46 %
554 05-02-2020 20:16:17 -0.7 C 46 %
555 05-02-2020 20:26:17 -0.9 C 46 %
556 05-02-2020 20:36:17 -0.5 C 46 %
557 05-02-2020 20:46:17 -0.7 C 46 %
558 05-02-2020 20:56:17 -0.8 C 46 %
559 05-02-2020 21:06:17 -1 C 46 %
560 05-02-2020 21:16:17 -0.7 C 47 %
561 05-02-2020 21:26:17 -1 C 46 %
562 05-02-2020 21:36:18 -1.3 C 46 %
563 05-02-2020 21:46:18 -1.4 C 46 %
564 05-02-2020 21:56:18 -1.3 C 46 %
565 05-02-2020 22:06:18 -1.5 C 46 %
566 05-02-2020 22:16:17 -1.4 C 47 %
567 05-02-2020 22:26:17 -1.4 C 46 %
568 05-02-2020 22:36:17 -1.5 C 47 %
569 05-02-2020 22:46:17 -1.4 C 47 %
570 05-02-2020 22:56:17 -1.5 C 46 %
571 05-02-2020 23:06:17 -1.2 C 47 %
572 05-02-2020 23:16:17 -1.1 C 47 %
573 05-02-2020 23:26:17 -1.2 C 46 %
574 05-02-2020 23:36:17 -1.4 C 46 %
575 05-02-2020 23:46:17 -1.4 C 46 %
Sensor: Nr:Datum:Temp:Feuchte:
Aussen-T/F 576 05-02-2020 23:56:17 -1.6 C 46 %
577 06-02-2020 00:06:17 -1.6 C 46 %
578 06-02-2020 00:16:17 -1.6 C 46 %
579 06-02-2020 00:26:17 -1.4 C 47 %
580 06-02-2020 00:36:17 -1.8 C 46 %
581 06-02-2020 00:46:17 -1.3 C 47 %
582 06-02-2020 00:56:17 -1.5 C 46 %
583 06-02-2020 01:06:17 -1.4 C 46 %
584 06-02-2020 01:16:17 -1.1 C 47 %
585 06-02-2020 01:26:17 -0.9 C 47 %
586 06-02-2020 01:36:18 -1.2 C 46 %
587 06-02-2020 01:46:18 -1.2 C 46 %
588 06-02-2020 01:56:18 -1.1 C 46 %
589 06-02-2020 02:06:18 -1.1 C 46 %
590 06-02-2020 02:16:17 -1.1 C 46 %
591 06-02-2020 02:26:17 -1.3 C 46 %
592 06-02-2020 02:36:17 -1.3 C 46 %
593 06-02-2020 02:46:17 -1.4 C 46 %
594 06-02-2020 02:56:17 -1.6 C 46 %
595 06-02-2020 03:06:17 -1.5 C 46 %
596 06-02-2020 03:16:18 -1.6 C 46 %
597 06-02-2020 03:26:18 -1.8 C 46 %
598 06-02-2020 03:36:17 -1.9 C 46 %
599 06-02-2020 03:46:17 -1.8 C 46 %
600 06-02-2020 03:56:17 -2.2 C 46 %
Sensor: Nr:Datum:Temp:Feuchte:
Aussen-T/F 601 06-02-2020 04:06:17 -1.8 C 46 %
602 06-02-2020 04:16:17 -2 C 46 %
603 06-02-2020 04:26:17 -1.7 C 46 %
604 06-02-2020 04:36:18 -1.6 C 46 %
605 06-02-2020 04:46:18 -1.7 C 46 %
606 06-02-2020 04:56:18 -1.6 C 46 %
607 06-02-2020 05:06:17 -1.7 C 46 %
608 06-02-2020 05:16:18 -1.6 C 46 %
609 06-02-2020 05:26:18 -1.6 C 46 %
610 06-02-2020 05:36:18 -2.2 C 46 %
611 06-02-2020 05:46:18 -2.4 C 46 %
612 06-02-2020 05:56:18 -2.3 C 46 %
613 06-02-2020 06:06:18 -2.2 C 46 %
614 06-02-2020 06:16:18 -2.1 C 46 %
615 06-02-2020 06:26:18 -2.3 C 46 %
616 06-02-2020 06:36:17 -2.5 C 46 %
617 06-02-2020 06:46:17 -2.1 C 46 %
618 06-02-2020 06:56:17 -2.5 C 46 %
619 06-02-2020 07:06:17 -2.6 C 46 %
620 06-02-2020 07:16:17 -2.6 C 46 %
621 06-02-2020 07:26:17 -2.6 C 46 %
622 06-02-2020 07:36:17 -2.8 C 45 %
623 06-02-2020 07:46:17 -2.5 C 45 %
624 06-02-2020 07:56:17 -2.1 C 46 %
625 06-02-2020 08:06:17 -1.9 C 46 %
Sensor: Nr:Datum:Temp:Feuchte:
Aussen-T/F 626 06-02-2020 08:16:17 -2 C 46 %
627 06-02-2020 08:26:17 -1.8 C 46 %
628 06-02-2020 08:36:18 -1.9 C 46 %
629 06-02-2020 08:46:17 -1.5 C 47 %
630 06-02-2020 08:56:18 -1.3 C 47 %
631 06-02-2020 09:06:17 -1.3 C 47 %
632 06-02-2020 09:16:17 -1.3 C 47 %
633 06-02-2020 09:26:17 -1 C 47 %
634 06-02-2020 09:36:17 -0.8 C 47 %
635 06-02-2020 09:46:17 -0.9 C 47 %
636 06-02-2020 09:56:17 -0.9 C 46 %
637 06-02-2020 10:06:17 -0.7 C 46 %
638 06-02-2020 10:16:18 -0.5 C 47 %
639 06-02-2020 10:26:18 -0.4 C 46 %
640 06-02-2020 10:36:18 -0.3 C 46 %
641 06-02-2020 10:46:18 -0.3 C 45 %
642 06-02-2020 10:56:18 -0.3 C 45 %
643 06-02-2020 11:06:17 -0.3 C 45 %
644 06-02-2020 11:16:17 0 C 45 %
645 06-02-2020 11:26:17 0.3 C 45 %
646 06-02-2020 11:36:17 0.7 C 45 %
647 06-02-2020 11:46:17 1.2 C 44 %
648 06-02-2020 11:56:18 1.4 C 43 %
649 06-02-2020 12:06:18 2.1 C 40 %
650 06-02-2020 12:16:17 2.9 C 40 %
Sensor: Nr:Datum:Temp:Feuchte:
Aussen-T/F 651 06-02-2020 12:26:17 3.2 C 39 %
652 06-02-2020 12:36:17 3.5 C 37 %
653 06-02-2020 12:46:17 3.2 C 37 %
654 06-02-2020 12:56:17 3.4 C 37 %
655 06-02-2020 13:06:17 3.9 C 37 %
656 06-02-2020 13:16:17 3.9 C 37 %
657 06-02-2020 13:26:17 4 C 37 %
658 06-02-2020 13:36:17 3.7 C 36 %
659 06-02-2020 13:46:17 4.5 C 36 %
660 06-02-2020 13:56:17 4.9 C 36 %
661 06-02-2020 14:06:17 5.1 C 36 %
662 06-02-2020 14:16:18 5.4 C 35 %
663 06-02-2020 14:26:18 4.9 C 35 %
664 06-02-2020 14:36:17 5.1 C 35 %
665 06-02-2020 14:46:17 5.1 C 33 %
666 06-02-2020 14:56:17 5.6 C 34 %
667 06-02-2020 15:06:17 5.6 C 32 %
668 06-02-2020 15:16:18 5.2 C 31 %
669 06-02-2020 15:26:18 5.2 C 31 %
670 06-02-2020 15:36:17 5.4 C 31 %
671 06-02-2020 15:46:17 5.6 C 31 %
672 06-02-2020 15:56:17 5.5 C 30 %
673 06-02-2020 16:06:17 5.6 C 29 %
674 06-02-2020 16:16:17 5.4 C 28 %
675 06-02-2020 16:26:17 7.4 C 23 %
Sensor: Nr:Datum:Temp:Feuchte:
Aussen-T/F 676 06-02-2020 16:36:17 6.7 C 25 %
677 06-02-2020 16:46:17 4.8 C 30 %
678 06-02-2020 16:56:17 3.9 C 33 %
679 06-02-2020 17:06:18 3.3 C 35 %
680 06-02-2020 17:16:18 3 C 35 %
681 06-02-2020 17:26:18 2.7 C 36 %
682 06-02-2020 17:36:17 2.2 C 36 %
683 06-02-2020 17:46:17 2 C 37 %
684 06-02-2020 17:56:18 1.7 C 38 %
685 06-02-2020 18:06:18 1.6 C 38 %
686 06-02-2020 18:16:17 1.3 C 38 %
687 06-02-2020 18:26:17 1.2 C 40 %
688 06-02-2020 18:36:18 1 C 40 %
689 06-02-2020 18:46:17 1.2 C 40 %
690 06-02-2020 18:56:17 0.4 C 42 %
691 06-02-2020 19:06:17 0.1 C 45 %
692 06-02-2020 19:16:17 0.2 C 45 %
693 06-02-2020 19:26:17 -0.5 C 45 %
694 06-02-2020 19:36:17 -0.6 C 46 %
695 06-02-2020 19:46:17 -0.9 C 46 %
696 06-02-2020 19:56:18 -1 C 46 %
697 06-02-2020 20:06:18 -1.3 C 46 %
698 06-02-2020 20:16:17 -1.4 C 47 %
699 06-02-2020 20:26:17 -1.6 C 46 %
700 06-02-2020 20:36:18 -1.6 C 46 %
Sensor: Nr:Datum:Temp:Feuchte:
Aussen-T/F 701 06-02-2020 20:46:17 -1.7 C 46 %
702 06-02-2020 20:56:17 -1.8 C 46 %
703 06-02-2020 21:06:17 -1.9 C 46 %
704 06-02-2020 21:16:17 -2 C 46 %
705 06-02-2020 21:26:17 -2.1 C 46 %
706 06-02-2020 21:36:17 -2 C 47 %
707 06-02-2020 21:46:17 -2.3 C 46 %
708 06-02-2020 21:56:17 -2.3 C 46 %
709 06-02-2020 22:06:17 -2.1 C 46 %
710 06-02-2020 22:16:17 -2.2 C 46 %
711 06-02-2020 22:26:17 -2.3 C 46 %
712 06-02-2020 22:36:18 -2.5 C 46 %
713 06-02-2020 22:46:17 -2.5 C 46 %
714 06-02-2020 22:56:17 -2.6 C 46 %
715 06-02-2020 23:06:17 -2.6 C 46 %
716 06-02-2020 23:16:17 -2.7 C 46 %
717 06-02-2020 23:26:17 -2.4 C 46 %
718 06-02-2020 23:36:17 -2.5 C 46 %
719 06-02-2020 23:46:18 -2.5 C 46 %
720 06-02-2020 23:56:18 -2.6 C 46 %
721 07-02-2020 00:06:18 -2.9 C 46 %
722 07-02-2020 00:16:17 -3 C 46 %
723 07-02-2020 00:26:17 -2.6 C 46 %
724 07-02-2020 00:36:17 -2.9 C 46 %
725 07-02-2020 00:46:17 -3 C 46 %
Sensor: Nr:Datum:Temp:Feuchte:
Aussen-T/F 726 07-02-2020 00:56:17 -3 C 46 %
727 07-02-2020 01:06:17 -2.9 C 46 %
728 07-02-2020 01:16:17 -3.1 C 45 %
729 07-02-2020 01:26:17 -3.3 C 45 %
730 07-02-2020 01:36:18 -3.2 C 45 %
731 07-02-2020 01:46:17 -3 C 45 %
732 07-02-2020 01:56:17 -3 C 45 %
733 07-02-2020 02:06:18 -3 C 45 %
734 07-02-2020 02:16:18 -2.9 C 45 %
735 07-02-2020 02:26:18 -2.5 C 46 %
736 07-02-2020 02:36:18 -2.2 C 46 %
737 07-02-2020 02:46:18 -2.2 C 46 %
738 07-02-2020 02:56:18 -2.1 C 46 %
739 07-02-2020 03:06:17 -2.1 C 46 %
740 07-02-2020 03:16:17 -2 C 46 %
741 07-02-2020 03:26:17 -2 C 46 %
742 07-02-2020 03:36:17 -2.1 C 46 %
743 07-02-2020 03:46:17 -2.1 C 46 %
744 07-02-2020 03:56:17 -1.9 C 46 %
745 07-02-2020 04:06:17 -2 C 46 %
746 07-02-2020 04:16:18 -2.1 C 46 %
747 07-02-2020 04:26:18 -2.2 C 46 %
748 07-02-2020 04:36:18 -2.2 C 46 %
749 07-02-2020 04:46:18 -2.1 C 46 %
750 07-02-2020 04:56:18 -2.1 C 46 %
Sensor: Nr:Datum:Temp:Feuchte:
Aussen-T/F 751 07-02-2020 05:06:17 -2 C 46 %
752 07-02-2020 05:16:17 -2.1 C 46 %
753 07-02-2020 05:26:17 -2.2 C 46 %
754 07-02-2020 05:36:17 -2.3 C 46 %
755 07-02-2020 05:46:18 -2.3 C 46 %
756 07-02-2020 05:56:18 -2.4 C 46 %
757 07-02-2020 06:06:18 -2.4 C 46 %
758 07-02-2020 06:16:17 -2.3 C 46 %
759 07-02-2020 06:26:17 -2.5 C 46 %
760 07-02-2020 06:36:18 -2.5 C 46 %
761 07-02-2020 06:46:17 -2.4 C 46 %
762 07-02-2020 06:56:17 -2.5 C 46 %
763 07-02-2020 07:06:17 -2.6 C 46 %
764 07-02-2020 07:16:17 -2.7 C 46 %
765 07-02-2020 07:26:18 -2.5 C 46 %
766 07-02-2020 07:36:18 -2.4 C 46 %
767 07-02-2020 07:46:17 -2.5 C 46 %
768 07-02-2020 07:56:18 -2.5 C 46 %
769 07-02-2020 08:06:18 -2.5 C 46 %
770 07-02-2020 08:16:18 -2.6 C 46 %
771 07-02-2020 08:26:18 -2.8 C 46 %
772 07-02-2020 08:36:17 -2.7 C 46 %
773 07-02-2020 08:46:17 -2.6 C 46 %
774 07-02-2020 08:56:17 -2.4 C 46 %
775 07-02-2020 09:06:17 -2.3 C 46 %
Sensor: Nr:Datum:Temp:Feuchte:
Aussen-T/F 776 07-02-2020 09:16:17 -2.5 C 46 %
777 07-02-2020 09:26:17 -2.4 C 46 %
778 07-02-2020 09:36:17 -2.3 C 46 %
779 07-02-2020 09:46:17 -2.4 C 45 %
780 07-02-2020 09:56:17 -2.4 C 46 %
781 07-02-2020 10:06:18 -2.2 C 46 %
782 07-02-2020 10:16:17 -2 C 46 %
783 07-02-2020 10:26:17 -1.6 C 47 %
784 07-02-2020 10:36:17 -1.2 C 46 %
785 07-02-2020 10:46:17 -1.8 C 45 %
786 07-02-2020 10:56:17 -1.4 C 46 %
787 07-02-2020 11:06:17 -1.6 C 46 %
788 07-02-2020 11:16:18 -1.5 C 46 %
789 07-02-2020 11:26:18 -1 C 47 %
790 07-02-2020 11:36:17 -0.8 C 46 %
791 07-02-2020 11:46:17 -0.6 C 47 %
792 07-02-2020 11:56:17 -0.4 C 47 %
793 07-02-2020 12:06:17 -0.1 C 47 %
794 07-02-2020 12:16:18 0.4 C 47 %
795 07-02-2020 12:26:18 0.4 C 46 %
796 07-02-2020 12:36:18 0.7 C 46 %
797 07-02-2020 12:46:18 0.6 C 46 %
798 07-02-2020 12:56:18 0.8 C 47 %
799 07-02-2020 13:06:18 1.2 C 46 %
800 07-02-2020 13:16:17 2.8 C 43 %
Sensor: Nr:Datum:Temp:Feuchte:
Aussen-T/F 801 07-02-2020 13:26:17 2.7 C 39 %
802 07-02-2020 13:36:17 3 C 38 %
803 07-02-2020 13:46:17 2.7 C 38 %
804 07-02-2020 13:56:17 2.4 C 40 %
805 07-02-2020 14:06:17 2.7 C 39 %
806 07-02-2020 14:16:17 2.6 C 39 %
807 07-02-2020 14:26:17 2.8 C 39 %
808 07-02-2020 14:36:18 3.8 C 36 %
809 07-02-2020 14:46:18 5.1 C 34 %
810 07-02-2020 14:56:18 4.6 C 35 %
811 07-02-2020 15:06:18 5.8 C 33 %
812 07-02-2020 15:16:17 6 C 32 %
813 07-02-2020 15:26:17 4.8 C 32 %
814 07-02-2020 15:36:17 5.4 C 31 %
815 07-02-2020 15:46:17 5.6 C 30 %
816 07-02-2020 15:56:17 4.8 C 32 %
817 07-02-2020 16:06:18 6.2 C 30 %
818 07-02-2020 16:16:17 5.8 C 30 %
819 07-02-2020 16:26:17 5.7 C 30 %
820 07-02-2020 16:36:18 5.1 C 30 %
821 07-02-2020 16:46:17 3.4 C 33 %
822 07-02-2020 16:56:17 3 C 35 %
823 07-02-2020 17:06:18 2.8 C 36 %
824 07-02-2020 17:16:18 2.6 C 36 %
825 07-02-2020 17:26:18 2.6 C 36 %
Sensor: Nr:Datum:Temp:Feuchte:
Aussen-T/F 826 07-02-2020 17:36:18 2 C 37 %
827 07-02-2020 17:46:18 1.8 C 38 %
828 07-02-2020 17:56:18 1.8 C 38 %
829 07-02-2020 18:06:18 1.6 C 38 %
830 07-02-2020 18:16:17 1.5 C 38 %
831 07-02-2020 18:26:17 1.4 C 38 %
832 07-02-2020 18:36:17 1.1 C 39 %
833 07-02-2020 18:46:17 1.2 C 39 %
834 07-02-2020 18:56:18 0.9 C 40 %
835 07-02-2020 19:06:17 1.2 C 40 %
836 07-02-2020 19:16:18 1 C 40 %
837 07-02-2020 19:26:18 0.6 C 40 %
838 07-02-2020 19:36:18 0.6 C 41 %
839 07-02-2020 19:46:17 0.1 C 41 %
840 07-02-2020 19:56:17 0.3 C 42 %
841 07-02-2020 20:06:18 0.2 C 42 %
842 07-02-2020 20:16:18 0.2 C 43 %
843 07-02-2020 20:26:18 0.1 C 43 %
844 07-02-2020 20:36:18 0.1 C 42 %
845 07-02-2020 20:46:18 0 C 42 %
846 07-02-2020 20:56:18 0.1 C 43 %
847 07-02-2020 21:06:18 -0.2 C 42 %
848 07-02-2020 21:16:18 0.3 C 43 %
849 07-02-2020 21:26:18 0.3 C 42 %
850 07-02-2020 21:36:18 0.3 C 43 %
Sensor: Nr:Datum:Temp:Feuchte:
Aussen-T/F 851 07-02-2020 21:46:18 0 C 42 %
852 07-02-2020 21:56:18 0.1 C 43 %
853 07-02-2020 22:06:18 -0.5 C 42 %
854 07-02-2020 22:16:17 -0.4 C 44 %
855 07-02-2020 22:26:17 -0.1 C 45 %
856 07-02-2020 22:36:18 -0.7 C 43 %
857 07-02-2020 22:46:18 -0.3 C 44 %
858 07-02-2020 22:56:18 -0.3 C 43 %
859 07-02-2020 23:06:18 -0.3 C 44 %
860 07-02-2020 23:16:17 -1.3 C 42 %
861 07-02-2020 23:26:17 -0.6 C 46 %
862 07-02-2020 23:36:18 -1 C 45 %
863 07-02-2020 23:46:18 -0.7 C 46 %
864 07-02-2020 23:56:18 -0.7 C 46 %
865 08-02-2020 00:06:18 -1.2 C 44 %
866 08-02-2020 00:16:18 -1 C 45 %
867 08-02-2020 00:26:18 -1.4 C 45 %
868 08-02-2020 00:36:18 -0.9 C 46 %
869 08-02-2020 00:46:17 -1.7 C 44 %
870 08-02-2020 00:56:17 -1.9 C 45 %
871 08-02-2020 01:06:18 -2.2 C 45 %
872 08-02-2020 01:16:17 -2.3 C 46 %
873 08-02-2020 01:26:18 -2.3 C 46 %
874 08-02-2020 01:36:17 -2.5 C 46 %
875 08-02-2020 01:46:17 -2.2 C 46 %
Sensor: Nr:Datum:Temp:Feuchte:
Aussen-T/F 876 08-02-2020 01:56:17 -2.5 C 46 %
877 08-02-2020 02:06:18 -2.3 C 46 %
878 08-02-2020 02:16:17 -2.4 C 46 %
879 08-02-2020 02:26:17 -2.4 C 46 %
880 08-02-2020 02:36:18 -2.5 C 46 %
881 08-02-2020 02:46:18 -2.4 C 47 %
882 08-02-2020 02:56:18 -2.7 C 46 %
883 08-02-2020 03:06:18 -2.5 C 47 %
884 08-02-2020 03:16:18 -2.5 C 46 %
885 08-02-2020 03:26:18 -2.7 C 46 %
886 08-02-2020 03:36:18 -2.8 C 46 %
887 08-02-2020 03:46:18 -2.8 C 46 %
888 08-02-2020 03:56:18 -2.6 C 46 %
889 08-02-2020 04:06:18 -2.7 C 46 %
890 08-02-2020 04:16:18 -3 C 45 %
891 08-02-2020 04:26:18 -2.8 C 46 %
892 08-02-2020 04:36:18 -2.6 C 46 %
893 08-02-2020 04:46:18 -2.2 C 46 %
894 08-02-2020 04:56:18 -2.6 C 46 %
895 08-02-2020 05:06:18 -2.6 C 46 %
896 08-02-2020 05:16:18 -2.7 C 46 %
897 08-02-2020 05:26:18 -2.6 C 46 %
898 08-02-2020 05:36:18 -2.7 C 46 %
899 08-02-2020 05:46:18 -2.6 C 46 %
900 08-02-2020 05:56:18 -2.6 C 46 %
Sensor: Nr:Datum:Temp:Feuchte:
Aussen-T/F 901 08-02-2020 06:06:18 -2.5 C 46 %
902 08-02-2020 06:16:18 -2.5 C 46 %
903 08-02-2020 06:26:18 -2.6 C 46 %
904 08-02-2020 06:36:18 -2.7 C 46 %
905 08-02-2020 06:46:18 -2.3 C 46 %
906 08-02-2020 06:56:18 -2.1 C 46 %
907 08-02-2020 07:06:18 -2.1 C 46 %
908 08-02-2020 07:16:18 -2.4 C 46 %
909 08-02-2020 07:26:18 -2.2 C 46 %
910 08-02-2020 07:36:18 -2.1 C 46 %
911 08-02-2020 07:46:18 -2 C 46 %
912 08-02-2020 07:56:18 -1.8 C 47 %
913 08-02-2020 08:06:18 -1.7 C 46 %
914 08-02-2020 08:16:18 -1.8 C 46 %
915 08-02-2020 08:26:18 -1.8 C 46 %
916 08-02-2020 08:36:18 -1.5 C 46 %
917 08-02-2020 08:46:18 -1.2 C 47 %
918 08-02-2020 08:56:18 -1 C 47 %
919 08-02-2020 09:06:18 -0.8 C 47 %
920 08-02-2020 09:16:18 -0.5 C 47 %
921 08-02-2020 09:26:18 -0.2 C 47 %
922 08-02-2020 09:36:18 0 C 47 %
923 08-02-2020 09:46:18 0.1 C 46 %
924 08-02-2020 09:56:18 0.3 C 46 %
925 08-02-2020 10:06:18 0.6 C 45 %
Sensor: Nr:Datum:Temp:Feuchte:
Aussen-T/F 926 08-02-2020 10:16:18 0.7 C 44 %
927 08-02-2020 10:26:18 1 C 43 %
928 08-02-2020 10:36:18 1.3 C 44 %
929 08-02-2020 10:46:18 1.3 C 43 %
930 08-02-2020 10:56:18 1.6 C 44 %
931 08-02-2020 11:06:18 1.5 C 42 %
932 08-02-2020 11:16:17 1.7 C 42 %
933 08-02-2020 11:26:17 1.7 C 42 %
934 08-02-2020 11:36:17 1.9 C 42 %
935 08-02-2020 11:46:17 2 C 42 %
936 08-02-2020 11:56:17 2.4 C 45 %
937 08-02-2020 12:06:17 2.3 C 42 %
938 08-02-2020 12:16:18 2.4 C 40 %
939 08-02-2020 12:26:18 2.9 C 41 %
940 08-02-2020 12:36:18 2.7 C 40 %
941 08-02-2020 12:46:17 2.7 C 40 %
942 08-02-2020 12:56:18 2.8 C 41 %
943 08-02-2020 13:06:18 3.1 C 41 %
944 08-02-2020 13:16:18 3.3 C 41 %
945 08-02-2020 13:26:18 3.4 C 42 %
946 08-02-2020 13:36:17 3.6 C 43 %
947 08-02-2020 13:46:18 3.5 C 37 %
948 08-02-2020 13:56:18 3.6 C 37 %
949 08-02-2020 14:06:17 4.3 C 36 %
950 08-02-2020 14:16:17 4.4 C 35 %
Sensor: Nr:Datum:Temp:Feuchte:
Aussen-T/F 951 08-02-2020 14:26:17 4.3 C 34 %
952 08-02-2020 14:36:17 4.7 C 34 %
953 08-02-2020 14:46:17 4.8 C 34 %
954 08-02-2020 14:56:17 5.2 C 33 %
955 08-02-2020 15:06:17 5.2 C 33 %
956 08-02-2020 15:16:17 5 C 33 %
957 08-02-2020 15:26:17 5.2 C 33 %
958 08-02-2020 15:36:18 5.1 C 33 %
959 08-02-2020 15:46:17 5 C 34 %
960 08-02-2020 15:56:18 5.1 C 34 %
961 08-02-2020 16:06:18 4.7 C 35 %
962 08-02-2020 16:16:18 4.6 C 36 %
963 08-02-2020 16:26:18 4.5 C 36 %
964 08-02-2020 16:36:17 4.3 C 37 %
965 08-02-2020 16:46:17 4.3 C 37 %
966 08-02-2020 16:56:17 4.1 C 38 %
967 08-02-2020 17:06:17 4 C 38 %
968 08-02-2020 17:16:18 4 C 38 %
969 08-02-2020 17:26:18 4.1 C 39 %
970 08-02-2020 17:36:17 4 C 39 %
971 08-02-2020 17:46:17 3.9 C 40 %
972 08-02-2020 17:56:17 3.8 C 41 %
973 08-02-2020 18:06:17 3.7 C 41 %
974 08-02-2020 18:16:18 3.7 C 41 %
975 08-02-2020 18:26:18 3.6 C 41 %
Sensor: Nr:Datum:Temp:Feuchte:
Aussen-T/F 976 08-02-2020 18:36:18 3.6 C 41 %
977 08-02-2020 18:46:18 3.6 C 41 %
978 08-02-2020 18:56:18 3.6 C 40 %
979 08-02-2020 19:06:18 3.6 C 41 %
980 08-02-2020 19:16:18 3.6 C 41 %
981 08-02-2020 19:26:18 3.6 C 41 %
982 08-02-2020 19:36:17 3.7 C 42 %
983 08-02-2020 19:46:18 3.8 C 41 %
984 08-02-2020 19:56:18 3.7 C 41 %
985 08-02-2020 20:06:17 3.6 C 42 %
986 08-02-2020 20:16:17 3.5 C 42 %
987 08-02-2020 20:26:17 3.3 C 42 %
988 08-02-2020 20:36:17 3.2 C 43 %
989 08-02-2020 20:46:17 3 C 43 %
990 08-02-2020 20:56:17 2.8 C 45 %
991 08-02-2020 21:06:17 3 C 45 %
992 08-02-2020 21:16:17 2.9 C 45 %
993 08-02-2020 21:26:17 2.7 C 44 %
994 08-02-2020 21:36:17 2.6 C 45 %
995 08-02-2020 21:46:17 2.5 C 45 %
996 08-02-2020 21:56:17 2.2 C 45 %
997 08-02-2020 22:06:18 1.9 C 45 %
998 08-02-2020 22:16:17 1.9 C 46 %
999 08-02-2020 22:26:17 1.9 C 47 %
1000 08-02-2020 22:36:17 2 C 46 %
Sensor: Nr:Datum:Temp:Feuchte:
Aussen-T/F 1001 08-02-2020 22:46:17 2.1 C 46 %
1002 08-02-2020 22:56:17 2.1 C 46 %
1003 08-02-2020 23:06:17 2.5 C 46 %
1004 08-02-2020 23:16:18 2.7 C 46 %
1005 08-02-2020 23:26:18 2.4 C 46 %
1006 08-02-2020 23:36:18 1.9 C 46 %
1007 08-02-2020 23:46:17 2.2 C 46 %
1008 08-02-2020 23:56:17 2.5 C 46 %
1009 09-02-2020 00:06:17 2.7 C 46 %
1010 09-02-2020 00:16:18 2.6 C 46 %
1011 09-02-2020 00:26:18 2.7 C 46 %
1012 09-02-2020 00:36:18 2.8 C 46 %
1013 09-02-2020 00:46:18 2.8 C 46 %
1014 09-02-2020 00:56:18 2.8 C 45 %
1015 09-02-2020 01:06:18 2.8 C 45 %
1016 09-02-2020 01:16:18 2.2 C 44 %
1017 09-02-2020 01:26:18 2.1 C 45 %
1018 09-02-2020 01:36:17 1.6 C 45 %
1019 09-02-2020 01:46:18 1.6 C 46 %
1020 09-02-2020 01:56:18 1.5 C 46 %
1021 09-02-2020 02:06:18 1.3 C 46 %
1022 09-02-2020 02:16:18 1.9 C 47 %
1023 09-02-2020 02:26:18 2.2 C 46 %
1024 09-02-2020 02:36:18 2.3 C 46 %
1025 09-02-2020 02:46:17 2.3 C 46 %
Sensor: Nr:Datum:Temp:Feuchte:
Aussen-T/F 1026 09-02-2020 02:56:17 2.3 C 46 %
1027 09-02-2020 03:06:17 1.8 C 46 %
1028 09-02-2020 03:16:17 1.3 C 45 %
1029 09-02-2020 03:26:17 0.9 C 47 %
1030 09-02-2020 03:36:17 1.2 C 47 %
1031 09-02-2020 03:46:17 0.9 C 47 %
1032 09-02-2020 03:56:17 0.8 C 47 %
1033 09-02-2020 04:06:18 1.5 C 47 %
1034 09-02-2020 04:16:18 2 C 46 %
1035 09-02-2020 04:26:18 2.1 C 46 %
1036 09-02-2020 04:36:17 2 C 46 %
1037 09-02-2020 04:46:18 2.1 C 46 %
1038 09-02-2020 04:56:18 2.3 C 46 %
1039 09-02-2020 05:06:18 2.4 C 46 %
1040 09-02-2020 05:16:17 2.4 C 46 %
1041 09-02-2020 05:26:17 2.8 C 46 %
1042 09-02-2020 05:36:17 2.9 C 45 %
1043 09-02-2020 05:46:17 2.7 C 45 %
1044 09-02-2020 05:56:17 2.8 C 45 %
1045 09-02-2020 06:06:18 2.5 C 45 %
1046 09-02-2020 06:16:18 2.1 C 44 %
1047 09-02-2020 06:26:18 1.7 C 45 %
1048 09-02-2020 06:36:18 1.5 C 46 %
1049 09-02-2020 06:46:18 2 C 46 %
1050 09-02-2020 06:56:18 2.2 C 46 %
Sensor: Nr:Datum:Temp:Feuchte:
Aussen-T/F 1051 09-02-2020 07:06:18 2.3 C 46 %
1052 09-02-2020 07:16:17 2.5 C 46 %
1053 09-02-2020 07:26:17 3.7 C 46 %
1054 09-02-2020 07:36:18 4.2 C 45 %
1055 09-02-2020 07:46:18 5.2 C 44 %
1056 09-02-2020 07:56:18 5.6 C 44 %
1057 09-02-2020 08:06:18 5.3 C 42 %
1058 09-02-2020 08:16:17 6 C 40 %
1059 09-02-2020 08:26:17 8 C 35 %
1060 09-02-2020 08:36:17 8.7 C 33 %
1061 09-02-2020 08:46:17 8.6 C 33 %
1062 09-02-2020 08:56:17 9 C 32 %
1063 09-02-2020 09:06:18 9.6 C 32 %
1064 09-02-2020 09:16:18 10.1 C 30 %
1065 09-02-2020 09:26:18 10.4 C 30 %
1066 09-02-2020 09:36:17 10.4 C 30 %
1067 09-02-2020 09:46:18 10.2 C 30 %
1068 09-02-2020 09:56:18 10 C 30 %
1069 09-02-2020 10:06:17 10.2 C 30 %
1070 09-02-2020 10:16:17 10.5 C 30 %
1071 09-02-2020 10:26:18 10.6 C 29 %
1072 09-02-2020 10:36:18 10.8 C 28 %
1073 09-02-2020 10:46:17 10.8 C 28 %
1074 09-02-2020 10:56:18 11 C 28 %
1075 09-02-2020 11:06:18 11.2 C 26 %
Sensor: Nr:Datum:Temp:Feuchte:
Aussen-T/F 1076 09-02-2020 11:16:18 11.6 C 26 %
1077 09-02-2020 11:26:18 12.4 C 25 %
1078 09-02-2020 11:36:18 12 C 23 %
1079 09-02-2020 11:46:18 11.8 C 25 %
1080 09-02-2020 11:56:18 11.8 C 25 %
1081 09-02-2020 12:06:17 11.6 C 25 %
1082 09-02-2020 12:16:17 11.7 C 25 %
1083 09-02-2020 12:26:17 11.5 C 24 %
1084 09-02-2020 12:36:18 11.5 C 24 %
1085 09-02-2020 12:46:17 11.2 C 24 %
1086 09-02-2020 12:56:17 11 C 24 %
1087 09-02-2020 13:06:18 11.1 C 24 %
1088 09-02-2020 13:16:18 10.9 C 25 %
1089 09-02-2020 13:26:18 10.9 C 25 %
1090 09-02-2020 13:36:18 10.9 C 25 %
1091 09-02-2020 13:46:18 11.2 C 24 %
1092 09-02-2020 13:56:18 11.5 C 23 %
1093 09-02-2020 14:06:17 11.9 C 23 %
1094 09-02-2020 14:16:17 12.1 C 20 %
1095 09-02-2020 14:26:18 12.2 C 20 %
1096 09-02-2020 14:36:18 12.1 C 20 %
1097 09-02-2020 14:46:18 12.1 C 20 %
1098 09-02-2020 14:56:18 12 C 20 %
1099 09-02-2020 15:06:18 12 C 20 %
1100 09-02-2020 15:16:17 12 C 20 %
Sensor: Nr:Datum:Temp:Feuchte:
Aussen-T/F 1101 09-02-2020 15:26:17 12.2 C 20 %
1102 09-02-2020 15:36:17 12.3 C 20 %
1103 09-02-2020 15:46:17 12.3 C 20 %
1104 09-02-2020 15:56:17 12.1 C 20 %
1105 09-02-2020 16:06:17 12 C 20 %
1106 09-02-2020 16:16:17 12 C 20 %
1107 09-02-2020 16:26:17 12 C 20 %
1108 09-02-2020 16:36:17 12.2 C 20 %
1109 09-02-2020 16:46:18 12.2 C 20 %
1110 09-02-2020 16:56:18 12.6 C 20 %
1111 09-02-2020 17:06:18 12.4 C 20 %
1112 09-02-2020 17:16:17 12.4 C 20 %
1113 09-02-2020 17:26:17 12.7 C 20 %
1114 09-02-2020 17:36:17 12.8 C 20 %
1115 09-02-2020 17:46:17 12.8 C 20 %
1116 09-02-2020 17:56:17 12.7 C 20 %
1117 09-02-2020 18:06:17 12.7 C 20 %
1118 09-02-2020 18:16:17 12.7 C 20 %
1119 09-02-2020 18:26:17 12.4 C 20 %
1120 09-02-2020 18:36:17 12.3 C 22 %
1121 09-02-2020 18:46:17 12.3 C 23 %
1122 09-02-2020 18:56:17 12.3 C 23 %
1123 09-02-2020 19:06:18 12.2 C 24 %
1124 09-02-2020 19:16:17 12.2 C 24 %
1125 09-02-2020 19:26:17 12.2 C 24 %
Sensor: Nr:Datum:Temp:Feuchte:
Aussen-T/F 1126 09-02-2020 19:36:18 12.2 C 24 %
1127 09-02-2020 19:46:18 12.2 C 24 %
1128 09-02-2020 19:56:18 12.5 C 24 %
1129 09-02-2020 20:06:17 12.5 C 24 %
1130 09-02-2020 20:16:17 12.5 C 24 %
1131 09-02-2020 20:26:17 12.7 C 24 %
1132 09-02-2020 20:36:18 12.7 C 24 %
1133 09-02-2020 20:46:17 12.6 C 25 %
1134 09-02-2020 20:56:17 12.5 C 25 %
1135 09-02-2020 21:06:17 12.1 C 26 %
1136 09-02-2020 21:16:17 11.2 C 30 %
1137 09-02-2020 21:26:17 11.5 C 30 %
1138 09-02-2020 21:36:17 11.6 C 30 %
1139 09-02-2020 21:46:18 11.6 C 30 %
1140 09-02-2020 21:56:18 11.2 C 31 %
1141 09-02-2020 22:06:18 10.8 C 33 %
1142 09-02-2020 22:16:17 10.8 C 33 %
1143 09-02-2020 22:26:17 10.9 C 33 %
1144 09-02-2020 22:36:17 11.7 C 31 %
1145 09-02-2020 22:46:18 11.3 C 32 %
1146 09-02-2020 22:56:18 10.7 C 35 %
1147 09-02-2020 23:06:17 10.9 C 35 %
1148 09-02-2020 23:16:17 10.7 C 35 %
1149 09-02-2020 23:26:17 10.5 C 35 %
1150 09-02-2020 23:36:18 10.7 C 35 %
Sensor: Nr:Datum:Temp:Feuchte:
Aussen-T/F 1151 09-02-2020 23:46:18 10.6 C 35 %
1152 09-02-2020 23:56:18 11 C 34 %
1153 10-02-2020 00:06:18 10.9 C 35 %
1154 10-02-2020 00:16:18 11.1 C 34 %
1155 10-02-2020 00:26:18 10.9 C 35 %
1156 10-02-2020 00:36:17 11.3 C 35 %
1157 10-02-2020 00:46:17 11.1 C 35 %
1158 10-02-2020 00:56:17 11 C 35 %
1159 10-02-2020 01:06:17 10.8 C 37 %
1160 10-02-2020 01:16:17 10.8 C 36 %
1161 10-02-2020 01:26:17 10.8 C 37 %
1162 10-02-2020 01:36:18 10.7 C 39 %
1163 10-02-2020 01:46:18 10.7 C 40 %
1164 10-02-2020 01:56:18 9.5 C 38 %
1165 10-02-2020 02:06:18 8.8 C 40 %
1166 10-02-2020 02:16:17 8.7 C 39 %
1167 10-02-2020 02:26:17 8.6 C 36 %
1168 10-02-2020 02:36:17 8.5 C 36 %
1169 10-02-2020 02:46:17 8.3 C 36 %
1170 10-02-2020 02:56:17 8 C 36 %
1171 10-02-2020 03:06:17 8.4 C 35 %
1172 10-02-2020 03:16:17 8.3 C 35 %
1173 10-02-2020 03:26:17 8.7 C 35 %
1174 10-02-2020 03:36:18 9.2 C 33 %
1175 10-02-2020 03:46:17 9.6 C 32 %
Sensor: Nr:Datum:Temp:Feuchte:
Aussen-T/F 1176 10-02-2020 03:56:17 9.6 C 32 %
1177 10-02-2020 04:06:18 9.6 C 32 %
1178 10-02-2020 04:16:17 9.7 C 32 %
1179 10-02-2020 04:26:17 9.6 C 31 %
1180 10-02-2020 04:36:17 9.8 C 31 %
1181 10-02-2020 04:46:17 10 C 30 %
1182 10-02-2020 04:56:17 9.9 C 31 %
1183 10-02-2020 05:06:17 10.1 C 30 %
1184 10-02-2020 05:16:18 10 C 30 %
1185 10-02-2020 05:26:18 10 C 30 %
1186 10-02-2020 05:36:18 9.7 C 30 %
1187 10-02-2020 05:46:18 9.6 C 30 %
1188 10-02-2020 05:56:18 9.5 C 31 %
1189 10-02-2020 06:06:18 9 C 31 %
1190 10-02-2020 06:16:18 8.5 C 33 %
1191 10-02-2020 06:26:18 8.2 C 35 %
1192 10-02-2020 06:36:17 8 C 34 %
1193 10-02-2020 06:46:18 9.1 C 30 %
1194 10-02-2020 06:56:18 9 C 29 %
1195 10-02-2020 07:06:17 8.9 C 30 %
1196 10-02-2020 07:16:17 8.7 C 30 %
1197 10-02-2020 07:26:17 9 C 28 %
1198 10-02-2020 07:36:17 8.4 C 30 %
1199 10-02-2020 07:46:18 8.5 C 29 %
1200 10-02-2020 07:56:18 8.5 C 29 %
Sensor: Nr:Datum:Temp:Feuchte:
Aussen-T/F 1201 10-02-2020 08:06:17 8.9 C 28 %
1202 10-02-2020 08:16:17 8.1 C 29 %
1203 10-02-2020 08:26:17 7.9 C 30 %
1204 10-02-2020 08:36:17 7.1 C 32 %
1205 10-02-2020 08:46:17 7.3 C 31 %
1206 10-02-2020 08:56:17 7.3 C 31 %
1207 10-02-2020 09:06:17 7.7 C 27 %
1208 10-02-2020 09:16:17 7.3 C 28 %
1209 10-02-2020 09:26:17 7.6 C 26 %
1210 10-02-2020 09:36:18 7.5 C 27 %
1211 10-02-2020 09:46:18 7.3 C 27 %
1212 10-02-2020 09:56:18 7.3 C 27 %
1213 10-02-2020 10:06:18 7.6 C 26 %
1214 10-02-2020 10:16:17 8 C 26 %
1215 10-02-2020 10:26:17 8 C 25 %
1216 10-02-2020 10:36:17 8.2 C 25 %
1217 10-02-2020 10:46:17 6.8 C 28 %
1218 10-02-2020 10:56:18 8.2 C 26 %
1219 10-02-2020 11:06:18 8.8 C 21 %
1220 10-02-2020 11:16:17 9.2 C 20 %
1221 10-02-2020 11:26:17 9.3 C 20 %
1222 10-02-2020 11:36:17 9 C 20 %
1223 10-02-2020 11:46:17 9.1 C 20 %
1224 10-02-2020 11:56:17 9.1 C 20 %
1225 10-02-2020 12:06:17 8.1 C 20 %
Sensor: Nr:Datum:Temp:Feuchte:
Aussen-T/F 1226 10-02-2020 12:16:18 5.1 C 35 %
1227 10-02-2020 12:26:18 4.9 C 36 %
1228 10-02-2020 12:36:18 6.8 C 33 %
1229 10-02-2020 12:46:17 7.3 C 31 %
1230 10-02-2020 12:56:17 8.8 C 26 %
1231 10-02-2020 13:06:17 9.4 C 20 %
1232 10-02-2020 13:16:17 9.3 C 20 %
1233 10-02-2020 13:26:17 8.8 C 20 %
1234 10-02-2020 13:36:18 9.5 C 20 %
1235 10-02-2020 13:46:18 9.2 C 20 %
1236 10-02-2020 13:56:18 9 C 20 %
1237 10-02-2020 14:06:17 8.6 C 20 %
1238 10-02-2020 14:16:18 7.3 C 27 %
1239 10-02-2020 14:26:18 7.6 C 27 %
1240 10-02-2020 14:36:18 7.7 C 27 %
1241 10-02-2020 14:46:17 8 C 26 %
1242 10-02-2020 14:56:17 8.2 C 26 %
1243 10-02-2020 15:06:17 8.1 C 26 %
1244 10-02-2020 15:16:18 8.6 C 25 %
1245 10-02-2020 15:26:18 8.7 C 23 %
1246 10-02-2020 15:36:18 7.6 C 25 %
1247 10-02-2020 15:46:18 7.7 C 25 %
1248 10-02-2020 15:56:18 7.6 C 26 %
1249 10-02-2020 16:06:17 7.7 C 25 %
1250 10-02-2020 16:16:17 7.8 C 25 %
Sensor: Nr:Datum:Temp:Feuchte:
Aussen-T/F 1251 10-02-2020 16:26:17 7.8 C 26 %
1252 10-02-2020 16:36:17 7.4 C 27 %
1253 10-02-2020 16:46:17 7.3 C 27 %
1254 10-02-2020 16:56:17 6.9 C 30 %
1255 10-02-2020 17:06:18 6.7 C 30 %
1256 10-02-2020 17:16:17 6.8 C 30 %
1257 10-02-2020 17:26:17 6.6 C 30 %
1258 10-02-2020 17:36:17 6.5 C 30 %
1259 10-02-2020 17:46:17 6 C 32 %
1260 10-02-2020 17:56:17 5.8 C 36 %
1261 10-02-2020 18:06:17 5.5 C 37 %
1262 10-02-2020 18:16:18 4.9 C 39 %
1263 10-02-2020 18:26:18 4.9 C 40 %
1264 10-02-2020 18:36:18 5 C 40 %
1265 10-02-2020 18:46:18 5.5 C 39 %
1266 10-02-2020 18:56:18 5.4 C 38 %
1267 10-02-2020 19:06:18 5.5 C 38 %
1268 10-02-2020 19:16:18 5.4 C 39 %
1269 10-02-2020 19:26:18 5.4 C 38 %
1270 10-02-2020 19:36:17 5.1 C 40 %
1271 10-02-2020 19:46:18 5 C 41 %
1272 10-02-2020 19:56:18 4.7 C 42 %
1273 10-02-2020 20:06:17 4.6 C 44 %
1274 10-02-2020 20:16:17 4.5 C 45 %
1275 10-02-2020 20:26:17 4.5 C 45 %
Sensor: Nr:Datum:Temp:Feuchte:
Aussen-T/F 1276 10-02-2020 20:36:18 4.3 C 45 %
1277 10-02-2020 20:46:18 4.3 C 43 %
1278 10-02-2020 20:56:18 4.4 C 43 %
1279 10-02-2020 21:06:18 4.1 C 43 %
1280 10-02-2020 21:16:17 3.9 C 45 %
1281 10-02-2020 21:26:17 4 C 45 %
1282 10-02-2020 21:36:17 5.3 C 43 %
1283 10-02-2020 21:46:18 6.3 C 36 %
1284 10-02-2020 21:56:18 6.9 C 35 %
1285 10-02-2020 22:06:18 7 C 33 %
1286 10-02-2020 22:16:17 7 C 33 %
1287 10-02-2020 22:26:17 7 C 33 %
1288 10-02-2020 22:36:17 7.1 C 32 %
1289 10-02-2020 22:46:17 7.3 C 32 %
1290 10-02-2020 22:56:17 7.3 C 31 %
1291 10-02-2020 23:06:17 7.6 C 30 %
1292 10-02-2020 23:16:17 7.7 C 29 %
1293 10-02-2020 23:26:17 7.6 C 28 %
1294 10-02-2020 23:36:18 7.4 C 28 %
1295 10-02-2020 23:46:18 7.3 C 28 %
1296 10-02-2020 23:56:18 7.3 C 27 %
1297 11-02-2020 00:06:17 7.5 C 26 %
1298 11-02-2020 00:16:17 7.4 C 26 %
1299 11-02-2020 00:26:17 7.7 C 25 %
1300 11-02-2020 00:36:17 4.6 C 35 %
Sensor: Nr:Datum:Temp:Feuchte:
Aussen-T/F 1301 11-02-2020 00:46:17 4.4 C 36 %
1302 11-02-2020 00:56:17 4.4 C 35 %
1303 11-02-2020 01:06:17 4.5 C 34 %
1304 11-02-2020 01:16:17 4.6 C 33 %
1305 11-02-2020 01:26:17 4.7 C 32 %
1306 11-02-2020 01:36:17 4.7 C 31 %
1307 11-02-2020 01:46:17 4.5 C 31 %
1308 11-02-2020 01:56:17 4.7 C 30 %
1309 11-02-2020 02:06:17 5.1 C 27 %
1310 11-02-2020 02:16:17 5.3 C 26 %
1311 11-02-2020 02:26:17 5.3 C 26 %
1312 11-02-2020 02:36:17 4.8 C 27 %
1313 11-02-2020 02:46:17 4.3 C 30 %
1314 11-02-2020 02:56:17 4.1 C 30 %
1315 11-02-2020 03:06:17 4.8 C 29 %
1316 11-02-2020 03:16:17 5.3 C 26 %
1317 11-02-2020 03:26:17 5.4 C 25 %
1318 11-02-2020 03:36:17 5.3 C 25 %
1319 11-02-2020 03:46:18 5.6 C 23 %
1320 11-02-2020 03:56:18 5.5 C 21 %
1321 11-02-2020 04:06:18 5.4 C 20 %
1322 11-02-2020 04:16:17 5.4 C 20 %
1323 11-02-2020 04:26:17 5.6 C 20 %
1324 11-02-2020 04:36:17 5.3 C 20 %
1325 11-02-2020 04:46:17 5.6 C 20 %
Sensor: Nr:Datum:Temp:Feuchte:
Aussen-T/F 1326 11-02-2020 04:56:17 5.6 C 20 %
1327 11-02-2020 05:06:18 5.5 C 20 %
1328 11-02-2020 05:16:18 5.8 C 20 %
1329 11-02-2020 05:26:18 3.9 C 33 %
1330 11-02-2020 05:36:18 4.2 C 32 %
1331 11-02-2020 05:46:17 4.1 C 32 %
1332 11-02-2020 05:56:18 3.7 C 34 %
1333 11-02-2020 06:06:18 3.8 C 33 %
1334 11-02-2020 06:16:17 4.8 C 30 %
1335 11-02-2020 06:26:17 5 C 25 %
1336 11-02-2020 06:36:18 5.1 C 23 %
1337 11-02-2020 06:46:17 5 C 23 %
1338 11-02-2020 06:56:18 4 C 29 %
1339 11-02-2020 07:06:18 3.7 C 32 %
1340 11-02-2020 07:16:18 3.2 C 34 %
1341 11-02-2020 07:26:18 4.1 C 31 %
1342 11-02-2020 07:36:18 3.8 C 31 %
1343 11-02-2020 07:46:17 4.4 C 30 %
1344 11-02-2020 07:56:17 4.5 C 29 %
1345 11-02-2020 08:06:18 4.5 C 29 %
1346 11-02-2020 08:16:17 4.6 C 28 %
1347 11-02-2020 08:26:17 4.9 C 27 %
1348 11-02-2020 08:36:17 4 C 31 %
1349 11-02-2020 08:46:17 3.9 C 33 %
1350 11-02-2020 08:56:17 4.1 C 32 %
Sensor: Nr:Datum:Temp:Feuchte:
Aussen-T/F 1351 11-02-2020 09:06:17 4.3 C 31 %
1352 11-02-2020 09:16:17 4.6 C 31 %
1353 11-02-2020 09:26:17 4.6 C 31 %
1354 11-02-2020 09:36:18 4.5 C 31 %
1355 11-02-2020 09:46:18 4.6 C 31 %
1356 11-02-2020 09:56:18 5.1 C 29 %
1357 11-02-2020 10:06:18 5.3 C 28 %
1358 11-02-2020 10:16:17 5.9 C 26 %
1359 11-02-2020 10:26:17 5.9 C 25 %
1360 11-02-2020 10:36:17 5.9 C 25 %
1361 11-02-2020 10:46:17 5.4 C 25 %
1362 11-02-2020 10:56:17 5.8 C 25 %
1363 11-02-2020 11:06:17 6.2 C 26 %
1364 11-02-2020 11:16:17 6.6 C 20 %
1365 11-02-2020 11:26:17 6.9 C 20 %
1366 11-02-2020 11:36:18 6.7 C 20 %
1367 11-02-2020 11:46:18 6.5 C 20 %
1368 11-02-2020 11:56:18 6.7 C 20 %
1369 11-02-2020 12:06:18 6.8 C 20 %
1370 11-02-2020 12:16:17 6.7 C 20 %
1371 11-02-2020 12:26:17 6.8 C 20 %
1372 11-02-2020 12:36:17 7 C 20 %
1373 11-02-2020 12:46:17 7.3 C 20 %
1374 11-02-2020 12:56:17 6.4 C 20 %
1375 11-02-2020 13:06:18 5.7 C 20 %
Sensor: Nr:Datum:Temp:Feuchte:
Aussen-T/F 1376 11-02-2020 13:16:18 6.4 C 20 %
1377 11-02-2020 13:26:18 5.9 C 20 %
1378 11-02-2020 13:36:18 7.8 C 20 %
1379 11-02-2020 13:46:17 7.4 C 20 %
1380 11-02-2020 13:56:17 7.1 C 20 %
1381 11-02-2020 14:06:17 6.9 C 20 %
1382 11-02-2020 14:16:17 4.6 C 20 %
1383 11-02-2020 14:26:17 3.8 C 35 %
1384 11-02-2020 14:36:17 5 C 32 %
1385 11-02-2020 14:46:17 5 C 31 %
1386 11-02-2020 14:56:17 5.6 C 25 %
1387 11-02-2020 15:06:17 5.7 C 25 %
1388 11-02-2020 15:16:17 5.3 C 25 %
1389 11-02-2020 15:26:17 6.6 C 25 %
1390 11-02-2020 15:36:17 6.8 C 25 %
1391 11-02-2020 15:46:17 6.9 C 25 %
1392 11-02-2020 15:56:17 7 C 25 %
1393 11-02-2020 16:06:17 7.4 C 20 %
1394 11-02-2020 16:16:18 7.1 C 20 %
1395 11-02-2020 16:26:18 7.5 C 20 %
1396 11-02-2020 16:36:17 7.2 C 20 %
1397 11-02-2020 16:46:17 6.5 C 20 %
1398 11-02-2020 16:56:17 6.5 C 20 %
1399 11-02-2020 17:06:18 6.1 C 20 %
1400 11-02-2020 17:16:17 5.9 C 21 %
Sensor: Nr:Datum:Temp:Feuchte:
Aussen-T/F 1401 11-02-2020 17:26:17 5.6 C 21 %
1402 11-02-2020 17:36:17 5.8 C 21 %
1403 11-02-2020 17:46:17 5.8 C 20 %
1404 11-02-2020 17:56:17 5.9 C 20 %
1405 11-02-2020 18:06:17 5.8 C 20 %
1406 11-02-2020 18:16:17 5.7 C 20 %
1407 11-02-2020 18:26:17 5.2 C 20 %
1408 11-02-2020 18:36:17 5.3 C 20 %
1409 11-02-2020 18:46:17 5.4 C 21 %
1410 11-02-2020 18:56:18 5.2 C 23 %
1411 11-02-2020 19:06:18 5.1 C 23 %
1412 11-02-2020 19:16:18 4.9 C 26 %
1413 11-02-2020 19:26:18 4.8 C 26 %
1414 11-02-2020 19:36:17 4.6 C 27 %
1415 11-02-2020 19:46:18 4.6 C 27 %
1416 11-02-2020 19:56:18 4.8 C 26 %
1417 11-02-2020 20:06:17 4.8 C 26 %
1418 11-02-2020 20:16:17 5.5 C 20 %
1419 11-02-2020 20:26:17 5.4 C 20 %
1420 11-02-2020 20:36:17 5.3 C 20 %
1421 11-02-2020 20:46:17 4.8 C 20 %
1422 11-02-2020 20:56:17 4.7 C 20 %
1423 11-02-2020 21:06:18 4.8 C 20 %
1424 11-02-2020 21:16:17 4.4 C 20 %
1425 11-02-2020 21:26:17 4.6 C 20 %
Sensor: Nr:Datum:Temp:Feuchte:
Aussen-T/F 1426 11-02-2020 21:36:17 4.7 C 20 %
1427 11-02-2020 21:46:18 4.4 C 20 %
1428 11-02-2020 21:56:18 4.4 C 20 %
1429 11-02-2020 22:06:17 4.5 C 20 %
1430 11-02-2020 22:16:18 4.3 C 20 %
1431 11-02-2020 22:26:18 4.2 C 20 %
1432 11-02-2020 22:36:17 4.3 C 21 %
1433 11-02-2020 22:46:17 4.3 C 21 %
1434 11-02-2020 22:56:17 3.8 C 25 %
1435 11-02-2020 23:06:17 4 C 23 %
1436 11-02-2020 23:16:18 3.9 C 25 %
1437 11-02-2020 23:26:18 4.3 C 21 %
1438 11-02-2020 23:36:17 4.6 C 20 %
1439 11-02-2020 23:46:18 4.6 C 20 %
1440 11-02-2020 23:56:18 4.7 C 20 %
1441 12-02-2020 00:06:18 4.9 C 20 %
1442 12-02-2020 00:16:17 4.8 C 20 %
1443 12-02-2020 00:26:17 4.6 C 21 %
1444 12-02-2020 00:36:18 4.7 C 21 %
1445 12-02-2020 00:46:17 4.9 C 21 %
1446 12-02-2020 00:56:18 4.6 C 25 %
1447 12-02-2020 01:06:18 4.6 C 25 %
1448 12-02-2020 01:16:18 4.3 C 25 %
1449 12-02-2020 01:26:18 4.5 C 26 %
1450 12-02-2020 01:36:17 4.6 C 26 %
Sensor: Nr:Datum:Temp:Feuchte:
Aussen-T/F 1451 12-02-2020 01:46:18 4.7 C 25 %
1452 12-02-2020 01:56:18 4.7 C 26 %
1453 12-02-2020 02:06:18 4.5 C 25 %
1454 12-02-2020 02:16:17 4.5 C 25 %
1455 12-02-2020 02:26:17 4.3 C 26 %
1456 12-02-2020 02:36:18 4.2 C 25 %
1457 12-02-2020 02:46:18 4.2 C 26 %
1458 12-02-2020 02:56:18 4.2 C 26 %
1459 12-02-2020 03:06:18 4.1 C 26 %
1460 12-02-2020 03:16:17 4.2 C 26 %
1461 12-02-2020 03:26:17 4.3 C 26 %
1462 12-02-2020 03:36:17 4.2 C 26 %
1463 12-02-2020 03:46:17 4.1 C 26 %
1464 12-02-2020 03:56:17 3.8 C 28 %
1465 12-02-2020 04:06:17 4.2 C 27 %
1466 12-02-2020 04:16:17 4.3 C 26 %
1467 12-02-2020 04:26:17 4.4 C 26 %
1468 12-02-2020 04:36:18 4.4 C 26 %
1469 12-02-2020 04:46:17 4.5 C 26 %
1470 12-02-2020 04:56:18 4.4 C 27 %
1471 12-02-2020 05:06:18 4.5 C 27 %
1472 12-02-2020 05:16:18 4.4 C 27 %
1473 12-02-2020 05:26:18 4.5 C 27 %
1474 12-02-2020 05:36:18 4.5 C 27 %
1475 12-02-2020 05:46:17 4.6 C 27 %
Sensor: Nr:Datum:Temp:Feuchte:
Aussen-T/F 1476 12-02-2020 05:56:18 4.5 C 27 %
1477 12-02-2020 06:06:17 4.5 C 27 %
1478 12-02-2020 06:16:18 4.5 C 28 %
1479 12-02-2020 06:26:18 4.3 C 29 %
1480 12-02-2020 06:36:17 4.3 C 30 %
1481 12-02-2020 06:46:18 4.3 C 29 %
1482 12-02-2020 06:56:18 4.3 C 29 %
1483 12-02-2020 07:06:17 4.3 C 30 %
1484 12-02-2020 07:16:17 3.2 C 35 %
1485 12-02-2020 07:26:17 2.8 C 38 %
1486 12-02-2020 07:36:17 2.8 C 38 %
1487 12-02-2020 07:46:18 2.9 C 38 %
1488 12-02-2020 07:56:18 3 C 37 %
1489 12-02-2020 08:06:17 3.1 C 37 %
1490 12-02-2020 08:16:17 3.2 C 36 %
1491 12-02-2020 08:26:17 3.3 C 36 %
1492 12-02-2020 08:36:17 3.2 C 36 %
1493 12-02-2020 08:46:17 3.5 C 35 %
1494 12-02-2020 08:56:17 3.6 C 35 %
1495 12-02-2020 09:06:17 3.5 C 35 %
1496 12-02-2020 09:16:17 3.7 C 35 %
1497 12-02-2020 09:26:18 3.9 C 34 %
1498 12-02-2020 09:36:18 3.7 C 34 %
1499 12-02-2020 09:46:17 4.2 C 32 %
1500 12-02-2020 09:56:17 4.7 C 32 %
Sensor: Nr:Datum:Temp:Feuchte:
Aussen-T/F 1501 12-02-2020 10:06:17 4.3 C 32 %
1502 12-02-2020 10:16:18 3.6 C 35 %
1503 12-02-2020 10:26:18 3.6 C 37 %
1504 12-02-2020 10:36:17 3.9 C 38 %
1505 12-02-2020 10:46:17 4.4 C 35 %
1506 12-02-2020 10:56:17 5.4 C 32 %
1507 12-02-2020 11:06:17 5.3 C 32 %
1508 12-02-2020 11:16:17 5.4 C 31 %
1509 12-02-2020 11:26:17 5.7 C 31 %
1510 12-02-2020 11:36:17 5.3 C 31 %
1511 12-02-2020 11:46:17 4.7 C 32 %
1512 12-02-2020 11:56:17 4.5 C 32 %
1513 12-02-2020 12:06:18 4.7 C 32 %
1514 12-02-2020 12:16:18 5.4 C 31 %
1515 12-02-2020 12:26:18 5.1 C 31 %
1516 12-02-2020 12:36:17 4.3 C 34 %
1517 12-02-2020 12:46:17 4.3 C 34 %
1518 12-02-2020 12:56:17 5.2 C 32 %
1519 12-02-2020 13:06:18 5.8 C 31 %
1520 12-02-2020 13:16:17 6.3 C 30 %
1521 12-02-2020 13:26:17 6.8 C 27 %
1522 12-02-2020 13:36:17 6.7 C 27 %
1523 12-02-2020 13:46:17 6.4 C 26 %
1524 12-02-2020 13:56:17 6.3 C 27 %
1525 12-02-2020 14:06:17 6.3 C 27 %
Sensor: Nr:Datum:Temp:Feuchte:
Aussen-T/F 1526 12-02-2020 14:16:18 6.7 C 26 %
1527 12-02-2020 14:26:18 7 C 26 %
1528 12-02-2020 14:36:17 7.3 C 20 %
1529 12-02-2020 14:46:17 6.9 C 21 %
1530 12-02-2020 14:56:17 7.2 C 21 %
1531 12-02-2020 15:06:17 7 C 21 %
1532 12-02-2020 15:16:17 7.5 C 20 %
1533 12-02-2020 15:26:17 7.6 C 20 %
1534 12-02-2020 15:36:18 7.5 C 20 %
1535 12-02-2020 15:46:18 6.4 C 23 %
1536 12-02-2020 15:56:18 6.9 C 25 %
1537 12-02-2020 16:06:18 6.3 C 25 %
1538 12-02-2020 16:16:18 6.3 C 25 %
1539 12-02-2020 16:26:18 7 C 20 %
1540 12-02-2020 16:36:17 7.2 C 20 %
1541 12-02-2020 16:46:17 7 C 23 %
1542 12-02-2020 16:56:18 6.6 C 23 %
1543 12-02-2020 17:06:18 5.8 C 25 %
1544 12-02-2020 17:16:17 5.4 C 25 %
1545 12-02-2020 17:26:17 5.4 C 25 %
1546 12-02-2020 17:36:17 5.1 C 26 %
1547 12-02-2020 17:46:17 5 C 26 %
1548 12-02-2020 17:56:17 4.5 C 30 %
1549 12-02-2020 18:06:17 4.2 C 31 %
1550 12-02-2020 18:16:17 4.2 C 31 %
Sensor: Nr:Datum:Temp:Feuchte:
Aussen-T/F 1551 12-02-2020 18:26:17 4 C 32 %
1552 12-02-2020 18:36:17 4.1 C 31 %
1553 12-02-2020 18:46:17 3.7 C 33 %
1554 12-02-2020 18:56:17 3.9 C 33 %
1555 12-02-2020 19:06:18 4.1 C 32 %
1556 12-02-2020 19:17:17 3.9 C 33 %
1557 12-02-2020 19:27:17 3.7 C 33 %
1558 12-02-2020 19:36:17 3.6 C 33 %
1559 12-02-2020 19:46:17 3.3 C 35 %
1560 12-02-2020 19:56:17 3 C 35 %
1561 12-02-2020 20:06:17 3.1 C 36 %
1562 12-02-2020 20:16:17 1.8 C 39 %
1563 12-02-2020 20:26:17 1.7 C 41 %
1564 12-02-2020 20:36:18 1.7 C 41 %
1565 12-02-2020 20:46:17 2.5 C 39 %
1566 12-02-2020 20:56:18 2.3 C 38 %
1567 12-02-2020 21:06:18 2 C 40 %
1568 12-02-2020 21:17:17 2.1 C 40 %
1569 12-02-2020 21:27:17 2.1 C 39 %
1570 12-02-2020 21:36:17 2.2 C 39 %
1571 12-02-2020 21:46:17 2.2 C 39 %
1572 12-02-2020 21:56:17 2.7 C 39 %
1573 12-02-2020 22:06:17 2.6 C 39 %
1574 12-02-2020 22:16:17 2.1 C 40 %
1575 12-02-2020 22:26:17 1.8 C 42 %
Sensor: Nr:Datum:Temp:Feuchte:
Aussen-T/F 1576 12-02-2020 22:36:17 2 C 42 %
1577 12-02-2020 22:46:17 1.7 C 42 %
1578 12-02-2020 22:56:17 1.4 C 42 %
1579 12-02-2020 23:06:18 2.2 C 43 %
1580 12-02-2020 23:16:18 1.3 C 42 %
1581 12-02-2020 23:26:18 1.7 C 44 %
1582 12-02-2020 23:37:17 1.4 C 44 %
1583 12-02-2020 23:47:17 1.7 C 43 %
1584 12-02-2020 23:57:17 2.4 C 41 %
1585 13-02-2020 00:07:17 1.8 C 41 %
1586 13-02-2020 00:17:17 1.9 C 42 %
1587 13-02-2020 00:27:17 1.7 C 42 %
1588 13-02-2020 00:36:18 1.5 C 43 %
1589 13-02-2020 00:46:17 1.6 C 44 %
1590 13-02-2020 00:56:18 2 C 41 %
1591 13-02-2020 01:06:18 1.7 C 42 %
1592 13-02-2020 01:17:17 1.6 C 43 %
1593 13-02-2020 01:27:17 1.7 C 43 %
1594 13-02-2020 01:37:17 1.6 C 43 %
1595 13-02-2020 01:47:17 1.6 C 43 %
1596 13-02-2020 01:57:17 1.3 C 43 %
1597 13-02-2020 02:07:18 1.3 C 43 %
1598 13-02-2020 02:17:18 0.6 C 45 %
1599 13-02-2020 02:27:18 0.2 C 45 %
1600 13-02-2020 02:37:17 0.2 C 47 %
Sensor: Nr:Datum:Temp:Feuchte:
Aussen-T/F 1601 13-02-2020 02:47:17 0.1 C 47 %
1602 13-02-2020 02:57:17 0.1 C 47 %
1603 13-02-2020 03:07:17 0.4 C 48 %
1604 13-02-2020 03:17:17 0.4 C 47 %
1605 13-02-2020 03:27:17 0.4 C 46 %
1606 13-02-2020 03:37:17 -0.4 C 45 %
1607 13-02-2020 03:47:17 0.1 C 47 %
1608 13-02-2020 03:57:17 -0.1 C 47 %
1609 13-02-2020 04:07:17 -0.3 C 47 %
1610 13-02-2020 04:17:17 -0.3 C 47 %
1611 13-02-2020 04:27:17 -0.7 C 47 %
1612 13-02-2020 04:37:18 -0.7 C 47 %
1613 13-02-2020 04:47:17 -0.7 C 47 %
1614 13-02-2020 04:57:17 -0.7 C 47 %
1615 13-02-2020 05:07:18 -1 C 47 %
1616 13-02-2020 05:17:17 -1.3 C 46 %
1617 13-02-2020 05:27:17 -1.3 C 47 %
1618 13-02-2020 05:37:17 -1.1 C 47 %
1619 13-02-2020 05:47:17 -1 C 47 %
1620 13-02-2020 05:57:17 -0.7 C 47 %
1621 13-02-2020 06:07:17 -0.2 C 47 %
1622 13-02-2020 06:17:17 -0.3 C 47 %
1623 13-02-2020 06:27:17 -0.3 C 47 %
1624 13-02-2020 06:37:18 -0.4 C 47 %
1625 13-02-2020 06:47:17 -0.4 C 47 %
Sensor: Nr:Datum:Temp:Feuchte:
Aussen-T/F 1626 13-02-2020 06:57:18 -0.2 C 47 %
1627 13-02-2020 07:07:18 -0.2 C 47 %
1628 13-02-2020 07:17:18 -0.2 C 47 %
1629 13-02-2020 07:27:18 -0.2 C 47 %
1630 13-02-2020 07:37:17 0.1 C 47 %
1631 13-02-2020 07:47:18 0.6 C 47 %
1632 13-02-2020 07:57:18 0.8 C 47 %
1633 13-02-2020 08:07:17 0.9 C 47 %
1634 13-02-2020 08:17:17 1.1 C 46 %
1635 13-02-2020 08:27:17 1.4 C 46 %
1636 13-02-2020 08:37:17 1.6 C 46 %
1637 13-02-2020 08:47:17 2 C 45 %
1638 13-02-2020 08:57:17 2.2 C 43 %
1639 13-02-2020 09:07:18 2.3 C 43 %
1640 13-02-2020 09:17:17 2.5 C 42 %
1641 13-02-2020 09:27:17 2.9 C 41 %
1642 13-02-2020 09:37:17 3 C 40 %
1643 13-02-2020 09:47:18 3 C 40 %
1644 13-02-2020 09:57:18 3 C 40 %
1645 13-02-2020 10:07:17 3 C 40 %
1646 13-02-2020 10:17:17 3.9 C 37 %
1647 13-02-2020 10:27:17 4.2 C 35 %
1648 13-02-2020 10:37:17 4.4 C 35 %
1649 13-02-2020 10:47:17 5.1 C 33 %
1650 13-02-2020 10:57:17 5.1 C 32 %
Sensor: Nr:Datum:Temp:Feuchte:
Aussen-T/F 1651 13-02-2020 11:07:17 5.4 C 31 %
1652 13-02-2020 11:17:17 5.9 C 32 %
1653 13-02-2020 11:27:17 6.4 C 30 %
1654 13-02-2020 11:37:17 6.4 C 29 %
1655 13-02-2020 11:47:18 6.1 C 29 %
1656 13-02-2020 11:57:18 6 C 29 %
1657 13-02-2020 12:07:17 6 C 30 %
1658 13-02-2020 12:17:17 5.4 C 31 %
1659 13-02-2020 12:27:17 5 C 32 %
1660 13-02-2020 12:37:18 4.9 C 35 %
1661 13-02-2020 12:47:17 4.6 C 35 %
1662 13-02-2020 12:57:17 4.6 C 36 %
1663 13-02-2020 13:07:18 4.5 C 37 %
1664 13-02-2020 13:17:17 4.3 C 39 %
1665 13-02-2020 13:27:17 4.4 C 41 %
1666 13-02-2020 13:37:17 4.4 C 40 %
1667 13-02-2020 13:47:17 4.3 C 40 %
1668 13-02-2020 13:57:17 4.6 C 39 %
1669 13-02-2020 14:07:17 4.4 C 39 %
1670 13-02-2020 14:17:17 4.3 C 40 %
1671 13-02-2020 14:27:17 4.9 C 41 %
1672 13-02-2020 14:37:17 4.8 C 40 %
1673 13-02-2020 14:47:17 4.8 C 40 %
1674 13-02-2020 14:57:17 4.8 C 41 %
1675 13-02-2020 15:07:17 4.8 C 42 %
Sensor: Nr:Datum:Temp:Feuchte:
Aussen-T/F 1676 13-02-2020 15:17:17 5.1 C 42 %
1677 13-02-2020 15:27:17 5.3 C 41 %
1678 13-02-2020 15:37:18 5.5 C 41 %
1679 13-02-2020 15:47:18 5.4 C 41 %
1680 13-02-2020 15:57:18 6.9 C 38 %
1681 13-02-2020 16:07:17 8.4 C 35 %
1682 13-02-2020 16:17:17 10.2 C 31 %
1683 13-02-2020 16:27:17 8.7 C 32 %
1684 13-02-2020 16:37:17 6.9 C 36 %
1685 13-02-2020 16:47:18 5.9 C 41 %
1686 13-02-2020 16:57:18 5.8 C 43 %
1687 13-02-2020 17:07:17 5.8 C 43 %
1688 13-02-2020 17:17:17 5.7 C 43 %
1689 13-02-2020 17:27:17 5.6 C 43 %
1690 13-02-2020 17:37:17 5.2 C 44 %
1691 13-02-2020 17:47:17 5 C 44 %
1692 13-02-2020 17:57:18 4.6 C 45 %
1693 13-02-2020 18:07:18 4.5 C 45 %
1694 13-02-2020 18:17:17 4.5 C 45 %
1695 13-02-2020 18:27:17 4.7 C 45 %
1696 13-02-2020 18:37:17 4.6 C 45 %
1697 13-02-2020 18:47:17 4.7 C 45 %
1698 13-02-2020 18:57:17 4.4 C 44 %
1699 13-02-2020 19:07:17 4.6 C 44 %
1700 13-02-2020 19:17:17 4.3 C 43 %
Sensor: Nr:Datum:Temp:Feuchte:
Aussen-T/F 1701 13-02-2020 19:27:17 4.4 C 43 %
1702 13-02-2020 19:37:17 4.3 C 44 %
1703 13-02-2020 19:47:17 4.3 C 44 %
1704 13-02-2020 19:57:17 4.4 C 44 %
1705 13-02-2020 20:07:18 4.6 C 45 %
1706 13-02-2020 20:17:17 4.5 C 45 %
1707 13-02-2020 20:27:17 4.5 C 45 %
1708 13-02-2020 20:37:17 4.6 C 45 %
1709 13-02-2020 20:47:18 4.7 C 45 %
1710 13-02-2020 20:57:18 4.7 C 45 %
1711 13-02-2020 21:07:17 4.7 C 45 %
1712 13-02-2020 21:17:17 4.8 C 45 %
1713 13-02-2020 21:27:17 4.7 C 45 %
1714 13-02-2020 21:37:18 4.7 C 45 %
1715 13-02-2020 21:47:18 4.7 C 45 %
1716 13-02-2020 21:57:18 5.3 C 45 %
1717 13-02-2020 22:07:17 5.8 C 45 %
1718 13-02-2020 22:17:17 5.9 C 41 %
1719 13-02-2020 22:27:17 6.1 C 40 %
1720 13-02-2020 22:37:17 6.3 C 40 %
1721 13-02-2020 22:47:17 6.5 C 38 %
1722 13-02-2020 22:57:17 6.8 C 37 %
1723 13-02-2020 23:07:17 6.4 C 37 %
1724 13-02-2020 23:17:17 6.1 C 40 %
1725 13-02-2020 23:27:17 5.8 C 42 %
Sensor: Nr:Datum:Temp:Feuchte:
Aussen-T/F 1726 13-02-2020 23:37:17 5.7 C 45 %
1727 13-02-2020 23:47:18 5.8 C 44 %
1728 13-02-2020 23:57:18 5.8 C 43 %
1729 14-02-2020 00:07:18 5.8 C 43 %
1730 14-02-2020 00:17:17 5.8 C 42 %
1731 14-02-2020 00:27:17 5.8 C 42 %
1732 14-02-2020 00:37:17 5.8 C 43 %
1733 14-02-2020 00:47:17 5.8 C 42 %
1734 14-02-2020 00:57:17 5.7 C 42 %
1735 14-02-2020 01:07:17 5.6 C 41 %
1736 14-02-2020 01:17:18 5.7 C 40 %
1737 14-02-2020 01:27:18 5.6 C 41 %
1738 14-02-2020 01:37:18 5.9 C 39 %
1739 14-02-2020 01:47:18 5.6 C 40 %
1740 14-02-2020 01:57:18 5.5 C 41 %
1741 14-02-2020 02:07:17 5.8 C 40 %
1742 14-02-2020 02:17:17 5.8 C 40 %
1743 14-02-2020 02:27:17 5.6 C 41 %
1744 14-02-2020 02:37:18 5.8 C 41 %
1745 14-02-2020 02:47:18 5.8 C 40 %
1746 14-02-2020 02:57:18 6 C 38 %
1747 14-02-2020 03:07:17 6 C 38 %
1748 14-02-2020 03:17:17 5.8 C 39 %
1749 14-02-2020 03:27:17 5.6 C 42 %
1750 14-02-2020 03:37:17 5.6 C 42 %
Sensor: Nr:Datum:Temp:Feuchte:
Aussen-T/F 1751 14-02-2020 03:47:17 5.3 C 44 %
1752 14-02-2020 03:57:17 5.2 C 45 %
1753 14-02-2020 04:07:18 5.2 C 45 %
1754 14-02-2020 04:17:18 5.1 C 45 %
1755 14-02-2020 04:27:18 5 C 44 %
1756 14-02-2020 04:37:17 5 C 45 %
1757 14-02-2020 04:47:18 4.9 C 44 %
1758 14-02-2020 04:57:18 4.8 C 44 %
1759 14-02-2020 05:07:18 4.6 C 45 %
1760 14-02-2020 05:17:17 4.9 C 45 %
1761 14-02-2020 05:27:17 5 C 43 %
1762 14-02-2020 05:37:17 4.9 C 45 %
1763 14-02-2020 05:47:17 4.8 C 45 %
1764 14-02-2020 05:57:17 4.8 C 46 %
1765 14-02-2020 06:07:17 4.8 C 46 %
1766 14-02-2020 06:17:17 4.7 C 45 %
1767 14-02-2020 06:27:17 4.7 C 45 %
1768 14-02-2020 06:37:17 4.7 C 45 %
1769 14-02-2020 06:47:17 4.7 C 45 %
1770 14-02-2020 06:57:17 4.7 C 45 %
1771 14-02-2020 07:07:17 4.7 C 45 %
1772 14-02-2020 07:17:17 4.7 C 45 %
1773 14-02-2020 07:27:17 4.6 C 45 %
1774 14-02-2020 07:37:18 4.6 C 45 %
1775 14-02-2020 07:47:17 4.6 C 43 %
Sensor: Nr:Datum:Temp:Feuchte:
Aussen-T/F 1776 14-02-2020 07:57:18 4.7 C 43 %
1777 14-02-2020 08:07:17 4.6 C 42 %
1778 14-02-2020 08:17:17 4.6 C 43 %
1779 14-02-2020 08:27:17 4.6 C 43 %
1780 14-02-2020 08:37:18 4.8 C 41 %
1781 14-02-2020 08:47:18 5 C 40 %
1782 14-02-2020 08:57:18 5.3 C 38 %
1783 14-02-2020 09:07:17 5.4 C 37 %
1784 14-02-2020 09:17:17 5.6 C 36 %
1785 14-02-2020 09:27:17 5.9 C 36 %
1786 14-02-2020 09:37:17 5.8 C 36 %
1787 14-02-2020 09:47:17 5.3 C 36 %
1788 14-02-2020 09:57:17 5.4 C 37 %
1789 14-02-2020 10:07:17 5.5 C 36 %
1790 14-02-2020 10:17:17 5.4 C 37 %
1791 14-02-2020 10:27:17 5.4 C 36 %
1792 14-02-2020 10:37:18 5.5 C 36 %
1793 14-02-2020 10:47:17 5.8 C 36 %
1794 14-02-2020 10:57:18 5.9 C 35 %
1795 14-02-2020 11:07:18 6.2 C 35 %
1796 14-02-2020 11:17:18 6.1 C 35 %
1797 14-02-2020 11:27:18 6.1 C 35 %
1798 14-02-2020 11:37:17 6.2 C 35 %
1799 14-02-2020 11:47:18 6.3 C 35 %
1800 14-02-2020 11:57:18 6.4 C 35 %
Sensor: Nr:Datum:Temp:Feuchte:
Aussen-T/F 1801 14-02-2020 12:07:17 6.6 C 35 %
1802 14-02-2020 12:17:17 6.8 C 35 %
1803 14-02-2020 12:27:17 6.9 C 34 %
1804 14-02-2020 12:37:17 7 C 33 %
1805 14-02-2020 12:47:18 7.2 C 32 %
1806 14-02-2020 12:57:18 7.3 C 32 %
1807 14-02-2020 13:07:17 7.5 C 32 %
1808 14-02-2020 13:17:17 7.3 C 31 %
1809 14-02-2020 13:27:17 7.5 C 31 %
1810 14-02-2020 13:37:17 7.5 C 31 %
1811 14-02-2020 13:47:17 7.5 C 31 %
1812 14-02-2020 13:57:17 7.7 C 31 %
1813 14-02-2020 14:07:18 7.9 C 31 %
1814 14-02-2020 14:17:18 7.9 C 31 %
1815 14-02-2020 14:27:18 7.9 C 30 %
1816 14-02-2020 14:37:17 7.9 C 30 %
1817 14-02-2020 14:47:18 7.9 C 30 %
1818 14-02-2020 14:57:18 7.9 C 30 %
1819 14-02-2020 15:07:17 7.9 C 30 %
1820 14-02-2020 15:17:17 7.8 C 30 %
1821 14-02-2020 15:27:17 8 C 30 %
1822 14-02-2020 15:37:17 8.1 C 30 %
1823 14-02-2020 15:47:17 8.2 C 30 %
1824 14-02-2020 15:57:17 8.1 C 29 %
1825 14-02-2020 16:07:17 8.2 C 29 %
Sensor: Nr:Datum:Temp:Feuchte:
Aussen-T/F 1826 14-02-2020 16:17:17 8.1 C 30 %
1827 14-02-2020 16:27:17 8.1 C 30 %
1828 14-02-2020 16:37:18 7.9 C 31 %
1829 14-02-2020 16:47:18 7.7 C 33 %
1830 14-02-2020 16:57:18 7.5 C 34 %
1831 14-02-2020 17:07:18 7.1 C 34 %
1832 14-02-2020 17:17:17 6.9 C 36 %
1833 14-02-2020 17:27:17 6.7 C 36 %
1834 14-02-2020 17:37:17 6.4 C 36 %
1835 14-02-2020 17:47:17 6.2 C 37 %
1836 14-02-2020 17:57:17 6.2 C 37 %
1837 14-02-2020 18:07:17 6.2 C 37 %
1838 14-02-2020 18:17:17 6.2 C 37 %
1839 14-02-2020 18:27:18 6.1 C 37 %
1840 14-02-2020 18:37:17 6.2 C 37 %
1841 14-02-2020 18:47:17 6.2 C 37 %
1842 14-02-2020 18:57:17 5.8 C 38 %
1843 14-02-2020 19:07:18 5.7 C 38 %
1844 14-02-2020 19:17:17 5.4 C 38 %
1845 14-02-2020 19:27:17 5 C 38 %
1846 14-02-2020 19:37:17 4.7 C 40 %
1847 14-02-2020 19:47:17 4.7 C 41 %
1848 14-02-2020 19:57:17 4.5 C 42 %
1849 14-02-2020 20:07:17 4.6 C 42 %
1850 14-02-2020 20:17:17 4.3 C 41 %
Sensor: Nr:Datum:Temp:Feuchte:
Aussen-T/F 1851 14-02-2020 20:27:17 3.9 C 42 %
1852 14-02-2020 20:37:18 3.6 C 45 %
1853 14-02-2020 20:47:17 3.5 C 44 %
1854 14-02-2020 20:57:17 3.3 C 45 %
1855 14-02-2020 21:07:17 3.4 C 46 %
1856 14-02-2020 21:17:17 3.3 C 45 %
1857 14-02-2020 21:27:17 2.8 C 46 %
1858 14-02-2020 21:37:17 2.7 C 46 %
1859 14-02-2020 21:47:17 2.7 C 46 %
1860 14-02-2020 21:57:17 2.5 C 46 %
1861 14-02-2020 22:07:17 2.3 C 46 %
1862 14-02-2020 22:17:17 2.5 C 47 %
1863 14-02-2020 22:27:17 2.5 C 46 %
1864 14-02-2020 22:37:17 2.1 C 46 %
1865 14-02-2020 22:47:17 2 C 46 %
1866 14-02-2020 22:57:17 1.8 C 47 %
1867 14-02-2020 23:07:18 2.1 C 46 %
1868 14-02-2020 23:17:18 2.1 C 46 %
1869 14-02-2020 23:27:18 2.5 C 47 %
1870 14-02-2020 23:37:17 1.9 C 47 %
1871 14-02-2020 23:47:18 1.6 C 47 %
1872 14-02-2020 23:57:18 1.7 C 47 %
1873 15-02-2020 00:07:18 1.6 C 47 %
1874 15-02-2020 00:17:17 1.7 C 47 %
1875 15-02-2020 00:27:17 1.7 C 47 %
Sensor: Nr:Datum:Temp:Feuchte:
Aussen-T/F 1876 15-02-2020 00:37:17 1.7 C 47 %
1877 15-02-2020 00:47:17 1.8 C 47 %
1878 15-02-2020 00:57:17 1.9 C 47 %
1879 15-02-2020 01:07:17 2.1 C 46 %
1880 15-02-2020 01:17:17 2.5 C 46 %
1881 15-02-2020 01:27:17 2.4 C 46 %
1882 15-02-2020 01:37:18 2.4 C 46 %
1883 15-02-2020 01:47:17 2.6 C 46 %
1884 15-02-2020 01:57:17 2.4 C 46 %
1885 15-02-2020 02:07:18 2.3 C 46 %
1886 15-02-2020 02:17:17 2.6 C 46 %
1887 15-02-2020 02:27:17 2.3 C 46 %
1888 15-02-2020 02:37:17 2.2 C 46 %
1889 15-02-2020 02:47:17 2 C 45 %
1890 15-02-2020 02:57:17 2 C 46 %
1891 15-02-2020 03:07:18 1.9 C 47 %
1892 15-02-2020 03:17:18 1.7 C 46 %
1893 15-02-2020 03:27:18 1.7 C 46 %
1894 15-02-2020 03:37:17 1.8 C 47 %
1895 15-02-2020 03:47:18 1.3 C 46 %
1896 15-02-2020 03:57:18 1.3 C 46 %
1897 15-02-2020 04:07:17 1.4 C 46 %
1898 15-02-2020 04:17:17 1.2 C 46 %
1899 15-02-2020 04:27:17 1.3 C 46 %
1900 15-02-2020 04:37:17 1.2 C 46 %
Sensor: Nr:Datum:Temp:Feuchte:
Aussen-T/F 1901 15-02-2020 04:47:17 1.5 C 46 %
1902 15-02-2020 04:57:17 1.4 C 46 %
1903 15-02-2020 05:07:17 1.1 C 46 %
1904 15-02-2020 05:17:17 1 C 46 %
1905 15-02-2020 05:27:17 0.9 C 47 %
1906 15-02-2020 05:37:18 1.2 C 46 %
1907 15-02-2020 05:47:17 0.8 C 47 %
1908 15-02-2020 05:57:17 0.8 C 47 %
1909 15-02-2020 06:07:18 1 C 46 %
1910 15-02-2020 06:17:17 0.7 C 47 %
1911 15-02-2020 06:27:18 0.6 C 47 %
1912 15-02-2020 06:37:18 0.5 C 47 %
1913 15-02-2020 06:47:17 0.7 C 47 %
1914 15-02-2020 06:57:17 0.7 C 47 %
1915 15-02-2020 07:07:18 0.7 C 47 %
1916 15-02-2020 07:17:18 0.3 C 47 %
1917 15-02-2020 07:27:18 0.3 C 47 %
1918 15-02-2020 07:37:18 0.8 C 47 %
1919 15-02-2020 07:47:17 1.1 C 46 %
1920 15-02-2020 07:57:18 1.1 C 46 %
1921 15-02-2020 08:07:17 0.9 C 47 %
1922 15-02-2020 08:17:18 1.3 C 46 %
1923 15-02-2020 08:27:18 1.8 C 46 %
1924 15-02-2020 08:37:18 2 C 45 %
1925 15-02-2020 08:47:17 2 C 45 %
Sensor: Nr:Datum:Temp:Feuchte:
Aussen-T/F 1926 15-02-2020 08:57:18 2.6 C 45 %
1927 15-02-2020 09:07:18 2.8 C 45 %
1928 15-02-2020 09:17:17 3.1 C 45 %
1929 15-02-2020 09:27:17 3.2 C 45 %
1930 15-02-2020 09:37:17 3.6 C 45 %
1931 15-02-2020 09:47:17 3.7 C 45 %
1932 15-02-2020 09:57:17 4.2 C 44 %
1933 15-02-2020 10:07:17 3.7 C 44 %
1934 15-02-2020 10:17:17 4.4 C 44 %
1935 15-02-2020 10:27:17 4.6 C 44 %
1936 15-02-2020 10:37:18 5.1 C 43 %
1937 15-02-2020 10:47:17 5.4 C 43 %
1938 15-02-2020 10:57:17 5.6 C 42 %
1939 15-02-2020 11:07:18 6.4 C 40 %
1940 15-02-2020 11:17:18 6.9 C 41 %
1941 15-02-2020 11:27:18 6.8 C 40 %
1942 15-02-2020 11:37:17 7.3 C 41 %
1943 15-02-2020 11:47:18 8 C 40 %
1944 15-02-2020 11:57:18 8.4 C 36 %
1945 15-02-2020 12:07:18 8.7 C 36 %
1946 15-02-2020 12:17:17 9.1 C 37 %
1947 15-02-2020 12:27:17 9.9 C 36 %
1948 15-02-2020 12:37:17 10.3 C 33 %
1949 15-02-2020 12:47:17 10.7 C 32 %
1950 15-02-2020 12:57:17 11.3 C 30 %
Sensor: Nr:Datum:Temp:Feuchte:
Aussen-T/F 1951 15-02-2020 13:07:18 11.6 C 30 %
1952 15-02-2020 13:17:17 13.7 C 21 %
1953 15-02-2020 13:27:17 14.7 C 20 %
1954 15-02-2020 13:37:17 15.7 C 20 %
1955 15-02-2020 13:47:17 14.1 C 20 %
1956 15-02-2020 13:57:17 13 C 20 %
1957 15-02-2020 14:07:18 11.4 C 24 %
1958 15-02-2020 14:17:17 11.2 C 25 %
1959 15-02-2020 14:27:17 11.2 C 25 %
1960 15-02-2020 14:37:17 11.3 C 25 %
1961 15-02-2020 14:47:17 11 C 25 %
1962 15-02-2020 14:57:17 11.9 C 23 %
1963 15-02-2020 15:07:17 11.3 C 26 %
1964 15-02-2020 15:17:17 12.5 C 21 %
1965 15-02-2020 15:27:17 12.7 C 20 %
1966 15-02-2020 15:37:18 12.1 C 21 %
1967 15-02-2020 15:47:17 11.9 C 23 %
1968 15-02-2020 15:57:18 11.7 C 25 %
1969 15-02-2020 16:07:18 12.1 C 21 %
1970 15-02-2020 16:17:18 12.1 C 23 %
1971 15-02-2020 16:27:18 11.4 C 25 %
1972 15-02-2020 16:37:18 9.8 C 30 %
1973 15-02-2020 16:47:18 9.3 C 30 %
1974 15-02-2020 16:57:18 9.2 C 30 %
1975 15-02-2020 17:07:17 8.5 C 32 %
Sensor: Nr:Datum:Temp:Feuchte:
Aussen-T/F 1976 15-02-2020 17:17:17 8.4 C 33 %
1977 15-02-2020 17:27:17 7.8 C 35 %
1978 15-02-2020 17:37:18 7.4 C 35 %
1979 15-02-2020 17:47:18 7.3 C 35 %
1980 15-02-2020 17:57:18 7.3 C 36 %
1981 15-02-2020 18:07:17 7.3 C 36 %
1982 15-02-2020 18:17:17 7.1 C 36 %
1983 15-02-2020 18:27:17 7.1 C 36 %
1984 15-02-2020 18:37:17 6.8 C 36 %
1985 15-02-2020 18:47:17 7.1 C 36 %
1986 15-02-2020 18:57:17 7 C 36 %
1987 15-02-2020 19:07:17 6.9 C 36 %
1988 15-02-2020 19:17:18 6.8 C 36 %
1989 15-02-2020 19:27:18 6.9 C 37 %
1990 15-02-2020 19:37:18 7.1 C 36 %
1991 15-02-2020 19:47:17 6.7 C 37 %
1992 15-02-2020 19:57:17 6.7 C 37 %
1993 15-02-2020 20:07:17 7.1 C 35 %
1994 15-02-2020 20:17:17 7.1 C 35 %
1995 15-02-2020 20:27:17 7.4 C 35 %
1996 15-02-2020 20:37:18 7.4 C 35 %
1997 15-02-2020 20:47:17 7.6 C 35 %
1998 15-02-2020 20:57:18 7.8 C 35 %
1999 15-02-2020 21:07:18 7.6 C 35 %
2000 15-02-2020 21:17:18 7.6 C 35 %
Sensor: Nr:Datum:Temp:Feuchte:
Aussen-T/F 2001 15-02-2020 21:27:18 8.1 C 33 %
2002 15-02-2020 21:37:17 7.8 C 34 %
2003 15-02-2020 21:47:17 7.6 C 34 %
2004 15-02-2020 21:57:17 7.7 C 34 %
2005 15-02-2020 22:07:17 7.9 C 33 %
2006 15-02-2020 22:17:18 7.7 C 34 %
2007 15-02-2020 22:27:18 8.4 C 32 %
2008 15-02-2020 22:37:18 8.2 C 32 %
2009 15-02-2020 22:47:18 8.4 C 32 %
2010 15-02-2020 22:57:18 8.6 C 32 %
2011 15-02-2020 23:07:18 10.6 C 29 %
2012 15-02-2020 23:17:17 9.7 C 30 %
2013 15-02-2020 23:27:17 9.2 C 31 %
2014 15-02-2020 23:37:17 9.1 C 31 %
2015 15-02-2020 23:47:18 10 C 29 %
2016 15-02-2020 23:57:18 9.8 C 30 %
2017 16-02-2020 00:07:18 9.3 C 30 %
2018 16-02-2020 00:17:17 9.8 C 30 %
2019 16-02-2020 00:27:17 9.2 C 30 %
2020 16-02-2020 00:37:17 9.2 C 30 %
2021 16-02-2020 00:47:17 10 C 29 %
2022 16-02-2020 00:57:17 9.7 C 30 %
2023 16-02-2020 01:07:18 9.7 C 30 %
2024 16-02-2020 01:17:18 10.5 C 29 %
2025 16-02-2020 01:27:18 10.4 C 29 %
Sensor: Nr:Datum:Temp:Feuchte:
Aussen-T/F 2026 16-02-2020 01:37:18 9.7 C 30 %
2027 16-02-2020 01:47:18 9.7 C 30 %
2028 16-02-2020 01:57:18 10 C 30 %
2029 16-02-2020 02:07:17 10.5 C 30 %
2030 16-02-2020 02:17:17 10.5 C 30 %
2031 16-02-2020 02:27:18 10.8 C 29 %
2032 16-02-2020 02:37:18 10.6 C 30 %
2033 16-02-2020 02:47:18 10.9 C 30 %
2034 16-02-2020 02:57:18 11.1 C 28 %
2035 16-02-2020 03:07:17 11.4 C 28 %
2036 16-02-2020 03:17:17 11.4 C 28 %
2037 16-02-2020 03:27:17 12.1 C 27 %
2038 16-02-2020 03:37:18 12 C 27 %
2039 16-02-2020 03:47:17 12.3 C 27 %
2040 16-02-2020 03:57:18 12.4 C 26 %
2041 16-02-2020 04:07:18 12.1 C 26 %
2042 16-02-2020 04:17:18 12.2 C 26 %
2043 16-02-2020 04:27:18 12 C 26 %
2044 16-02-2020 04:37:17 11.7 C 27 %
2045 16-02-2020 04:47:17 11.8 C 26 %
2046 16-02-2020 04:57:17 11.7 C 26 %
2047 16-02-2020 05:07:17 11.5 C 27 %
2048 16-02-2020 05:17:17 11.3 C 27 %
2049 16-02-2020 05:27:18 11.5 C 27 %
2050 16-02-2020 05:37:18 11.4 C 27 %
Sensor: Nr:Datum:Temp:Feuchte:
Aussen-T/F 2051 16-02-2020 05:47:17 11.6 C 27 %
2052 16-02-2020 05:57:18 12.2 C 25 %
2053 16-02-2020 06:07:17 12.6 C 25 %
2054 16-02-2020 06:17:17 12.6 C 25 %
2055 16-02-2020 06:27:17 12.9 C 24 %
2056 16-02-2020 06:37:18 13.1 C 21 %
2057 16-02-2020 06:47:17 13.6 C 21 %
2058 16-02-2020 06:57:17 13.2 C 21 %
2059 16-02-2020 07:07:17 13.5 C 22 %
2060 16-02-2020 07:17:17 13.5 C 23 %
2061 16-02-2020 07:27:17 13.8 C 23 %
2062 16-02-2020 07:37:17 14.1 C 23 %
2063 16-02-2020 07:47:17 13.9 C 24 %
2064 16-02-2020 07:57:17 13.7 C 25 %
2065 16-02-2020 08:07:18 13.8 C 25 %
2066 16-02-2020 08:17:17 13.4 C 25 %
2067 16-02-2020 08:27:17 13.3 C 25 %
2068 16-02-2020 08:37:18 13.4 C 25 %
2069 16-02-2020 08:47:17 13.6 C 25 %
2070 16-02-2020 08:57:17 13.6 C 25 %
2071 16-02-2020 09:07:18 13.7 C 25 %
2072 16-02-2020 09:17:17 13.9 C 25 %
2073 16-02-2020 09:27:17 14 C 25 %
2074 16-02-2020 09:37:17 14 C 23 %
2075 16-02-2020 09:47:18 14.1 C 23 %
Sensor: Nr:Datum:Temp:Feuchte:
Aussen-T/F 2076 16-02-2020 09:57:18 14.2 C 23 %
2077 16-02-2020 10:07:18 14.3 C 23 %
2078 16-02-2020 10:17:18 14.2 C 23 %
2079 16-02-2020 10:27:18 14.5 C 23 %
2080 16-02-2020 10:37:18 14.7 C 22 %
2081 16-02-2020 10:47:18 15.1 C 21 %
2082 16-02-2020 10:57:18 15.2 C 21 %
2083 16-02-2020 11:07:17 15.2 C 20 %
2084 16-02-2020 11:17:17 15.8 C 20 %
2085 16-02-2020 11:27:17 16.1 C 20 %
2086 16-02-2020 11:37:17 16.1 C 20 %
2087 16-02-2020 11:47:17 16.4 C 20 %
2088 16-02-2020 11:57:17 16.3 C 20 %
2089 16-02-2020 12:07:17 16.4 C 20 %
2090 16-02-2020 12:17:17 17 C 20 %
2091 16-02-2020 12:27:17 17.3 C 20 %
2092 16-02-2020 12:37:18 17.2 C 20 %
2093 16-02-2020 12:47:18 17.9 C 20 %
2094 16-02-2020 12:57:18 18.6 C 20 %
2095 16-02-2020 13:07:18 17.9 C 20 %
2096 16-02-2020 13:17:18 18.6 C 20 %
2097 16-02-2020 13:27:18 18.1 C 20 %
2098 16-02-2020 13:37:17 20 C 20 %
2099 16-02-2020 13:47:17 19.1 C 20 %
2100 16-02-2020 13:57:17 18 C 20 %
Sensor: Nr:Datum:Temp:Feuchte:
Aussen-T/F 2101 16-02-2020 14:07:17 18 C 20 %
2102 16-02-2020 14:17:17 18.2 C 20 %
2103 16-02-2020 14:27:17 18.5 C 20 %
2104 16-02-2020 14:37:18 18.3 C 20 %
2105 16-02-2020 14:47:17 18.6 C 20 %
2106 16-02-2020 14:57:17 18.5 C 20 %
2107 16-02-2020 15:07:18 18.1 C 20 %
2108 16-02-2020 15:17:17 18 C 20 %
2109 16-02-2020 15:27:17 17.9 C 20 %
2110 16-02-2020 15:37:17 18 C 20 %
2111 16-02-2020 15:47:17 18.4 C 20 %
2112 16-02-2020 15:57:17 18.7 C 20 %
2113 16-02-2020 16:07:18 18.6 C 20 %
2114 16-02-2020 16:17:17 18.4 C 20 %
2115 16-02-2020 16:27:17 18.4 C 20 %
2116 16-02-2020 16:37:17 17.8 C 20 %
2117 16-02-2020 16:47:17 17.2 C 20 %
2118 16-02-2020 16:57:17 16.6 C 20 %
2119 16-02-2020 17:07:17 16.3 C 20 %
2120 16-02-2020 17:17:18 16 C 20 %
2121 16-02-2020 17:27:18 15.3 C 20 %
2122 16-02-2020 17:37:17 15 C 20 %
2123 16-02-2020 17:47:18 14.9 C 20 %
2124 16-02-2020 17:57:18 14.7 C 20 %
2125 16-02-2020 18:07:17 15.3 C 20 %
Sensor: Nr:Datum:Temp:Feuchte:
Aussen-T/F 2126 16-02-2020 18:17:17 14.9 C 20 %
2127 16-02-2020 18:27:17 15.1 C 20 %
2128 16-02-2020 18:37:18 15 C 20 %
2129 16-02-2020 18:47:17 15.7 C 20 %
2130 16-02-2020 18:57:18 14.9 C 20 %
2131 16-02-2020 19:07:18 15.9 C 20 %
2132 16-02-2020 19:17:17 15.4 C 20 %
2133 16-02-2020 19:27:17 15.9 C 20 %
2134 16-02-2020 19:37:18 15.5 C 20 %
2135 16-02-2020 19:47:17 15.8 C 20 %
2136 16-02-2020 19:57:18 15.4 C 20 %
2137 16-02-2020 20:07:18 15.7 C 20 %
2138 16-02-2020 20:17:17 15.9 C 20 %
2139 16-02-2020 20:27:17 15.9 C 20 %
2140 16-02-2020 20:37:17 15.8 C 20 %
2141 16-02-2020 20:47:17 16 C 20 %
2142 16-02-2020 20:57:17 16.1 C 20 %
2143 16-02-2020 21:07:18 16.2 C 20 %
2144 16-02-2020 21:17:17 16.1 C 20 %
2145 16-02-2020 21:27:17 16.3 C 20 %
2146 16-02-2020 21:37:17 16.3 C 20 %
2147 16-02-2020 21:47:17 16.8 C 20 %
2148 16-02-2020 21:57:17 16.5 C 20 %
2149 16-02-2020 22:07:18 16.3 C 20 %
2150 16-02-2020 22:17:18 16.2 C 20 %
Sensor: Nr:Datum:Temp:Feuchte:
Aussen-T/F 2151 16-02-2020 22:27:18 16.1 C 20 %
2152 16-02-2020 22:37:17 16.1 C 20 %
2153 16-02-2020 22:47:17 16 C 20 %
2154 16-02-2020 22:57:17 15.8 C 20 %
2155 16-02-2020 23:07:17 15.2 C 20 %
2156 16-02-2020 23:17:18 12.5 C 30 %
2157 16-02-2020 23:27:18 10.5 C 34 %
2158 16-02-2020 23:37:18 10.1 C 35 %
2159 16-02-2020 23:47:18 9.8 C 35 %
2160 16-02-2020 23:57:18 9.6 C 35 %
2161 17-02-2020 00:07:18 9.3 C 36 %
2162 17-02-2020 00:17:17 9.1 C 39 %
2163 17-02-2020 00:27:17 9.1 C 37 %
2164 17-02-2020 00:37:17 9.4 C 36 %
2165 17-02-2020 00:47:18 9.1 C 35 %
2166 17-02-2020 00:57:18 9.1 C 35 %
2167 17-02-2020 01:07:18 8.9 C 36 %
2168 17-02-2020 01:17:17 8.9 C 36 %
2169 17-02-2020 01:27:17 9 C 35 %
2170 17-02-2020 01:37:18 8.4 C 36 %
2171 17-02-2020 01:47:17 8.2 C 37 %
2172 17-02-2020 01:57:18 7.9 C 41 %
2173 17-02-2020 02:07:18 8.2 C 39 %
2174 17-02-2020 02:17:17 8.4 C 35 %
2175 17-02-2020 02:27:17 8.2 C 33 %
Sensor: Nr:Datum:Temp:Feuchte:
Aussen-T/F 2176 17-02-2020 02:37:17 8.1 C 32 %
2177 17-02-2020 02:47:17 8 C 32 %
2178 17-02-2020 02:57:17 8.1 C 31 %
2179 17-02-2020 03:07:17 8.1 C 32 %
2180 17-02-2020 03:17:17 8 C 32 %
2181 17-02-2020 03:27:17 7.9 C 32 %
2182 17-02-2020 03:37:17 8.1 C 32 %
2183 17-02-2020 03:47:17 8.1 C 32 %
2184 17-02-2020 03:57:17 8.1 C 32 %
2185 17-02-2020 04:07:17 7.9 C 32 %
2186 17-02-2020 04:17:18 7.9 C 32 %
2187 17-02-2020 04:27:18 8.1 C 32 %
2188 17-02-2020 04:37:17 7.8 C 33 %
2189 17-02-2020 04:47:17 7.8 C 33 %
2190 17-02-2020 04:57:17 7.8 C 33 %
2191 17-02-2020 05:07:17 7.6 C 33 %
2192 17-02-2020 05:17:18 7.6 C 33 %
2193 17-02-2020 05:27:18 7.5 C 34 %
2194 17-02-2020 05:37:17 7.5 C 34 %
2195 17-02-2020 05:47:17 7.6 C 34 %
2196 17-02-2020 05:57:17 7.4 C 34 %
2197 17-02-2020 06:07:17 7.4 C 34 %
2198 17-02-2020 06:17:17 7.5 C 35 %
2199 17-02-2020 06:27:17 7.9 C 34 %
2200 17-02-2020 06:37:17 7.6 C 34 %
Sensor: Nr:Datum:Temp:Feuchte:
Aussen-T/F 2201 17-02-2020 06:47:17 7.9 C 34 %
2202 17-02-2020 06:57:17 8 C 33 %
2203 17-02-2020 07:07:18 7.9 C 34 %
2204 17-02-2020 07:17:17 7.7 C 34 %
2205 17-02-2020 07:27:17 7.5 C 35 %
2206 17-02-2020 07:37:17 7.5 C 35 %
2207 17-02-2020 07:47:17 7.3 C 35 %
2208 17-02-2020 07:57:17 7.3 C 35 %
2209 17-02-2020 08:07:18 7.7 C 35 %
2210 17-02-2020 08:17:17 7.8 C 34 %
2211 17-02-2020 08:27:17 7.9 C 34 %
2212 17-02-2020 08:37:17 7.7 C 35 %
2213 17-02-2020 08:47:17 8.2 C 33 %
2214 17-02-2020 08:57:17 8.2 C 33 %
2215 17-02-2020 09:07:17 8.3 C 33 %
2216 17-02-2020 09:17:17 8.4 C 33 %
2217 17-02-2020 09:27:17 8.4 C 33 %
2218 17-02-2020 09:37:18 8.4 C 33 %
2219 17-02-2020 09:47:17 8.3 C 33 %
2220 17-02-2020 09:57:18 8.4 C 32 %
2221 17-02-2020 10:07:18 8.5 C 32 %
2222 17-02-2020 10:17:17 8.6 C 32 %
2223 17-02-2020 10:27:17 8.8 C 32 %
2224 17-02-2020 10:37:17 9 C 32 %
2225 17-02-2020 10:47:17 9.1 C 32 %
Sensor: Nr:Datum:Temp:Feuchte:
Aussen-T/F 2226 17-02-2020 10:57:17 9.1 C 31 %
2227 17-02-2020 11:07:17 9.2 C 31 %
2228 17-02-2020 11:17:17 9.2 C 31 %
2229 17-02-2020 11:27:17 9.4 C 30 %
2230 17-02-2020 11:37:17 9.4 C 30 %
2231 17-02-2020 11:47:18 9.3 C 30 %
2232 17-02-2020 11:57:18 9.4 C 30 %
2233 17-02-2020 12:07:17 9.3 C 30 %
2234 17-02-2020 12:17:17 9.3 C 30 %
2235 17-02-2020 12:27:17 9.2 C 30 %
2236 17-02-2020 12:37:17 9.5 C 29 %
2237 17-02-2020 12:47:17 9.5 C 28 %
2238 17-02-2020 12:57:17 9.6 C 28 %
2239 17-02-2020 13:07:18 10 C 26 %
2240 17-02-2020 13:17:17 10.4 C 26 %
2241 17-02-2020 13:27:17 10.5 C 25 %
2242 17-02-2020 13:37:17 11.2 C 24 %
2243 17-02-2020 13:47:17 10.7 C 25 %
2244 17-02-2020 13:57:17 10.4 C 25 %
2245 17-02-2020 14:07:17 10.5 C 25 %
2246 17-02-2020 14:17:18 10.5 C 25 %
2247 17-02-2020 14:27:18 11.1 C 25 %
2248 17-02-2020 14:37:18 10.6 C 25 %
2249 17-02-2020 14:47:18 10.5 C 25 %
2250 17-02-2020 14:57:18 10.3 C 25 %
Sensor: Nr:Datum:Temp:Feuchte:
Aussen-T/F 2251 17-02-2020 15:07:17 11.1 C 25 %
2252 17-02-2020 15:17:17 10.9 C 25 %
2253 17-02-2020 15:27:17 11.2 C 24 %
2254 17-02-2020 15:37:17 11.3 C 24 %
2255 17-02-2020 15:47:17 11.2 C 24 %
2256 17-02-2020 15:57:17 11.4 C 24 %
2257 17-02-2020 16:07:17 10.8 C 25 %
2258 17-02-2020 16:17:17 11.7 C 24 %
2259 17-02-2020 16:27:17 11.1 C 24 %
2260 17-02-2020 16:37:17 12.8 C 20 %
2261 17-02-2020 16:47:17 12.9 C 20 %
2262 17-02-2020 16:57:17 11.2 C 21 %
2263 17-02-2020 17:07:18 10.2 C 25 %
2264 17-02-2020 17:17:17 10.3 C 25 %
2265 17-02-2020 17:27:17 9.5 C 27 %
2266 17-02-2020 17:37:17 7 C 36 %
2267 17-02-2020 17:47:17 7.1 C 35 %
2268 17-02-2020 17:57:17 7.2 C 34 %
2269 17-02-2020 18:07:18 7.1 C 33 %
2270 17-02-2020 18:17:18 7.3 C 32 %
2271 17-02-2020 18:27:18 7 C 33 %
2272 17-02-2020 18:37:18 6.7 C 33 %
2273 17-02-2020 18:47:17 6.8 C 33 %
2274 17-02-2020 18:57:18 6.8 C 33 %
2275 17-02-2020 19:07:18 6.4 C 33 %
Sensor: Nr:Datum:Temp:Feuchte:
Aussen-T/F 2276 17-02-2020 19:17:17 5.7 C 35 %
2277 17-02-2020 19:27:17 5.6 C 36 %
2278 17-02-2020 19:37:17 5.7 C 36 %
2279 17-02-2020 19:47:17 6.3 C 35 %
2280 17-02-2020 19:57:17 5.3 C 36 %
2281 17-02-2020 20:07:17 4.8 C 38 %
2282 17-02-2020 20:17:17 4.6 C 40 %
2283 17-02-2020 20:27:17 4.5 C 41 %
2284 17-02-2020 20:37:17 4.4 C 42 %
2285 17-02-2020 20:47:17 3.8 C 43 %
2286 17-02-2020 20:57:17 4.1 C 44 %
2287 17-02-2020 21:07:18 4.3 C 45 %
2288 17-02-2020 21:17:17 5 C 43 %
2289 17-02-2020 21:27:17 5.7 C 40 %
2290 17-02-2020 21:37:17 5 C 39 %
2291 17-02-2020 21:47:17 5.2 C 40 %
2292 17-02-2020 21:57:17 5.1 C 40 %
2293 17-02-2020 22:07:18 6.3 C 38 %
2294 17-02-2020 22:17:17 7.1 C 35 %
2295 17-02-2020 22:27:17 7.5 C 35 %
2296 17-02-2020 22:37:17 7.7 C 34 %
2297 17-02-2020 22:47:17 7.9 C 34 %
2298 17-02-2020 22:57:17 8 C 33 %
2299 17-02-2020 23:07:17 8 C 33 %
2300 17-02-2020 23:17:18 7.8 C 33 %
Sensor: Nr:Datum:Temp:Feuchte:
Aussen-T/F 2301 17-02-2020 23:27:18 6.9 C 35 %
2302 17-02-2020 23:37:17 7.2 C 35 %
2303 17-02-2020 23:47:18 7.7 C 33 %
2304 17-02-2020 23:57:18 7.6 C 33 %
2305 18-02-2020 00:07:18 7.8 C 32 %
2306 18-02-2020 00:17:17 7.8 C 32 %
2307 18-02-2020 00:27:17 7.9 C 32 %
2308 18-02-2020 00:37:18 7.8 C 31 %
2309 18-02-2020 00:47:18 7.9 C 31 %
2310 18-02-2020 00:57:18 7.8 C 31 %
2311 18-02-2020 01:07:18 7.8 C 31 %
2312 18-02-2020 01:17:17 7.8 C 31 %
2313 18-02-2020 01:27:17 7.7 C 31 %
2314 18-02-2020 01:37:17 7.7 C 32 %
2315 18-02-2020 01:47:17 7.5 C 32 %
2316 18-02-2020 01:57:17 7.5 C 32 %
2317 18-02-2020 02:07:18 7.4 C 32 %
2318 18-02-2020 02:17:17 7.2 C 32 %
2319 18-02-2020 02:27:17 7 C 32 %
2320 18-02-2020 02:37:17 7 C 32 %
2321 18-02-2020 02:47:18 6.8 C 33 %
2322 18-02-2020 02:57:18 7.1 C 32 %
2323 18-02-2020 03:07:18 7.1 C 32 %
2324 18-02-2020 03:17:17 7.3 C 32 %
2325 18-02-2020 03:27:17 7.3 C 31 %
Sensor: Nr:Datum:Temp:Feuchte:
Aussen-T/F 2326 18-02-2020 03:37:17 7.1 C 32 %
2327 18-02-2020 03:47:17 6.6 C 33 %
2328 18-02-2020 03:57:17 6.6 C 33 %
2329 18-02-2020 04:07:17 6.4 C 33 %
2330 18-02-2020 04:17:17 6.2 C 33 %
2331 18-02-2020 04:27:17 6.2 C 33 %
2332 18-02-2020 04:37:18 5.9 C 34 %
2333 18-02-2020 04:47:17 6.3 C 33 %
2334 18-02-2020 04:57:18 6 C 33 %
2335 18-02-2020 05:07:18 5.9 C 33 %
2336 18-02-2020 05:17:17 5.8 C 33 %
2337 18-02-2020 05:27:17 6 C 33 %
2338 18-02-2020 05:37:17 5.7 C 33 %
2339 18-02-2020 05:47:18 5.7 C 33 %
2340 18-02-2020 05:57:18 5.8 C 34 %
2341 18-02-2020 06:07:18 5.6 C 34 %
2342 18-02-2020 06:17:17 5.6 C 34 %
2343 18-02-2020 06:27:17 5.7 C 34 %
2344 18-02-2020 06:37:18 5.6 C 34 %
2345 18-02-2020 06:47:17 5.6 C 34 %
2346 18-02-2020 06:57:17 5.4 C 34 %
2347 18-02-2020 07:07:18 5.2 C 34 %
2348 18-02-2020 07:17:18 5.4 C 34 %
2349 18-02-2020 07:27:18 5.3 C 35 %
2350 18-02-2020 07:37:17 5.1 C 35 %
Sensor: Nr:Datum:Temp:Feuchte:
Aussen-T/F 2351 18-02-2020 07:47:17 5 C 35 %
2352 18-02-2020 07:57:17 5.3 C 35 %
2353 18-02-2020 08:07:17 4.8 C 35 %
2354 18-02-2020 08:17:17 5.4 C 34 %
2355 18-02-2020 08:27:17 5.1 C 35 %
2356 18-02-2020 08:37:18 5.1 C 35 %
2357 18-02-2020 08:47:18 5.3 C 35 %
2358 18-02-2020 08:57:18 5.3 C 35 %
2359 18-02-2020 09:07:18 5.4 C 35 %
2360 18-02-2020 09:17:18 5.6 C 35 %
2361 18-02-2020 09:27:18 5.6 C 34 %
2362 18-02-2020 09:37:17 5.8 C 34 %
2363 18-02-2020 09:47:17 6 C 33 %
2364 18-02-2020 09:57:17 6.2 C 32 %
2365 18-02-2020 10:07:17 6.1 C 32 %
2366 18-02-2020 10:17:18 6.1 C 32 %
2367 18-02-2020 10:27:18 6.3 C 32 %
2368 18-02-2020 10:37:17 6.7 C 32 %
2369 18-02-2020 10:47:18 6.9 C 31 %
2370 18-02-2020 10:57:18 7 C 30 %
2371 18-02-2020 11:07:17 7.4 C 30 %
2372 18-02-2020 11:17:17 8.1 C 30 %
2373 18-02-2020 11:27:17 8.2 C 29 %
2374 18-02-2020 11:37:17 7.6 C 29 %
2375 18-02-2020 11:47:17 7.7 C 29 %
Sensor: Nr:Datum:Temp:Feuchte:
Aussen-T/F 2376 18-02-2020 11:57:17 7.5 C 29 %
2377 18-02-2020 12:07:17 7.8 C 29 %
2378 18-02-2020 12:17:18 8.1 C 29 %
2379 18-02-2020 12:27:18 8 C 28 %
2380 18-02-2020 12:37:17 7.9 C 28 %
2381 18-02-2020 12:47:17 8.5 C 28 %
2382 18-02-2020 12:57:17 9.7 C 25 %
2383 18-02-2020 13:07:17 10 C 20 %
2384 18-02-2020 13:17:17 8.5 C 25 %
2385 18-02-2020 13:27:17 7.8 C 26 %
2386 18-02-2020 13:37:18 8.6 C 26 %
2387 18-02-2020 13:47:17 9.2 C 25 %
2388 18-02-2020 13:57:17 8.2 C 26 %
2389 18-02-2020 14:07:18 8.4 C 26 %
2390 18-02-2020 14:17:17 8.1 C 26 %
2391 18-02-2020 14:27:17 8.1 C 26 %
2392 18-02-2020 14:37:17 8 C 26 %
2393 18-02-2020 14:47:17 8.1 C 26 %
2394 18-02-2020 14:57:17 9 C 25 %
2395 18-02-2020 15:07:17 8.5 C 25 %
2396 18-02-2020 15:17:17 8.8 C 26 %
2397 18-02-2020 15:27:17 8.5 C 25 %
2398 18-02-2020 15:37:18 8.4 C 25 %
2399 18-02-2020 15:47:18 8.3 C 26 %
2400 18-02-2020 15:57:18 8.9 C 25 %
Sensor: Nr:Datum:Temp:Feuchte:
Aussen-T/F 2401 18-02-2020 16:07:18 8.4 C 25 %
2402 18-02-2020 16:17:18 8.2 C 26 %
2403 18-02-2020 16:27:18 8.1 C 26 %
2404 18-02-2020 16:37:17 8.1 C 26 %
2405 18-02-2020 16:47:17 7.9 C 26 %
2406 18-02-2020 16:57:17 7.8 C 26 %
2407 18-02-2020 17:07:17 7.8 C 27 %
2408 18-02-2020 17:17:18 7.9 C 26 %
2409 18-02-2020 17:27:18 7.9 C 26 %
2410 18-02-2020 17:37:18 7.7 C 27 %
2411 18-02-2020 17:47:17 7.6 C 27 %
2412 18-02-2020 17:57:18 7.6 C 27 %
2413 18-02-2020 18:07:18 7.4 C 29 %
2414 18-02-2020 18:17:18 7 C 29 %
2415 18-02-2020 18:27:18 7 C 30 %
2416 18-02-2020 18:37:17 6.4 C 31 %
2417 18-02-2020 18:47:18 6.6 C 31 %
2418 18-02-2020 18:57:18 6.1 C 32 %
2419 18-02-2020 19:07:18 5.8 C 33 %
2420 18-02-2020 19:17:17 5.3 C 34 %
2421 18-02-2020 19:27:17 5.5 C 35 %
2422 18-02-2020 19:37:17 5.5 C 35 %
2423 18-02-2020 19:47:17 5.9 C 34 %
2424 18-02-2020 19:57:17 5.7 C 34 %
2425 18-02-2020 20:07:18 5.5 C 34 %
Sensor: Nr:Datum:Temp:Feuchte:
Aussen-T/F 2426 18-02-2020 20:17:18 5.7 C 35 %
2427 18-02-2020 20:27:18 6.4 C 33 %
2428 18-02-2020 20:37:17 6.7 C 32 %
2429 18-02-2020 20:47:17 6.5 C 32 %
2430 18-02-2020 20:57:17 6 C 33 %
2431 18-02-2020 21:07:17 6.3 C 33 %
2432 18-02-2020 21:17:17 6.3 C 33 %
2433 18-02-2020 21:27:17 6.5 C 32 %
2434 18-02-2020 21:37:17 6.3 C 33 %
2435 18-02-2020 21:47:17 6.2 C 33 %
2436 18-02-2020 21:57:17 6.5 C 33 %
2437 18-02-2020 22:07:17 6.9 C 32 %
2438 18-02-2020 22:17:17 6.9 C 33 %
2439 18-02-2020 22:27:17 7 C 32 %
2440 18-02-2020 22:37:17 6.9 C 33 %
2441 18-02-2020 22:47:17 6.8 C 33 %
2442 18-02-2020 22:57:17 6.8 C 33 %
2443 18-02-2020 23:07:18 6.7 C 33 %
2444 18-02-2020 23:17:17 6.5 C 33 %
2445 18-02-2020 23:27:17 6.2 C 34 %
2446 18-02-2020 23:37:18 6.1 C 34 %
2447 18-02-2020 23:47:17 6.4 C 34 %
2448 18-02-2020 23:57:17 6.2 C 34 %
2449 19-02-2020 00:07:18 6.8 C 33 %
2450 19-02-2020 00:17:17 6.8 C 33 %
Sensor: Nr:Datum:Temp:Feuchte:
Aussen-T/F 2451 19-02-2020 00:27:17 6.7 C 32 %
2452 19-02-2020 00:37:17 6.9 C 32 %
2453 19-02-2020 00:47:17 7 C 31 %
2454 19-02-2020 00:57:17 6.8 C 32 %
2455 19-02-2020 01:07:17 7 C 32 %
2456 19-02-2020 01:17:17 7 C 31 %
2457 19-02-2020 01:27:17 6.8 C 32 %
2458 19-02-2020 01:37:17 7 C 31 %
2459 19-02-2020 01:47:17 6.8 C 32 %
2460 19-02-2020 01:57:17 7 C 31 %
2461 19-02-2020 02:07:18 6.9 C 32 %
2462 19-02-2020 02:17:17 7.2 C 31 %
2463 19-02-2020 02:27:17 7 C 31 %
2464 19-02-2020 02:37:17 6.8 C 32 %
2465 19-02-2020 02:47:18 6.8 C 32 %
2466 19-02-2020 02:57:18 6.9 C 32 %
2467 19-02-2020 03:07:17 6.9 C 32 %
2468 19-02-2020 03:17:17 6.7 C 33 %
2469 19-02-2020 03:27:17 6.6 C 33 %
2470 19-02-2020 03:37:17 6.4 C 34 %
2471 19-02-2020 03:47:17 6.2 C 35 %
2472 19-02-2020 03:57:17 5.9 C 36 %
2473 19-02-2020 04:07:18 6 C 36 %
2474 19-02-2020 04:17:17 6 C 36 %
2475 19-02-2020 04:27:18 5.9 C 37 %
Sensor: Nr:Datum:Temp:Feuchte:
Aussen-T/F 2476 19-02-2020 04:37:18 5.8 C 37 %
2477 19-02-2020 04:47:17 5.9 C 37 %
2478 19-02-2020 04:57:17 6.2 C 36 %
2479 19-02-2020 05:07:18 6.3 C 36 %
2480 19-02-2020 05:17:17 6.4 C 35 %
2481 19-02-2020 05:27:17 6.4 C 35 %
2482 19-02-2020 05:37:17 6.3 C 35 %
2483 19-02-2020 05:47:17 6.3 C 34 %
2484 19-02-2020 05:57:17 6 C 34 %
2485 19-02-2020 06:07:18 6 C 34 %
2486 19-02-2020 06:17:17 5.9 C 35 %
2487 19-02-2020 06:27:17 5.9 C 35 %
2488 19-02-2020 06:37:18 5.8 C 35 %
2489 19-02-2020 06:47:17 5.7 C 35 %
2490 19-02-2020 06:57:17 5.4 C 35 %
2491 19-02-2020 07:07:17 5.4 C 34 %
2492 19-02-2020 07:17:17 5.6 C 34 %
2493 19-02-2020 07:27:18 5.6 C 34 %
2494 19-02-2020 07:37:18 5.3 C 35 %
2495 19-02-2020 07:47:18 5.4 C 34 %
2496 19-02-2020 07:57:18 5.3 C 34 %
2497 19-02-2020 08:07:18 5.2 C 33 %
2498 19-02-2020 08:17:17 5.3 C 34 %
2499 19-02-2020 08:27:17 4.9 C 35 %
2500 19-02-2020 08:37:17 4.9 C 34 %
Sensor: Nr:Datum:Temp:Feuchte:
Aussen-T/F 2501 19-02-2020 08:47:17 4.8 C 34 %
2502 19-02-2020 08:57:17 5 C 33 %
2503 19-02-2020 09:07:17 5.1 C 33 %
2504 19-02-2020 09:17:18 4.9 C 34 %
2505 19-02-2020 09:27:18 5.1 C 33 %
2506 19-02-2020 09:37:18 5.3 C 32 %
2507 19-02-2020 09:47:17 5.3 C 32 %
2508 19-02-2020 09:57:17 5.1 C 33 %
2509 19-02-2020 10:07:18 4.2 C 35 %
2510 19-02-2020 10:17:17 4.7 C 34 %
2511 19-02-2020 10:27:17 5.2 C 33 %
2512 19-02-2020 10:37:17 5.7 C 32 %
2513 19-02-2020 10:47:17 5.8 C 31 %
2514 19-02-2020 10:57:17 5.9 C 31 %
2515 19-02-2020 11:07:18 6.4 C 31 %
2516 19-02-2020 11:17:17 6.9 C 30 %
2517 19-02-2020 11:27:17 6.7 C 30 %
2518 19-02-2020 11:37:17 6.4 C 28 %
2519 19-02-2020 11:47:18 6.5 C 27 %
2520 19-02-2020 11:57:18 6.6 C 27 %
2521 19-02-2020 12:07:18 6.7 C 27 %
2522 19-02-2020 12:17:17 6.6 C 26 %
2523 19-02-2020 12:27:18 6.8 C 26 %
2524 19-02-2020 12:37:18 6.8 C 25 %
2525 19-02-2020 12:47:18 6.9 C 25 %
Sensor: Nr:Datum:Temp:Feuchte:
Aussen-T/F 2526 19-02-2020 12:57:18 7 C 25 %
2527 19-02-2020 13:07:17 7.2 C 25 %
2528 19-02-2020 13:17:17 7.1 C 20 %
2529 19-02-2020 13:27:17 7.1 C 20 %
2530 19-02-2020 13:37:18 7.3 C 20 %
2531 19-02-2020 13:47:18 7.8 C 20 %
2532 19-02-2020 13:57:18 7.7 C 20 %
2533 19-02-2020 14:07:17 7.7 C 20 %
2534 19-02-2020 14:17:17 7.7 C 20 %
2535 19-02-2020 14:27:17 7.4 C 20 %
2536 19-02-2020 14:37:17 7.1 C 20 %
2537 19-02-2020 14:47:18 7.2 C 20 %
2538 19-02-2020 14:57:18 7.2 C 20 %
2539 19-02-2020 15:07:17 8.1 C 20 %
2540 19-02-2020 15:17:17 8.2 C 20 %
2541 19-02-2020 15:27:17 8.3 C 20 %
2542 19-02-2020 15:37:17 7.5 C 20 %
2543 19-02-2020 15:47:17 7.6 C 20 %
2544 19-02-2020 15:57:17 8.5 C 20 %
2545 19-02-2020 16:07:17 8 C 20 %
2546 19-02-2020 16:17:17 8.2 C 20 %
2547 19-02-2020 16:27:17 7.9 C 20 %
2548 19-02-2020 16:37:18 7.5 C 20 %
2549 19-02-2020 16:47:18 7.4 C 20 %
2550 19-02-2020 16:57:18 7.2 C 20 %
Sensor: Nr:Datum:Temp:Feuchte:
Aussen-T/F 2551 19-02-2020 17:07:18 7.1 C 20 %
2552 19-02-2020 17:17:18 6.9 C 20 %
2553 19-02-2020 17:27:18 6.5 C 20 %
2554 19-02-2020 17:37:17 6.2 C 20 %
2555 19-02-2020 17:47:18 5.6 C 20 %
2556 19-02-2020 17:57:18 5 C 23 %
2557 19-02-2020 18:07:17 4.5 C 28 %
2558 19-02-2020 18:17:17 4.5 C 28 %
2559 19-02-2020 18:27:17 4.2 C 30 %
2560 19-02-2020 18:37:17 3.7 C 32 %
2561 19-02-2020 18:47:17 3.3 C 32 %
2562 19-02-2020 18:57:17 2.9 C 34 %
2563 19-02-2020 19:07:17 2.8 C 35 %
2564 19-02-2020 19:17:17 2.4 C 35 %
2565 19-02-2020 19:27:17 2.3 C 35 %
2566 19-02-2020 19:37:17 2 C 35 %
2567 19-02-2020 19:47:17 1.7 C 37 %
2568 19-02-2020 19:57:17 2 C 36 %
2569 19-02-2020 20:07:17 1.7 C 37 %
2570 19-02-2020 20:17:17 1.8 C 37 %
2571 19-02-2020 20:27:17 2.1 C 35 %
2572 19-02-2020 20:37:17 2 C 35 %
2573 19-02-2020 20:47:17 2.2 C 35 %
2574 19-02-2020 20:57:17 2.8 C 35 %
2575 19-02-2020 21:07:18 3.4 C 33 %
Sensor: Nr:Datum:Temp:Feuchte:
Aussen-T/F 2576 19-02-2020 21:17:17 3.4 C 33 %
2577 19-02-2020 21:27:17 3 C 33 %
2578 19-02-2020 21:37:17 4 C 31 %
2579 19-02-2020 21:47:17 4.1 C 31 %
2580 19-02-2020 21:57:17 4.5 C 31 %
2581 19-02-2020 22:07:17 4.9 C 31 %
2582 19-02-2020 22:17:18 5.5 C 30 %
2583 19-02-2020 22:27:18 5.5 C 30 %
2584 19-02-2020 22:37:18 5.5 C 30 %
2585 19-02-2020 22:47:17 5.2 C 30 %
2586 19-02-2020 22:57:18 5.1 C 31 %
2587 19-02-2020 23:07:18 4.6 C 33 %
2588 19-02-2020 23:17:17 4.5 C 35 %
2589 19-02-2020 23:27:17 4.2 C 37 %
2590 19-02-2020 23:37:17 4.3 C 37 %
2591 19-02-2020 23:47:17 4.6 C 36 %
2592 19-02-2020 23:57:17 4.6 C 36 %
2593 20-02-2020 00:07:17 4.9 C 36 %
2594 20-02-2020 00:17:17 4.9 C 36 %
2595 20-02-2020 00:27:18 5.2 C 35 %
2596 20-02-2020 00:37:18 5.4 C 35 %
2597 20-02-2020 00:47:17 5.5 C 35 %
2598 20-02-2020 00:57:17 4.9 C 36 %
2599 20-02-2020 01:07:17 4.8 C 38 %
2600 20-02-2020 01:17:17 4.8 C 38 %
Sensor: Nr:Datum:Temp:Feuchte:
Aussen-T/F 2601 20-02-2020 01:27:18 4.8 C 38 %
2602 20-02-2020 01:37:18 5 C 37 %
2603 20-02-2020 01:47:17 5.3 C 37 %
2604 20-02-2020 01:57:17 5.4 C 36 %
2605 20-02-2020 02:07:18 5.6 C 36 %
2606 20-02-2020 02:17:17 5.6 C 36 %
2607 20-02-2020 02:27:17 5.8 C 36 %
2608 20-02-2020 02:37:17 5.7 C 35 %
2609 20-02-2020 02:47:17 5.8 C 35 %
2610 20-02-2020 02:57:17 5.9 C 35 %
2611 20-02-2020 03:07:17 6 C 35 %
2612 20-02-2020 03:17:17 6.2 C 35 %
2613 20-02-2020 03:27:17 6.3 C 35 %
2614 20-02-2020 03:37:18 6.3 C 35 %
2615 20-02-2020 03:47:17 6.4 C 35 %
2616 20-02-2020 03:57:17 6.3 C 35 %
2617 20-02-2020 04:07:18 6.4 C 35 %
2618 20-02-2020 04:17:17 6.5 C 35 %
2619 20-02-2020 04:27:17 6.5 C 35 %
2620 20-02-2020 04:37:17 6.6 C 35 %
2621 20-02-2020 04:47:18 6.5 C 35 %
2622 20-02-2020 04:57:18 6.5 C 35 %
2623 20-02-2020 05:07:18 6.5 C 35 %
2624 20-02-2020 05:17:17 6.5 C 35 %
2625 20-02-2020 05:27:17 6.5 C 35 %
Sensor: Nr:Datum:Temp:Feuchte:
Aussen-T/F 2626 20-02-2020 05:37:17 6.7 C 35 %
2627 20-02-2020 05:47:17 6.5 C 35 %
2628 20-02-2020 05:57:17 6.6 C 35 %
2629 20-02-2020 06:07:17 6.5 C 35 %
2630 20-02-2020 06:17:17 6.3 C 36 %
2631 20-02-2020 06:27:17 6.3 C 36 %
2632 20-02-2020 06:37:17 6.5 C 36 %
2633 20-02-2020 06:47:17 6.6 C 36 %
2634 20-02-2020 06:57:17 6.5 C 36 %
2635 20-02-2020 07:07:17 6.5 C 36 %
2636 20-02-2020 07:17:17 6.3 C 37 %
2637 20-02-2020 07:27:17 6.5 C 37 %
2638 20-02-2020 07:37:17 6.6 C 36 %
2639 20-02-2020 07:47:17 6.7 C 36 %
2640 20-02-2020 07:57:17 6.6 C 37 %
2641 20-02-2020 08:07:17 6.5 C 37 %
2642 20-02-2020 08:17:17 6.6 C 37 %
2643 20-02-2020 08:27:17 6.6 C 37 %
2644 20-02-2020 08:37:17 6.6 C 37 %
2645 20-02-2020 08:47:18 6.7 C 37 %
2646 20-02-2020 08:57:18 6.8 C 37 %
2647 20-02-2020 09:07:18 7.2 C 36 %
2648 20-02-2020 09:17:18 7.3 C 36 %
2649 20-02-2020 09:27:18 7.6 C 35 %
2650 20-02-2020 09:37:17 7.8 C 35 %
Sensor: Nr:Datum:Temp:Feuchte:
Aussen-T/F 2651 20-02-2020 09:47:17 7.9 C 35 %
2652 20-02-2020 09:57:17 8.1 C 34 %
2653 20-02-2020 10:07:18 8.1 C 34 %
2654 20-02-2020 10:17:17 8.3 C 34 %
2655 20-02-2020 10:27:17 8.5 C 33 %
2656 20-02-2020 10:37:17 9 C 32 %
2657 20-02-2020 10:47:17 8.8 C 32 %
2658 20-02-2020 10:57:17 8.9 C 32 %
2659 20-02-2020 11:07:18 9.1 C 32 %
2660 20-02-2020 11:17:18 10.1 C 30 %
2661 20-02-2020 11:27:18 10 C 30 %
2662 20-02-2020 11:37:18 9.4 C 30 %
2663 20-02-2020 11:47:17 9.1 C 30 %
2664 20-02-2020 11:57:18 9.2 C 30 %
2665 20-02-2020 12:07:18 9.3 C 30 %
2666 20-02-2020 12:17:18 9.8 C 30 %
2667 20-02-2020 12:27:18 10.1 C 28 %
2668 20-02-2020 12:37:18 9.2 C 30 %
2669 20-02-2020 12:47:18 8.2 C 33 %
2670 20-02-2020 12:57:18 8.6 C 33 %
2671 20-02-2020 13:07:18 9.1 C 32 %
2672 20-02-2020 13:17:18 9.7 C 31 %
2673 20-02-2020 13:27:18 9.6 C 30 %
2674 20-02-2020 13:37:18 9.6 C 30 %
2675 20-02-2020 13:47:17 9.4 C 31 %
Sensor: Nr:Datum:Temp:Feuchte:
Aussen-T/F 2676 20-02-2020 13:57:17 10.3 C 29 %
2677 20-02-2020 14:07:17 10.2 C 29 %
2678 20-02-2020 14:17:17 10.1 C 28 %
2679 20-02-2020 14:27:18 10 C 28 %
2680 20-02-2020 14:37:18 10.7 C 28 %
2681 20-02-2020 14:47:17 9.8 C 29 %
2682 20-02-2020 14:57:17 9.8 C 29 %
2683 20-02-2020 15:07:18 9.6 C 30 %
2684 20-02-2020 15:17:17 10.1 C 28 %
2685 20-02-2020 15:27:18 10.1 C 28 %
2686 20-02-2020 15:37:18 10.5 C 28 %
2687 20-02-2020 15:47:17 10.5 C 28 %
2688 20-02-2020 15:57:17 9.6 C 29 %
2689 20-02-2020 16:07:17 9.5 C 29 %
2690 20-02-2020 16:17:17 9.5 C 29 %
2691 20-02-2020 16:27:18 9.3 C 29 %
2692 20-02-2020 16:37:18 9.1 C 30 %
2693 20-02-2020 16:47:17 9.1 C 29 %
2694 20-02-2020 16:57:17 9.1 C 29 %
2695 20-02-2020 17:07:18 9 C 29 %
2696 20-02-2020 17:17:17 9.2 C 29 %
2697 20-02-2020 17:27:18 9.2 C 29 %
2698 20-02-2020 17:37:18 9.2 C 29 %
2699 20-02-2020 17:47:17 9.1 C 29 %
2700 20-02-2020 17:57:17 9.1 C 29 %
Sensor: Nr:Datum:Temp:Feuchte:
Aussen-T/F 2701 20-02-2020 18:07:18 9.1 C 29 %
2702 20-02-2020 18:17:18 9 C 29 %
2703 20-02-2020 18:27:18 8.9 C 30 %
2704 20-02-2020 18:37:18 8.3 C 30 %
2705 20-02-2020 18:47:18 8.1 C 31 %
2706 20-02-2020 18:57:18 7.7 C 33 %
2707 20-02-2020 19:07:18 7.7 C 33 %
2708 20-02-2020 19:17:18 7.8 C 32 %
2709 20-02-2020 19:27:18 8.1 C 31 %
2710 20-02-2020 19:37:17 8.6 C 30 %
2711 20-02-2020 19:47:18 9 C 30 %
2712 20-02-2020 19:57:18 9.1 C 30 %
2713 20-02-2020 20:07:18 9 C 30 %
2714 20-02-2020 20:17:18 9 C 30 %
2715 20-02-2020 20:27:18 9.3 C 29 %
2716 20-02-2020 20:37:18 9.3 C 29 %
2717 20-02-2020 20:47:18 9.2 C 29 %
2718 20-02-2020 20:57:18 9.2 C 29 %
2719 20-02-2020 21:07:18 8.8 C 30 %
2720 20-02-2020 21:17:18 8.6 C 30 %
2721 20-02-2020 21:27:18 8.6 C 31 %
2722 20-02-2020 21:37:18 8.2 C 31 %
2723 20-02-2020 21:47:17 8.2 C 32 %
2724 20-02-2020 21:57:18 7.8 C 33 %
2725 20-02-2020 22:07:18 7.9 C 33 %
Sensor: Nr:Datum:Temp:Feuchte:
Aussen-T/F 2726 20-02-2020 22:17:17 7.8 C 35 %
2727 20-02-2020 22:27:18 7.4 C 35 %
2728 20-02-2020 22:37:18 7.1 C 38 %
2729 20-02-2020 22:47:18 6 C 37 %
2730 20-02-2020 22:57:18 5.8 C 37 %
2731 20-02-2020 23:07:18 5.7 C 39 %
2732 20-02-2020 23:17:18 5.8 C 37 %
2733 20-02-2020 23:27:18 5.8 C 37 %
2734 20-02-2020 23:37:17 6.1 C 35 %
2735 20-02-2020 23:47:17 5.9 C 35 %
2736 20-02-2020 23:57:17 5.2 C 35 %
2737 21-02-2020 00:07:17 4.6 C 38 %
2738 21-02-2020 00:17:18 4.5 C 39 %
2739 21-02-2020 00:27:18 4.4 C 37 %
2740 21-02-2020 00:37:18 4.8 C 36 %
2741 21-02-2020 00:47:18 4.7 C 35 %
2742 21-02-2020 00:57:18 4.6 C 35 %
2743 21-02-2020 01:07:18 4.5 C 35 %
2744 21-02-2020 01:17:17 4.1 C 35 %
2745 21-02-2020 01:27:17 4.1 C 34 %
2746 21-02-2020 01:37:17 4 C 34 %
2747 21-02-2020 01:47:17 3.6 C 35 %
2748 21-02-2020 01:57:17 3.6 C 35 %
2749 21-02-2020 02:07:18 3.5 C 35 %
2750 21-02-2020 02:17:18 3.8 C 35 %
Sensor: Nr:Datum:Temp:Feuchte:
Aussen-T/F 2751 21-02-2020 02:27:18 3.4 C 36 %
2752 21-02-2020 02:37:18 4 C 35 %
2753 21-02-2020 02:47:17 3.9 C 35 %
2754 21-02-2020 02:57:18 3.6 C 35 %
2755 21-02-2020 03:07:18 4 C 34 %
2756 21-02-2020 03:17:18 3.3 C 35 %
2757 21-02-2020 03:27:18 2.9 C 37 %
2758 21-02-2020 03:37:18 2.4 C 39 %
2759 21-02-2020 03:47:17 2.7 C 38 %
2760 21-02-2020 03:57:17 2.1 C 40 %
2761 21-02-2020 04:07:18 2.1 C 40 %
2762 21-02-2020 04:17:18 2.2 C 39 %
2763 21-02-2020 04:27:18 2.4 C 39 %
2764 21-02-2020 04:37:18 2 C 40 %
2765 21-02-2020 04:47:17 2.5 C 39 %
2766 21-02-2020 04:57:17 2.3 C 39 %
2767 21-02-2020 05:07:17 2 C 39 %
2768 21-02-2020 05:17:17 1.6 C 41 %
2769 21-02-2020 05:27:17 2.1 C 39 %
2770 21-02-2020 05:37:17 2.5 C 38 %
2771 21-02-2020 05:47:17 1.9 C 40 %
2772 21-02-2020 05:57:17 2.4 C 38 %
2773 21-02-2020 06:07:17 2.3 C 38 %
2774 21-02-2020 06:17:17 1.7 C 40 %
2775 21-02-2020 06:27:17 1.9 C 40 %
Sensor: Nr:Datum:Temp:Feuchte:
Aussen-T/F 2776 21-02-2020 06:37:18 1.4 C 41 %
2777 21-02-2020 06:47:17 1.6 C 40 %
2778 21-02-2020 06:57:17 2.1 C 38 %
2779 21-02-2020 07:07:17 2.4 C 37 %
2780 21-02-2020 07:17:18 2.8 C 36 %
2781 21-02-2020 07:27:18 2.7 C 36 %
2782 21-02-2020 07:37:18 3 C 35 %
2783 21-02-2020 07:47:17 2.5 C 36 %
2784 21-02-2020 07:57:17 2.2 C 37 %
2785 21-02-2020 08:07:17 1.5 C 39 %
2786 21-02-2020 08:17:17 1.3 C 40 %
2787 21-02-2020 08:27:17 1.1 C 40 %
2788 21-02-2020 08:37:17 1.7 C 40 %
2789 21-02-2020 08:47:17 2.2 C 38 %
2790 21-02-2020 08:57:17 2.7 C 37 %
2791 21-02-2020 09:07:17 2.6 C 37 %
2792 21-02-2020 09:17:17 3.1 C 36 %
2793 21-02-2020 09:27:17 2.9 C 37 %
2794 21-02-2020 09:37:17 2.9 C 36 %
2795 21-02-2020 09:47:17 3.1 C 36 %
2796 21-02-2020 09:57:17 3.6 C 35 %
2797 21-02-2020 10:07:17 3.5 C 36 %
2798 21-02-2020 10:17:17 3.5 C 36 %
2799 21-02-2020 10:27:17 3.9 C 35 %
2800 21-02-2020 10:37:18 4.5 C 34 %
Sensor: Nr:Datum:Temp:Feuchte:
Aussen-T/F 2801 21-02-2020 10:47:17 4.7 C 34 %
2802 21-02-2020 10:57:17 4.8 C 34 %
2803 21-02-2020 11:07:18 5.9 C 32 %
2804 21-02-2020 11:17:17 6.3 C 31 %
2805 21-02-2020 11:27:17 6.8 C 30 %
2806 21-02-2020 11:37:18 5.9 C 31 %
2807 21-02-2020 11:47:17 6.7 C 30 %
2808 21-02-2020 11:57:17 7.1 C 30 %
2809 21-02-2020 12:07:18 7.3 C 30 %
2810 21-02-2020 12:17:18 7.3 C 29 %
2811 21-02-2020 12:27:18 7.3 C 29 %
2812 21-02-2020 12:37:18 7.4 C 29 %
2813 21-02-2020 12:47:17 7.4 C 29 %
2814 21-02-2020 12:57:17 7.9 C 30 %
2815 21-02-2020 13:07:17 8.3 C 27 %
2816 21-02-2020 13:17:18 7.8 C 27 %
2817 21-02-2020 13:27:18 8.9 C 27 %
2818 21-02-2020 13:37:18 8.2 C 27 %
2819 21-02-2020 13:47:17 7.5 C 27 %
2820 21-02-2020 13:57:17 7.9 C 27 %
2821 21-02-2020 14:07:18 7.8 C 27 %
2822 21-02-2020 14:17:17 7.9 C 27 %
2823 21-02-2020 14:27:18 8.8 C 27 %
2824 21-02-2020 14:37:18 8.4 C 27 %
2825 21-02-2020 14:47:17 8.7 C 27 %
Sensor: Nr:Datum:Temp:Feuchte:
Aussen-T/F 2826 21-02-2020 14:57:17 9 C 26 %
2827 21-02-2020 15:07:18 9 C 26 %
2828 21-02-2020 15:17:18 8.4 C 26 %
2829 21-02-2020 15:27:18 8.7 C 26 %
2830 21-02-2020 15:37:18 8.1 C 26 %
2831 21-02-2020 15:47:17 8.3 C 26 %
2832 21-02-2020 15:57:17 8.3 C 26 %
2833 21-02-2020 16:07:17 8.1 C 26 %
2834 21-02-2020 16:17:17 8 C 27 %
2835 21-02-2020 16:27:17 8 C 26 %
2836 21-02-2020 16:37:17 8.1 C 26 %
2837 21-02-2020 16:47:17 7.9 C 26 %
2838 21-02-2020 16:57:17 7.9 C 26 %
2839 21-02-2020 17:07:18 7.7 C 26 %
2840 21-02-2020 17:17:17 7.3 C 26 %
2841 21-02-2020 17:27:17 7.3 C 26 %
2842 21-02-2020 17:37:18 6.8 C 28 %
2843 21-02-2020 17:47:17 6.5 C 28 %
2844 21-02-2020 17:57:18 6.4 C 29 %
2845 21-02-2020 18:07:18 5.9 C 30 %
2846 21-02-2020 18:17:17 5.6 C 31 %
2847 21-02-2020 18:27:17 4.9 C 33 %
2848 21-02-2020 18:37:17 4.5 C 33 %
2849 21-02-2020 18:47:17 4.3 C 34 %
2850 21-02-2020 18:57:17 4.2 C 34 %
Sensor: Nr:Datum:Temp:Feuchte:
Aussen-T/F 2851 21-02-2020 19:07:17 4.7 C 34 %
2852 21-02-2020 19:17:17 4 C 34 %
2853 21-02-2020 19:27:17 4 C 35 %
2854 21-02-2020 19:37:17 3.8 C 35 %
2855 21-02-2020 19:47:17 4 C 34 %
2856 21-02-2020 19:57:17 4.7 C 33 %
2857 21-02-2020 20:07:18 4.9 C 33 %
2858 21-02-2020 20:17:18 4.4 C 33 %
2859 21-02-2020 20:27:18 4.4 C 33 %
2860 21-02-2020 20:37:18 5.6 C 31 %
2861 21-02-2020 20:47:17 5.8 C 31 %
2862 21-02-2020 20:57:17 5.7 C 31 %
2863 21-02-2020 21:07:18 5.4 C 31 %
2864 21-02-2020 21:17:18 5.1 C 31 %
2865 21-02-2020 21:27:18 4.9 C 32 %
2866 21-02-2020 21:37:18 4.3 C 34 %
2867 21-02-2020 21:47:18 4.3 C 35 %
2868 21-02-2020 21:57:18 4.6 C 34 %
2869 21-02-2020 22:07:18 4 C 35 %
2870 21-02-2020 22:17:17 3.4 C 36 %
2871 21-02-2020 22:27:17 3.6 C 38 %
2872 21-02-2020 22:37:17 3.8 C 37 %
2873 21-02-2020 22:47:17 3.7 C 37 %
2874 21-02-2020 22:57:17 3.2 C 37 %
2875 21-02-2020 23:07:17 3 C 38 %
Sensor: Nr:Datum:Temp:Feuchte:
Aussen-T/F 2876 21-02-2020 23:17:17 3.6 C 38 %
2877 21-02-2020 23:27:18 3.3 C 38 %
2878 21-02-2020 23:37:18 3.9 C 37 %
2879 21-02-2020 23:47:18 4.2 C 36 %
2880 21-02-2020 23:57:18 4 C 36 %
2881 22-02-2020 00:07:18 3.3 C 37 %
2882 22-02-2020 00:17:17 3.4 C 38 %
2883 22-02-2020 00:27:17 3.7 C 37 %
2884 22-02-2020 00:37:17 3.8 C 37 %
2885 22-02-2020 00:47:18 4.1 C 36 %
2886 22-02-2020 00:57:18 3.6 C 37 %
2887 22-02-2020 01:07:18 3.8 C 37 %
2888 22-02-2020 01:17:18 4 C 35 %
2889 22-02-2020 01:27:18 3.8 C 37 %
2890 22-02-2020 01:37:18 3.4 C 37 %
2891 22-02-2020 01:47:17 3.1 C 37 %
2892 22-02-2020 01:57:18 3.1 C 38 %
2893 22-02-2020 02:07:18 4.6 C 36 %
2894 22-02-2020 02:17:18 4.7 C 35 %
2895 22-02-2020 02:27:18 4.4 C 35 %
2896 22-02-2020 02:37:17 4.8 C 35 %
2897 22-02-2020 02:47:17 5.1 C 34 %
2898 22-02-2020 02:57:17 4.7 C 35 %
2899 22-02-2020 03:07:17 4.8 C 35 %
2900 22-02-2020 03:17:17 5 C 34 %
Sensor: Nr:Datum:Temp:Feuchte:
Aussen-T/F 2901 22-02-2020 03:27:17 4.7 C 35 %
2902 22-02-2020 03:37:17 5.2 C 34 %
2903 22-02-2020 03:47:17 4.9 C 35 %
2904 22-02-2020 03:57:18 4.6 C 35 %
2905 22-02-2020 04:07:18 4.5 C 35 %
2906 22-02-2020 04:17:18 4.7 C 35 %
2907 22-02-2020 04:27:18 4.2 C 35 %
2908 22-02-2020 04:37:18 4.2 C 35 %
2909 22-02-2020 04:47:17 4.7 C 35 %
2910 22-02-2020 04:57:18 5 C 34 %
2911 22-02-2020 05:07:18 5 C 34 %
2912 22-02-2020 05:17:18 5.2 C 34 %
2913 22-02-2020 05:27:18 5.4 C 34 %
2914 22-02-2020 05:37:17 5.4 C 33 %
2915 22-02-2020 05:47:18 5.4 C 33 %
2916 22-02-2020 05:57:18 5.2 C 34 %
2917 22-02-2020 06:07:18 5.2 C 33 %
2918 22-02-2020 06:17:17 5.3 C 34 %
2919 22-02-2020 06:27:17 5.3 C 34 %
2920 22-02-2020 06:37:17 5.5 C 33 %
2921 22-02-2020 06:47:18 5.3 C 33 %
2922 22-02-2020 06:57:18 5.4 C 33 %
2923 22-02-2020 07:07:18 5.2 C 33 %
2924 22-02-2020 07:17:18 5 C 33 %
2925 22-02-2020 07:27:18 5 C 34 %
Sensor: Nr:Datum:Temp:Feuchte:
Aussen-T/F 2926 22-02-2020 07:37:18 4.8 C 35 %
2927 22-02-2020 07:47:17 5.3 C 34 %
2928 22-02-2020 07:57:18 5 C 34 %
2929 22-02-2020 08:07:18 5.4 C 33 %
2930 22-02-2020 08:17:18 5.4 C 33 %
2931 22-02-2020 08:27:18 5.2 C 33 %
2932 22-02-2020 08:37:18 5.4 C 33 %
2933 22-02-2020 08:47:17 5.7 C 33 %
2934 22-02-2020 08:57:17 5.9 C 33 %
2935 22-02-2020 09:07:17 6.1 C 32 %
2936 22-02-2020 09:17:17 6.3 C 32 %
2937 22-02-2020 09:27:17 6.4 C 32 %
2938 22-02-2020 09:37:17 6.4 C 31 %
2939 22-02-2020 09:47:17 6.5 C 31 %
2940 22-02-2020 09:57:17 6.9 C 31 %
2941 22-02-2020 10:07:17 7 C 30 %
2942 22-02-2020 10:17:17 7.2 C 30 %
2943 22-02-2020 10:27:17 7.2 C 30 %
2944 22-02-2020 10:37:17 7.3 C 30 %
2945 22-02-2020 10:47:18 7.2 C 30 %
2946 22-02-2020 10:57:18 7.4 C 30 %
2947 22-02-2020 11:07:18 7.5 C 30 %
2948 22-02-2020 11:17:18 7.5 C 30 %
2949 22-02-2020 11:27:18 7.6 C 29 %
2950 22-02-2020 11:37:18 7.7 C 28 %
Sensor: Nr:Datum:Temp:Feuchte:
Aussen-T/F 2951 22-02-2020 11:47:17 7.9 C 28 %
2952 22-02-2020 11:57:17 8.1 C 27 %
2953 22-02-2020 12:07:18 8.4 C 27 %
2954 22-02-2020 12:17:18 8.5 C 26 %
2955 22-02-2020 12:27:18 8.6 C 27 %
2956 22-02-2020 12:37:18 8.8 C 26 %
2957 22-02-2020 12:47:18 8.8 C 26 %
2958 22-02-2020 12:57:18 9 C 25 %
2959 22-02-2020 13:07:18 9.3 C 25 %
2960 22-02-2020 13:17:18 9.7 C 25 %
2961 22-02-2020 13:27:18 10.2 C 21 %
2962 22-02-2020 13:37:18 10.2 C 20 %
2963 22-02-2020 13:47:17 10.2 C 20 %
2964 22-02-2020 13:57:18 10.2 C 20 %
2965 22-02-2020 14:07:18 10.2 C 20 %
2966 22-02-2020 14:17:17 10.1 C 20 %
2967 22-02-2020 14:27:18 10.1 C 20 %
2968 22-02-2020 14:37:18 10.2 C 20 %
2969 22-02-2020 14:47:17 10.2 C 20 %
2970 22-02-2020 14:57:17 10.1 C 20 %
2971 22-02-2020 15:07:17 10.2 C 20 %
2972 22-02-2020 15:17:17 10.2 C 20 %
2973 22-02-2020 15:27:18 10.4 C 20 %
2974 22-02-2020 15:37:18 10.6 C 21 %
2975 22-02-2020 15:47:17 10.7 C 20 %
Sensor: Nr:Datum:Temp:Feuchte:
Aussen-T/F 2976 22-02-2020 15:57:17 10.8 C 21 %
2977 22-02-2020 16:07:18 10.7 C 21 %
2978 22-02-2020 16:17:18 10.6 C 22 %
2979 22-02-2020 16:27:18 10.4 C 22 %
2980 22-02-2020 16:37:18 10.2 C 23 %
2981 22-02-2020 16:47:18 10.3 C 25 %
2982 22-02-2020 16:57:18 10.2 C 25 %
2983 22-02-2020 17:07:17 10.1 C 25 %
2984 22-02-2020 17:17:18 10.1 C 25 %
2985 22-02-2020 17:27:18 10.2 C 25 %
2986 22-02-2020 17:37:18 10.2 C 25 %
2987 22-02-2020 17:47:18 10.2 C 25 %
2988 22-02-2020 17:57:18 10 C 25 %
2989 22-02-2020 18:07:18 9.9 C 26 %
2990 22-02-2020 18:17:18 9.9 C 27 %
2991 22-02-2020 18:27:18 9.8 C 27 %
2992 22-02-2020 18:37:18 9.7 C 28 %
2993 22-02-2020 18:47:18 9.7 C 29 %
2994 22-02-2020 18:57:18 9.5 C 30 %
2995 22-02-2020 19:07:18 9.6 C 30 %
2996 22-02-2020 19:17:17 9.6 C 30 %
2997 22-02-2020 19:27:17 9.6 C 31 %
2998 22-02-2020 19:37:17 9.6 C 30 %
2999 22-02-2020 19:47:18 9.9 C 30 %
3000 22-02-2020 19:57:18 9.8 C 31 %
Sensor: Nr:Datum:Temp:Feuchte:
Aussen-T/F 3001 22-02-2020 20:07:18 10 C 30 %
3002 22-02-2020 20:17:18 9.9 C 31 %
3003 22-02-2020 20:27:18 10 C 30 %
3004 22-02-2020 20:37:18 9.9 C 31 %
3005 22-02-2020 20:47:17 10 C 31 %
3006 22-02-2020 20:57:17 9.9 C 32 %
3007 22-02-2020 21:07:18 9.9 C 32 %
3008 22-02-2020 21:17:17 10.2 C 31 %
3009 22-02-2020 21:27:17 10.2 C 31 %
3010 22-02-2020 21:37:18 10.3 C 31 %
3011 22-02-2020 21:47:17 10.2 C 31 %
3012 22-02-2020 21:57:17 10.3 C 31 %
3013 22-02-2020 22:07:17 10.4 C 31 %
3014 22-02-2020 22:17:17 10.6 C 31 %
3015 22-02-2020 22:27:17 10.7 C 31 %
3016 22-02-2020 22:37:18 10.7 C 31 %
3017 22-02-2020 22:47:17 10.6 C 31 %
3018 22-02-2020 22:57:17 10.5 C 31 %
3019 22-02-2020 23:07:17 10.5 C 31 %
3020 22-02-2020 23:17:17 10.5 C 31 %
3021 22-02-2020 23:27:17 10.5 C 31 %
3022 22-02-2020 23:37:17 10.5 C 31 %
3023 22-02-2020 23:47:17 10.6 C 31 %
3024 22-02-2020 23:57:18 10.5 C 31 %
3025 23-02-2020 00:07:18 10.7 C 31 %
Sensor: Nr:Datum:Temp:Feuchte:
Aussen-T/F 3026 23-02-2020 00:17:18 10.8 C 31 %
3027 23-02-2020 00:27:18 10 C 31 %
3028 23-02-2020 00:37:18 9.7 C 33 %
3029 23-02-2020 00:47:17 9.4 C 35 %
3030 23-02-2020 00:57:18 9.2 C 36 %
3031 23-02-2020 01:07:18 9 C 38 %
3032 23-02-2020 01:17:18 9.3 C 37 %
3033 23-02-2020 01:27:18 9.3 C 37 %
3034 23-02-2020 01:37:18 9.6 C 36 %
3035 23-02-2020 01:47:17 9.6 C 36 %
3036 23-02-2020 01:57:17 9.7 C 36 %
3037 23-02-2020 02:07:18 9.4 C 36 %
3038 23-02-2020 02:17:18 9.3 C 36 %
3039 23-02-2020 02:27:18 9.5 C 36 %
3040 23-02-2020 02:37:18 9.8 C 35 %
3041 23-02-2020 02:47:17 10 C 34 %
3042 23-02-2020 02:57:17 10 C 34 %
3043 23-02-2020 03:07:18 10 C 33 %
3044 23-02-2020 03:17:17 10.2 C 33 %
3045 23-02-2020 03:27:17 9.8 C 35 %
3046 23-02-2020 03:37:17 9.6 C 35 %
3047 23-02-2020 03:47:17 9.7 C 35 %
3048 23-02-2020 03:57:17 9.7 C 35 %
3049 23-02-2020 04:07:17 10.3 C 33 %
3050 23-02-2020 04:17:17 10.2 C 33 %
Sensor: Nr:Datum:Temp:Feuchte:
Aussen-T/F 3051 23-02-2020 04:27:17 10.1 C 33 %
3052 23-02-2020 04:37:17 10.2 C 33 %
3053 23-02-2020 04:47:17 10 C 33 %
3054 23-02-2020 04:57:17 10.1 C 33 %
3055 23-02-2020 05:07:18 9.6 C 35 %
3056 23-02-2020 05:17:17 9.8 C 35 %
3057 23-02-2020 05:27:17 10 C 34 %
3058 23-02-2020 05:37:18 10.2 C 34 %
3059 23-02-2020 05:47:17 10.2 C 34 %
3060 23-02-2020 05:57:17 9.6 C 35 %
3061 23-02-2020 06:07:18 9.5 C 35 %
3062 23-02-2020 06:17:17 9.7 C 35 %
3063 23-02-2020 06:27:17 9.8 C 35 %
3064 23-02-2020 06:37:18 10 C 34 %
3065 23-02-2020 06:47:17 9.7 C 35 %
3066 23-02-2020 06:57:17 9.3 C 35 %
3067 23-02-2020 07:07:18 9.3 C 35 %
3068 23-02-2020 07:17:18 9.5 C 36 %
3069 23-02-2020 07:27:18 9.8 C 35 %
3070 23-02-2020 07:37:18 9.6 C 36 %
3071 23-02-2020 07:47:17 9.6 C 36 %
3072 23-02-2020 07:57:17 9.8 C 36 %
3073 23-02-2020 08:07:17 9.8 C 36 %
3074 23-02-2020 08:17:17 9.8 C 36 %
3075 23-02-2020 08:27:17 10.1 C 35 %
Sensor: Nr:Datum:Temp:Feuchte:
Aussen-T/F 3076 23-02-2020 08:37:17 10.1 C 35 %
3077 23-02-2020 08:47:17 10.2 C 35 %
3078 23-02-2020 08:57:17 10.1 C 35 %
3079 23-02-2020 09:07:17 10.1 C 35 %
3080 23-02-2020 09:17:17 10 C 35 %
3081 23-02-2020 09:27:17 10 C 35 %
3082 23-02-2020 09:37:17 10 C 35 %
3083 23-02-2020 09:47:18 10.1 C 35 %
3084 23-02-2020 09:57:18 10.1 C 36 %
3085 23-02-2020 10:07:17 10.1 C 36 %
3086 23-02-2020 10:17:17 10.5 C 35 %
3087 23-02-2020 10:27:18 10.6 C 35 %
3088 23-02-2020 10:37:17 10.9 C 35 %
3089 23-02-2020 10:47:17 10.9 C 35 %
3090 23-02-2020 10:57:17 10.9 C 35 %
3091 23-02-2020 11:07:17 11 C 34 %
3092 23-02-2020 11:17:17 11.1 C 34 %
3093 23-02-2020 11:27:17 11 C 34 %
3094 23-02-2020 11:37:17 11.1 C 34 %
3095 23-02-2020 11:47:17 11.2 C 34 %
3096 23-02-2020 11:57:17 11.4 C 34 %
3097 23-02-2020 12:07:17 11.5 C 34 %
3098 23-02-2020 12:17:17 11.5 C 34 %
3099 23-02-2020 12:27:17 11.6 C 34 %
3100 23-02-2020 12:37:18 11.6 C 34 %
Sensor: Nr:Datum:Temp:Feuchte:
Aussen-T/F 3101 23-02-2020 12:47:17 11.7 C 34 %
3102 23-02-2020 12:57:17 11.7 C 34 %
3103 23-02-2020 13:07:17 11.8 C 33 %
3104 23-02-2020 13:17:17 11.8 C 33 %
3105 23-02-2020 13:27:17 11.8 C 33 %
3106 23-02-2020 13:37:18 11.8 C 33 %
3107 23-02-2020 13:47:17 11.8 C 33 %
3108 23-02-2020 13:57:18 11.8 C 33 %
3109 23-02-2020 14:07:17 11.8 C 33 %
3110 23-02-2020 14:17:17 11.7 C 33 %
3111 23-02-2020 14:27:17 11.8 C 34 %
3112 23-02-2020 14:37:18 11.9 C 34 %
3113 23-02-2020 14:47:17 11.9 C 34 %
3114 23-02-2020 14:57:17 11.9 C 34 %
3115 23-02-2020 15:07:17 11.9 C 34 %
3116 23-02-2020 15:17:17 11.9 C 34 %
3117 23-02-2020 15:27:17 12 C 33 %
3118 23-02-2020 15:37:18 11.8 C 34 %
3119 23-02-2020 15:47:17 11.9 C 34 %
3120 23-02-2020 15:57:17 11.8 C 34 %
3121 23-02-2020 16:07:18 11.8 C 34 %
3122 23-02-2020 16:17:17 11.8 C 34 %
3123 23-02-2020 16:27:17 11.7 C 35 %
3124 23-02-2020 16:37:17 11.8 C 35 %
3125 23-02-2020 16:47:17 11.8 C 34 %
Sensor: Nr:Datum:Temp:Feuchte:
Aussen-T/F 3126 23-02-2020 16:57:17 11.8 C 34 %
3127 23-02-2020 17:07:18 11.8 C 34 %
3128 23-02-2020 17:17:17 11.5 C 35 %
3129 23-02-2020 17:27:17 11.3 C 36 %
3130 23-02-2020 17:37:18 10.9 C 38 %
3131 23-02-2020 17:47:17 10.8 C 38 %
3132 23-02-2020 17:57:17 10.9 C 38 %
3133 23-02-2020 18:07:18 10.8 C 38 %
3134 23-02-2020 18:17:17 10.8 C 39 %
3135 23-02-2020 18:27:17 10.7 C 40 %
3136 23-02-2020 18:37:18 10.6 C 41 %
3137 23-02-2020 18:47:18 10.5 C 42 %
3138 23-02-2020 18:57:18 10.5 C 41 %
3139 23-02-2020 19:07:18 10.8 C 40 %
3140 23-02-2020 19:17:17 10.8 C 40 %
3141 23-02-2020 19:27:17 11.1 C 40 %
3142 23-02-2020 19:37:17 9.2 C 40 %
3143 23-02-2020 19:47:17 8.6 C 41 %
3144 23-02-2020 19:57:17 8.3 C 40 %
3145 23-02-2020 20:07:17 7.9 C 41 %
3146 23-02-2020 20:17:17 7.8 C 40 %
3147 23-02-2020 20:27:17 7.6 C 40 %
3148 23-02-2020 20:37:17 7.6 C 40 %
3149 23-02-2020 20:47:17 7.6 C 40 %
3150 23-02-2020 20:57:17 7.6 C 39 %
Sensor: Nr:Datum:Temp:Feuchte:
Aussen-T/F 3151 23-02-2020 21:07:17 7.4 C 39 %
3152 23-02-2020 21:17:17 7.7 C 37 %
3153 23-02-2020 21:27:17 7.3 C 37 %
3154 23-02-2020 21:37:17 7.4 C 37 %
3155 23-02-2020 21:47:18 7.4 C 36 %
3156 23-02-2020 21:57:18 7.6 C 37 %
3157 23-02-2020 22:07:18 7.7 C 36 %
3158 23-02-2020 22:17:18 7.7 C 36 %
3159 23-02-2020 22:27:18 7.6 C 35 %
3160 23-02-2020 22:37:18 7.6 C 35 %
3161 23-02-2020 22:47:17 7.6 C 35 %
3162 23-02-2020 22:57:18 7.3 C 35 %
3163 23-02-2020 23:07:18 7 C 34 %
3164 23-02-2020 23:17:18 6.7 C 36 %
3165 23-02-2020 23:27:18 7.2 C 33 %
3166 23-02-2020 23:37:18 7.1 C 32 %
3167 23-02-2020 23:47:17 7.2 C 32 %
3168 23-02-2020 23:57:18 6.8 C 33 %
3169 24-02-2020 00:07:18 6.7 C 32 %
3170 24-02-2020 00:17:18 6.3 C 34 %
3171 24-02-2020 00:27:18 6.5 C 34 %
3172 24-02-2020 00:37:18 6.4 C 34 %
3173 24-02-2020 00:47:18 6 C 34 %
3174 24-02-2020 00:57:18 6.1 C 34 %
3175 24-02-2020 01:07:18 5.5 C 35 %
Sensor: Nr:Datum:Temp:Feuchte:
Aussen-T/F 3176 24-02-2020 01:17:18 5.8 C 35 %
3177 24-02-2020 01:27:18 5.8 C 35 %
3178 24-02-2020 01:37:17 5.3 C 35 %
3179 24-02-2020 01:47:17 5.2 C 35 %
3180 24-02-2020 01:57:18 5 C 36 %
3181 24-02-2020 02:07:18 4.6 C 37 %
3182 24-02-2020 02:17:17 4.4 C 37 %
3183 24-02-2020 02:27:17 3.9 C 39 %
3184 24-02-2020 02:37:18 3.7 C 40 %
3185 24-02-2020 02:47:17 4 C 38 %
3186 24-02-2020 02:57:17 4.2 C 38 %
3187 24-02-2020 03:07:17 4.3 C 38 %
3188 24-02-2020 03:17:17 4.7 C 36 %
3189 24-02-2020 03:27:17 4.6 C 37 %
3190 24-02-2020 03:37:18 4.5 C 37 %
3191 24-02-2020 03:47:17 4.5 C 36 %
3192 24-02-2020 03:57:17 4.5 C 36 %
3193 24-02-2020 04:07:17 4.6 C 36 %
3194 24-02-2020 04:17:17 4.4 C 38 %
3195 24-02-2020 04:27:17 4.3 C 38 %
3196 24-02-2020 04:37:17 4 C 39 %
3197 24-02-2020 04:47:17 3.7 C 41 %
3198 24-02-2020 04:57:17 3.8 C 41 %
3199 24-02-2020 05:07:17 3.8 C 42 %
3200 24-02-2020 05:17:17 4.1 C 41 %
Sensor: Nr:Datum:Temp:Feuchte:
Aussen-T/F 3201 24-02-2020 05:27:17 4 C 40 %
3202 24-02-2020 05:37:17 3.8 C 41 %
3203 24-02-2020 05:47:18 4 C 40 %
3204 24-02-2020 05:57:18 4 C 40 %
3205 24-02-2020 06:07:17 4 C 40 %
3206 24-02-2020 06:17:18 4 C 41 %
3207 24-02-2020 06:27:18 3.9 C 42 %
3208 24-02-2020 06:37:17 4 C 41 %
3209 24-02-2020 06:47:18 3.9 C 42 %
3210 24-02-2020 06:57:18 4.2 C 40 %
3211 24-02-2020 07:07:18 4.2 C 40 %
3212 24-02-2020 07:17:18 4.3 C 40 %
3213 24-02-2020 07:27:18 4.3 C 40 %
3214 24-02-2020 07:37:18 4.4 C 39 %
3215 24-02-2020 07:47:17 4.5 C 39 %
3216 24-02-2020 07:57:17 5.1 C 37 %
3217 24-02-2020 08:07:18 5.2 C 37 %
3218 24-02-2020 08:17:18 5.4 C 37 %
3219 24-02-2020 08:27:18 5.7 C 36 %
3220 24-02-2020 08:37:18 5.9 C 36 %
3221 24-02-2020 08:47:18 6 C 35 %
3222 24-02-2020 08:57:18 6.2 C 35 %
3223 24-02-2020 09:07:18 6.3 C 35 %
3224 24-02-2020 09:17:18 6.3 C 35 %
3225 24-02-2020 09:27:18 6.1 C 35 %
Sensor: Nr:Datum:Temp:Feuchte:
Aussen-T/F 3226 24-02-2020 09:37:18 6 C 35 %
3227 24-02-2020 09:47:18 6 C 35 %
3228 24-02-2020 09:57:18 6 C 36 %
3229 24-02-2020 10:07:18 5.9 C 37 %
3230 24-02-2020 10:17:18 5.7 C 38 %
3231 24-02-2020 10:27:18 5.7 C 39 %
3232 24-02-2020 10:37:17 5.6 C 40 %
3233 24-02-2020 10:47:18 5.7 C 40 %
3234 24-02-2020 10:57:18 5.9 C 40 %
3235 24-02-2020 11:07:18 6 C 40 %
3236 24-02-2020 11:17:18 6 C 40 %
3237 24-02-2020 11:27:18 6.1 C 40 %
3238 24-02-2020 11:37:18 6.1 C 40 %
3239 24-02-2020 11:47:18 6.1 C 40 %
3240 24-02-2020 11:57:18 6.5 C 40 %
3241 24-02-2020 12:07:17 6.7 C 40 %
3242 24-02-2020 12:17:17 6.9 C 40 %
3243 24-02-2020 12:27:17 6.7 C 40 %
3244 24-02-2020 12:37:18 6.8 C 40 %
3245 24-02-2020 12:47:17 7.1 C 41 %
3246 24-02-2020 12:57:18 7.3 C 40 %
3247 24-02-2020 13:07:18 7.7 C 40 %
3248 24-02-2020 13:17:18 7.9 C 40 %
3249 24-02-2020 13:27:18 8.2 C 39 %
3250 24-02-2020 13:37:18 8.2 C 39 %
Sensor: Nr:Datum:Temp:Feuchte:
Aussen-T/F 3251 24-02-2020 13:47:17 8.2 C 40 %
3252 24-02-2020 13:57:17 8.4 C 40 %
3253 24-02-2020 14:07:18 8.8 C 40 %
3254 24-02-2020 14:17:17 9.3 C 40 %
3255 24-02-2020 14:27:18 9.6 C 39 %
3256 24-02-2020 14:37:18 10.2 C 37 %
3257 24-02-2020 14:47:17 10.8 C 37 %
3258 24-02-2020 14:57:17 10.9 C 37 %
3259 24-02-2020 15:07:18 10.7 C 37 %
3260 24-02-2020 15:17:18 10.7 C 37 %
3261 24-02-2020 15:27:18 10.8 C 37 %
3262 24-02-2020 15:37:18 11 C 36 %
3263 24-02-2020 15:47:17 11.3 C 36 %
3264 24-02-2020 15:57:18 11.5 C 36 %
3265 24-02-2020 16:07:18 11.5 C 35 %
3266 24-02-2020 16:17:18 11.8 C 35 %
3267 24-02-2020 16:27:18 11.9 C 35 %
3268 24-02-2020 16:37:18 11.7 C 35 %
3269 24-02-2020 16:47:17 11.3 C 35 %
3270 24-02-2020 16:57:17 11.5 C 35 %
3271 24-02-2020 17:07:18 11.5 C 35 %
3272 24-02-2020 17:17:18 11.5 C 35 %
3273 24-02-2020 17:27:18 11.5 C 34 %
3274 24-02-2020 17:37:18 11.4 C 34 %
3275 24-02-2020 17:47:18 11.5 C 33 %
Sensor: Nr:Datum:Temp:Feuchte:
Aussen-T/F 3276 24-02-2020 17:57:18 11.4 C 33 %
3277 24-02-2020 18:07:18 11.3 C 33 %
3278 24-02-2020 18:17:18 11.2 C 33 %
3279 24-02-2020 18:27:18 11.2 C 33 %
3280 24-02-2020 18:37:17 11 C 33 %
3281 24-02-2020 18:47:17 11 C 33 %
3282 24-02-2020 18:57:17 11 C 33 %
3283 24-02-2020 19:07:17 11.1 C 33 %
3284 24-02-2020 19:17:17 10.8 C 34 %
3285 24-02-2020 19:27:17 11.2 C 32 %
3286 24-02-2020 19:37:18 11.2 C 32 %
3287 24-02-2020 19:47:18 11.1 C 32 %
3288 24-02-2020 19:57:18 11.3 C 32 %
3289 24-02-2020 20:07:18 11.4 C 32 %
3290 24-02-2020 20:17:18 11.2 C 31 %
3291 24-02-2020 20:27:18 11.3 C 31 %
3292 24-02-2020 20:37:18 11.2 C 31 %
3293 24-02-2020 20:47:17 11.2 C 31 %
3294 24-02-2020 20:57:18 11 C 31 %
3295 24-02-2020 21:07:18 10.9 C 32 %
3296 24-02-2020 21:18:17 11 C 32 %
3297 24-02-2020 21:27:17 10.9 C 33 %
3298 24-02-2020 21:37:17 10.9 C 33 %
3299 24-02-2020 21:48:17 10.9 C 33 %
3300 24-02-2020 21:57:17 10.8 C 33 %
Sensor: Nr:Datum:Temp:Feuchte:
Aussen-T/F 3301 24-02-2020 22:07:17 11 C 32 %
3302 24-02-2020 22:17:17 10.9 C 33 %
3303 24-02-2020 22:27:17 11 C 32 %
3304 24-02-2020 22:37:17 10.9 C 33 %
3305 24-02-2020 22:47:17 11.1 C 32 %
3306 24-02-2020 22:57:17 11.1 C 32 %
3307 24-02-2020 23:08:17 11 C 32 %
3308 24-02-2020 23:18:17 10.9 C 33 %
3309 24-02-2020 23:28:17 11 C 32 %
3310 24-02-2020 23:37:18 10.9 C 33 %
3311 24-02-2020 23:48:17 10.8 C 33 %
3312 24-02-2020 23:58:17 10.4 C 34 %
3313 25-02-2020 00:08:17 10.5 C 34 %
3314 25-02-2020 00:17:17 10.4 C 34 %
3315 25-02-2020 00:27:17 10.2 C 35 %
3316 25-02-2020 00:37:18 10.4 C 35 %
3317 25-02-2020 00:47:17 10.6 C 35 %
3318 25-02-2020 00:57:17 10.5 C 35 %
3319 25-02-2020 01:08:17 10.5 C 35 %
3320 25-02-2020 01:18:17 10.5 C 35 %
3321 25-02-2020 01:28:17 10.5 C 35 %
3322 25-02-2020 01:38:17 10.6 C 35 %
3323 25-02-2020 01:48:17 10.4 C 35 %
3324 25-02-2020 01:58:17 10.5 C 35 %
3325 25-02-2020 02:08:17 10.4 C 35 %
Sensor: Nr:Datum:Temp:Feuchte:
Aussen-T/F 3326 25-02-2020 02:18:17 10.3 C 35 %
3327 25-02-2020 02:28:17 10.4 C 35 %
3328 25-02-2020 02:38:17 10.3 C 35 %
3329 25-02-2020 02:48:17 10.3 C 35 %
3330 25-02-2020 02:58:17 10.1 C 35 %
3331 25-02-2020 03:08:17 9.7 C 36 %
3332 25-02-2020 03:18:17 9.8 C 36 %
3333 25-02-2020 03:28:18 10 C 36 %
3334 25-02-2020 03:38:18 10 C 35 %
3335 25-02-2020 03:48:17 10 C 35 %
3336 25-02-2020 03:58:18 10 C 35 %
3337 25-02-2020 04:08:18 10 C 35 %
3338 25-02-2020 04:18:18 9.9 C 36 %
3339 25-02-2020 04:28:18 9.9 C 36 %
3340 25-02-2020 04:38:18 9.9 C 36 %
3341 25-02-2020 04:48:17 9.9 C 36 %
3342 25-02-2020 04:58:17 9.9 C 36 %
3343 25-02-2020 05:08:18 9.9 C 36 %
3344 25-02-2020 05:18:17 9.8 C 36 %
3345 25-02-2020 05:28:18 9.7 C 36 %
3346 25-02-2020 05:38:18 9.7 C 36 %
3347 25-02-2020 05:48:18 9.7 C 36 %
3348 25-02-2020 05:58:18 9.7 C 35 %
3349 25-02-2020 06:08:18 9.7 C 35 %
3350 25-02-2020 06:18:17 9.6 C 35 %
Sensor: Nr:Datum:Temp:Feuchte:
Aussen-T/F 3351 25-02-2020 06:28:18 9.5 C 35 %
3352 25-02-2020 06:38:18 9.4 C 36 %
3353 25-02-2020 06:48:17 9.4 C 36 %
3354 25-02-2020 06:58:17 9.3 C 36 %
3355 25-02-2020 07:08:17 9.2 C 36 %
3356 25-02-2020 07:18:17 9.1 C 36 %
3357 25-02-2020 07:28:18 9.1 C 36 %
3358 25-02-2020 07:38:18 8.6 C 38 %
3359 25-02-2020 07:48:17 8.4 C 40 %
3360 25-02-2020 07:58:17 8.2 C 42 %
3361 25-02-2020 08:08:18 8.1 C 43 %
3362 25-02-2020 08:18:17 8 C 44 %
3363 25-02-2020 08:28:17 8 C 42 %
3364 25-02-2020 08:38:17 8 C 42 %
3365 25-02-2020 08:48:17 8.1 C 42 %
3366 25-02-2020 08:58:17 8.2 C 41 %
3367 25-02-2020 09:08:18 8.2 C 41 %
3368 25-02-2020 09:18:17 8.2 C 40 %
3369 25-02-2020 09:28:17 8.5 C 38 %
3370 25-02-2020 09:38:18 8.7 C 38 %
3371 25-02-2020 09:48:17 8.7 C 36 %
3372 25-02-2020 09:58:17 8.6 C 34 %
3373 25-02-2020 10:08:17 8.6 C 33 %
3374 25-02-2020 10:18:17 8.2 C 33 %
3375 25-02-2020 10:28:17 8.7 C 33 %
Sensor: Nr:Datum:Temp:Feuchte:
Aussen-T/F 3376 25-02-2020 10:38:18 8.7 C 33 %
3377 25-02-2020 10:48:17 9.2 C 32 %
3378 25-02-2020 10:58:17 9.6 C 31 %
3379 25-02-2020 11:08:18 9.1 C 32 %
3380 25-02-2020 11:18:17 8 C 32 %
3381 25-02-2020 11:28:17 8.3 C 32 %
3382 25-02-2020 11:38:17 8.2 C 31 %
3383 25-02-2020 11:48:17 8.5 C 31 %
3384 25-02-2020 11:58:18 8.9 C 30 %
3385 25-02-2020 12:08:18 11.2 C 26 %
3386 25-02-2020 12:18:18 10.4 C 22 %
3387 25-02-2020 12:28:18 10.7 C 21 %
3388 25-02-2020 12:38:18 10.2 C 23 %
3389 25-02-2020 12:48:18 10.2 C 22 %
3390 25-02-2020 12:58:18 10.6 C 25 %
3391 25-02-2020 13:08:18 10.1 C 25 %
3392 25-02-2020 13:18:17 11.1 C 25 %
3393 25-02-2020 13:28:17 11.1 C 25 %
3394 25-02-2020 13:38:17 11.4 C 23 %
3395 25-02-2020 13:48:17 10 C 22 %
3396 25-02-2020 13:58:17 10.7 C 23 %
3397 25-02-2020 14:08:17 10.7 C 22 %
3398 25-02-2020 14:18:17 10.4 C 20 %
3399 25-02-2020 14:28:17 10.2 C 22 %
3400 25-02-2020 14:38:18 10.2 C 21 %
Sensor: Nr:Datum:Temp:Feuchte:
Aussen-T/F 3401 25-02-2020 14:48:17 11 C 21 %
3402 25-02-2020 14:58:17 10.4 C 22 %
3403 25-02-2020 15:08:17 10.1 C 25 %
3404 25-02-2020 15:18:17 11.1 C 22 %
3405 25-02-2020 15:28:17 11.1 C 22 %
3406 25-02-2020 15:38:17 11.2 C 20 %
3407 25-02-2020 15:48:18 11.5 C 20 %
3408 25-02-2020 15:58:18 11.7 C 20 %
3409 25-02-2020 16:08:18 10.3 C 21 %
3410 25-02-2020 16:18:18 10.1 C 21 %
3411 25-02-2020 16:28:18 10.1 C 20 %
3412 25-02-2020 16:38:18 12.4 C 20 %
3413 25-02-2020 16:48:17 11.5 C 20 %
3414 25-02-2020 16:58:18 10 C 20 %
3415 25-02-2020 17:08:18 9.9 C 20 %
3416 25-02-2020 17:18:17 10.8 C 20 %
3417 25-02-2020 17:28:18 9.5 C 25 %
3418 25-02-2020 17:38:18 9.1 C 25 %
3419 25-02-2020 17:48:18 9 C 25 %
3420 25-02-2020 17:58:18 8.9 C 27 %
3421 25-02-2020 18:08:18 8.8 C 26 %
3422 25-02-2020 18:18:18 8.5 C 27 %
3423 25-02-2020 18:28:18 8.4 C 28 %
3424 25-02-2020 18:38:18 8.6 C 27 %
3425 25-02-2020 18:48:17 8.4 C 28 %
Sensor: Nr:Datum:Temp:Feuchte:
Aussen-T/F 3426 25-02-2020 18:58:17 7.1 C 31 %
3427 25-02-2020 19:08:18 6.5 C 35 %
3428 25-02-2020 19:18:18 6.3 C 35 %
3429 25-02-2020 19:28:18 6.2 C 35 %
3430 25-02-2020 19:38:18 6 C 37 %
3431 25-02-2020 19:48:17 5.8 C 40 %
3432 25-02-2020 19:58:17 5.7 C 40 %
3433 25-02-2020 20:08:18 5.6 C 40 %
3434 25-02-2020 20:18:17 5.5 C 41 %
3435 25-02-2020 20:28:18 5.6 C 41 %
3436 25-02-2020 20:38:18 5.9 C 39 %
3437 25-02-2020 20:48:17 6 C 38 %
3438 25-02-2020 20:58:17 5.9 C 39 %
3439 25-02-2020 21:08:17 5.3 C 40 %
3440 25-02-2020 21:18:17 5.3 C 40 %
3441 25-02-2020 21:28:17 5.3 C 40 %
3442 25-02-2020 21:38:17 5.2 C 41 %
3443 25-02-2020 21:48:18 5.8 C 36 %
3444 25-02-2020 21:58:18 5.8 C 35 %
3445 25-02-2020 22:08:18 5.6 C 34 %
3446 25-02-2020 22:18:17 5.6 C 33 %
3447 25-02-2020 22:28:17 5.3 C 33 %
3448 25-02-2020 22:38:17 4.8 C 34 %
3449 25-02-2020 22:48:18 4.4 C 35 %
3450 25-02-2020 22:58:18 4.2 C 35 %
Sensor: Nr:Datum:Temp:Feuchte:
Aussen-T/F 3451 25-02-2020 23:08:18 4.2 C 35 %
3452 25-02-2020 23:18:18 4.4 C 35 %
3453 25-02-2020 23:28:18 4.6 C 35 %
3454 25-02-2020 23:38:18 5.4 C 34 %
3455 25-02-2020 23:48:17 5.5 C 34 %
3456 25-02-2020 23:58:17 5.4 C 33 %
3457 26-02-2020 00:08:17 5.3 C 35 %
3458 26-02-2020 00:18:17 5 C 35 %
3459 26-02-2020 00:28:17 4.9 C 36 %
3460 26-02-2020 00:38:18 5.1 C 35 %
3461 26-02-2020 00:48:17 5.4 C 35 %
3462 26-02-2020 00:58:17 5.3 C 35 %
3463 26-02-2020 01:08:17 5.4 C 35 %
3464 26-02-2020 01:18:17 5.5 C 35 %
3465 26-02-2020 01:28:17 5.4 C 35 %
3466 26-02-2020 01:38:17 5.3 C 35 %
3467 26-02-2020 01:48:17 5.1 C 35 %
3468 26-02-2020 01:58:17 5 C 35 %
3469 26-02-2020 02:08:18 5.2 C 35 %
3470 26-02-2020 02:18:18 5.2 C 34 %
3471 26-02-2020 02:28:18 5.2 C 34 %
3472 26-02-2020 02:38:17 5 C 34 %
3473 26-02-2020 02:48:18 5.1 C 33 %
3474 26-02-2020 02:58:18 5 C 32 %
3475 26-02-2020 03:08:17 4.8 C 33 %
Sensor: Nr:Datum:Temp:Feuchte:
Aussen-T/F 3476 26-02-2020 03:18:17 4.7 C 33 %
3477 26-02-2020 03:28:17 4.3 C 34 %
3478 26-02-2020 03:38:18 3.8 C 35 %
3479 26-02-2020 03:48:18 3.7 C 35 %
3480 26-02-2020 03:58:18 4 C 34 %
3481 26-02-2020 04:08:18 3.9 C 35 %
3482 26-02-2020 04:18:18 3.9 C 35 %
3483 26-02-2020 04:28:18 3.9 C 35 %
3484 26-02-2020 04:38:18 3.8 C 35 %
3485 26-02-2020 04:48:17 3.9 C 35 %
3486 26-02-2020 04:58:18 3.9 C 35 %
3487 26-02-2020 05:08:18 4 C 33 %
3488 26-02-2020 05:18:18 3.9 C 35 %
3489 26-02-2020 05:28:18 4 C 33 %
3490 26-02-2020 05:38:18 3.9 C 35 %
3491 26-02-2020 05:48:17 3.7 C 35 %
3492 26-02-2020 05:58:18 3.9 C 34 %
3493 26-02-2020 06:08:18 3.9 C 34 %
3494 26-02-2020 06:18:18 4 C 32 %
3495 26-02-2020 06:28:18 3.7 C 34 %
3496 26-02-2020 06:38:18 3.9 C 33 %
3497 26-02-2020 06:48:17 3.7 C 33 %
3498 26-02-2020 06:58:17 3.6 C 33 %
3499 26-02-2020 07:08:18 3.4 C 34 %
3500 26-02-2020 07:18:18 3.4 C 34 %
Sensor: Nr:Datum:Temp:Feuchte:
Aussen-T/F 3501 26-02-2020 07:28:18 3.2 C 35 %
3502 26-02-2020 07:38:17 3.4 C 35 %
3503 26-02-2020 07:48:18 3.4 C 35 %
3504 26-02-2020 07:58:18 3.4 C 35 %
3505 26-02-2020 08:08:18 3.5 C 35 %
3506 26-02-2020 08:18:17 3.5 C 35 %
3507 26-02-2020 08:28:17 3.6 C 35 %
3508 26-02-2020 08:38:18 3.6 C 34 %
3509 26-02-2020 08:48:18 3.5 C 35 %
3510 26-02-2020 08:58:18 3.3 C 35 %
3511 26-02-2020 09:08:17 2.9 C 36 %
3512 26-02-2020 09:18:17 2.9 C 37 %
3513 26-02-2020 09:28:17 3 C 37 %
3514 26-02-2020 09:38:18 3.2 C 36 %
3515 26-02-2020 09:48:18 3.6 C 36 %
3516 26-02-2020 09:58:18 3.4 C 36 %
3517 26-02-2020 10:08:18 3.4 C 36 %
3518 26-02-2020 10:18:17 3.4 C 36 %
3519 26-02-2020 10:28:17 3.3 C 37 %
3520 26-02-2020 10:38:17 3.5 C 36 %
3521 26-02-2020 10:48:17 4.2 C 35 %
3522 26-02-2020 10:58:17 4.4 C 35 %
3523 26-02-2020 11:08:17 4.5 C 34 %
3524 26-02-2020 11:18:17 5 C 33 %
3525 26-02-2020 11:28:17 5.1 C 33 %
Sensor: Nr:Datum:Temp:Feuchte:
Aussen-T/F 3526 26-02-2020 11:38:18 5.4 C 32 %
3527 26-02-2020 11:48:18 5.3 C 32 %
3528 26-02-2020 11:58:18 5.9 C 32 %
3529 26-02-2020 12:08:17 6.1 C 31 %
3530 26-02-2020 12:18:17 6.4 C 31 %
3531 26-02-2020 12:28:17 5.7 C 31 %
3532 26-02-2020 12:38:17 5.7 C 31 %
3533 26-02-2020 12:48:17 5.7 C 31 %
3534 26-02-2020 12:58:17 6.7 C 29 %
3535 26-02-2020 13:08:17 6.7 C 29 %
3536 26-02-2020 13:18:18 6.1 C 30 %
3537 26-02-2020 13:28:18 5 C 31 %
3538 26-02-2020 13:38:17 5.3 C 31 %
3539 26-02-2020 13:48:17 5.3 C 31 %
3540 26-02-2020 13:58:17 5.1 C 31 %
3541 26-02-2020 14:08:17 5.1 C 32 %
3542 26-02-2020 14:18:17 5.1 C 32 %
3543 26-02-2020 14:28:17 5.1 C 32 %
3544 26-02-2020 14:38:17 5.6 C 32 %
3545 26-02-2020 14:48:17 5.8 C 32 %
3546 26-02-2020 14:58:17 5.6 C 32 %
3547 26-02-2020 15:08:17 5.6 C 32 %
3548 26-02-2020 15:18:17 6.4 C 31 %
3549 26-02-2020 15:28:17 7.6 C 29 %
3550 26-02-2020 15:38:17 6.3 C 30 %
Sensor: Nr:Datum:Temp:Feuchte:
Aussen-T/F 3551 26-02-2020 15:48:17 6.2 C 30 %
3552 26-02-2020 15:58:17 5.8 C 30 %
3553 26-02-2020 16:08:17 5.9 C 30 %
3554 26-02-2020 16:18:17 5.5 C 30 %
3555 26-02-2020 16:28:17 5.5 C 30 %
3556 26-02-2020 16:38:17 5.4 C 30 %
3557 26-02-2020 16:48:18 5.6 C 30 %
3558 26-02-2020 16:58:18 5.4 C 30 %
3559 26-02-2020 17:08:18 5.3 C 30 %
3560 26-02-2020 17:18:18 5.1 C 30 %
3561 26-02-2020 17:28:18 5.1 C 30 %
3562 26-02-2020 17:38:17 4.8 C 30 %
3563 26-02-2020 17:48:18 4.5 C 31 %
3564 26-02-2020 17:58:18 4.2 C 31 %
3565 26-02-2020 18:08:18 4 C 32 %
3566 26-02-2020 18:18:18 4 C 32 %
3567 26-02-2020 18:28:18 4 C 32 %
3568 26-02-2020 18:38:18 4 C 32 %
3569 26-02-2020 18:48:18 4.1 C 32 %
3570 26-02-2020 18:58:18 4.1 C 32 %
3571 26-02-2020 19:08:18 4 C 32 %
3572 26-02-2020 19:18:17 4 C 33 %
3573 26-02-2020 19:28:17 3.9 C 35 %
3574 26-02-2020 19:38:17 3.8 C 35 %
3575 26-02-2020 19:48:17 3.6 C 35 %
Sensor: Nr:Datum:Temp:Feuchte:
Aussen-T/F 3576 26-02-2020 19:58:17 3.4 C 35 %
3577 26-02-2020 20:08:17 3.3 C 35 %
3578 26-02-2020 20:18:17 3.6 C 35 %
3579 26-02-2020 20:28:17 3.6 C 35 %
3580 26-02-2020 20:38:17 3.6 C 35 %
3581 26-02-2020 20:48:17 3.4 C 35 %
3582 26-02-2020 20:58:17 3.6 C 35 %
3583 26-02-2020 21:08:18 3.6 C 35 %
3584 26-02-2020 21:18:18 3.5 C 35 %
3585 26-02-2020 21:28:18 3.2 C 35 %
3586 26-02-2020 21:38:18 3.4 C 35 %
3587 26-02-2020 21:48:17 3.4 C 35 %
3588 26-02-2020 21:58:17 3.5 C 35 %
3589 26-02-2020 22:08:18 3.3 C 36 %
3590 26-02-2020 22:18:18 3.3 C 36 %
3591 26-02-2020 22:28:18 3.3 C 36 %
3592 26-02-2020 22:38:18 3.4 C 36 %
3593 26-02-2020 22:48:17 3.2 C 37 %
3594 26-02-2020 22:58:17 3.3 C 37 %
3595 26-02-2020 23:08:18 3.1 C 37 %
3596 26-02-2020 23:18:18 3 C 37 %
3597 26-02-2020 23:28:18 2.9 C 38 %
3598 26-02-2020 23:38:17 2.8 C 38 %
3599 26-02-2020 23:48:17 2.9 C 37 %
3600 26-02-2020 23:58:17 2.7 C 38 %
Sensor: Nr:Datum:Temp:Feuchte:
Aussen-T/F 3601 27-02-2020 00:08:17 2.9 C 37 %
3602 27-02-2020 00:18:17 3.1 C 37 %
3603 27-02-2020 00:28:17 2.8 C 37 %
3604 27-02-2020 00:38:18 3.1 C 36 %
3605 27-02-2020 00:48:18 2.9 C 37 %
3606 27-02-2020 00:58:18 2.8 C 37 %
3607 27-02-2020 01:08:18 2.3 C 38 %
3608 27-02-2020 01:18:18 2.2 C 38 %
3609 27-02-2020 01:28:18 2.2 C 38 %
3610 27-02-2020 01:38:18 2 C 38 %
3611 27-02-2020 01:48:17 2.6 C 38 %
3612 27-02-2020 01:58:17 2.7 C 38 %
3613 27-02-2020 02:08:18 2.6 C 38 %
3614 27-02-2020 02:18:17 2.9 C 37 %
3615 27-02-2020 02:28:17 2.9 C 37 %
3616 27-02-2020 02:38:17 2.5 C 38 %
3617 27-02-2020 02:48:17 2.7 C 38 %
3618 27-02-2020 02:58:17 3.1 C 36 %
3619 27-02-2020 03:08:18 3.1 C 37 %
3620 27-02-2020 03:18:17 2.6 C 40 %
3621 27-02-2020 03:28:17 2.6 C 40 %
3622 27-02-2020 03:38:17 2.6 C 40 %
3623 27-02-2020 03:48:17 2.7 C 40 %
3624 27-02-2020 03:58:17 2.7 C 40 %
3625 27-02-2020 04:08:18 2.7 C 40 %
Sensor: Nr:Datum:Temp:Feuchte:
Aussen-T/F 3626 27-02-2020 04:18:18 2.7 C 40 %
3627 27-02-2020 04:28:18 2.6 C 40 %
3628 27-02-2020 04:38:18 2.7 C 39 %
3629 27-02-2020 04:48:17 2.3 C 40 %
3630 27-02-2020 04:58:17 2.3 C 39 %
3631 27-02-2020 05:08:18 2.1 C 40 %
3632 27-02-2020 05:18:17 2.3 C 40 %
3633 27-02-2020 05:28:18 2 C 40 %
3634 27-02-2020 05:38:17 2 C 40 %
3635 27-02-2020 05:48:17 2.3 C 40 %
3636 27-02-2020 05:58:17 2.4 C 39 %
3637 27-02-2020 06:08:17 2.2 C 39 %
3638 27-02-2020 06:18:17 2.2 C 38 %
3639 27-02-2020 06:28:17 2.3 C 38 %
3640 27-02-2020 06:38:18 2.3 C 38 %
3641 27-02-2020 06:48:17 2.3 C 38 %
3642 27-02-2020 06:58:17 2.1 C 38 %
3643 27-02-2020 07:08:18 2.3 C 38 %
3644 27-02-2020 07:18:18 2.3 C 38 %
3645 27-02-2020 07:28:18 2.4 C 39 %
3646 27-02-2020 07:38:18 2.5 C 38 %
3647 27-02-2020 07:48:17 2.4 C 39 %
3648 27-02-2020 07:58:17 2.6 C 39 %
3649 27-02-2020 08:08:17 2.5 C 39 %
3650 27-02-2020 08:18:17 2.6 C 40 %
Sensor: Nr:Datum:Temp:Feuchte:
Aussen-T/F 3651 27-02-2020 08:28:17 2.9 C 40 %
3652 27-02-2020 08:38:17 3.2 C 38 %
3653 27-02-2020 08:48:17 3.5 C 37 %
3654 27-02-2020 08:58:17 3.8 C 37 %
3655 27-02-2020 09:08:17 4.2 C 35 %
3656 27-02-2020 09:18:17 4.3 C 35 %
3657 27-02-2020 09:28:17 4.6 C 35 %
3658 27-02-2020 09:38:17 4.7 C 35 %
3659 27-02-2020 09:48:17 4.9 C 35 %
3660 27-02-2020 09:58:17 5.2 C 34 %
3661 27-02-2020 10:08:17 5.1 C 34 %
3662 27-02-2020 10:18:17 5.3 C 33 %
3663 27-02-2020 10:28:17 5.2 C 33 %
3664 27-02-2020 10:38:17 5.4 C 33 %
3665 27-02-2020 10:48:17 5.4 C 33 %
3666 27-02-2020 10:58:17 5 C 33 %
3667 27-02-2020 11:08:17 4.6 C 35 %
3668 27-02-2020 11:18:17 4.2 C 35 %
3669 27-02-2020 11:28:17 3.7 C 36 %
3670 27-02-2020 11:38:17 3.7 C 38 %
3671 27-02-2020 11:48:18 3.9 C 39 %
3672 27-02-2020 11:58:18 3.9 C 39 %
3673 27-02-2020 12:08:18 3.8 C 39 %
3674 27-02-2020 12:18:18 3.9 C 39 %
3675 27-02-2020 12:28:18 3.8 C 40 %
Sensor: Nr:Datum:Temp:Feuchte:
Aussen-T/F 3676 27-02-2020 12:38:18 3.8 C 40 %
3677 27-02-2020 12:48:17 3.5 C 40 %
3678 27-02-2020 12:58:17 3.4 C 41 %
3679 27-02-2020 13:08:18 3.3 C 41 %
3680 27-02-2020 13:18:18 3.2 C 41 %
3681 27-02-2020 13:28:18 3 C 42 %
3682 27-02-2020 13:38:17 2.8 C 42 %
3683 27-02-2020 13:48:17 2.6 C 43 %
3684 27-02-2020 13:58:17 2.6 C 43 %
3685 27-02-2020 14:08:17 2.6 C 44 %
3686 27-02-2020 14:18:17 2.7 C 44 %
3687 27-02-2020 14:28:17 2.5 C 44 %
3688 27-02-2020 14:38:18 2.5 C 44 %
3689 27-02-2020 14:48:18 2.5 C 44 %
3690 27-02-2020 14:58:18 2.4 C 44 %
3691 27-02-2020 15:08:18 2.3 C 44 %
3692 27-02-2020 15:18:18 2.2 C 44 %
3693 27-02-2020 15:28:18 2.3 C 45 %
3694 27-02-2020 15:38:18 2.1 C 44 %
3695 27-02-2020 15:48:17 2.1 C 45 %
3696 27-02-2020 15:58:17 1.8 C 46 %
3697 27-02-2020 16:08:17 1.6 C 46 %
3698 27-02-2020 16:18:17 1.1 C 46 %
3699 27-02-2020 16:28:17 0.8 C 47 %
3700 27-02-2020 16:38:18 0.4 C 48 %
Sensor: Nr:Datum:Temp:Feuchte:
Aussen-T/F 3701 27-02-2020 16:48:17 0.2 C 48 %
3702 27-02-2020 16:58:17 0.2 C 48 %
3703 27-02-2020 17:08:18 0 C 49 %
3704 27-02-2020 17:18:18 0 C 48 %
3705 27-02-2020 17:28:18 0 C 48 %
3706 27-02-2020 17:38:17 0 C 48 %
3707 27-02-2020 17:48:17 0 C 48 %
3708 27-02-2020 17:58:17 0 C 48 %
3709 27-02-2020 18:08:18 0.1 C 48 %
3710 27-02-2020 18:18:17 0.1 C 48 %
3711 27-02-2020 18:28:17 0.1 C 48 %
3712 27-02-2020 18:38:17 0.1 C 48 %
3713 27-02-2020 18:48:18 0.1 C 48 %
3714 27-02-2020 18:58:18 0.1 C 48 %
3715 27-02-2020 19:08:18 0.3 C 48 %
3716 27-02-2020 19:18:18 0.4 C 48 %
3717 27-02-2020 19:28:18 0.3 C 48 %
3718 27-02-2020 19:38:18 0.6 C 48 %
3719 27-02-2020 19:48:18 0.6 C 48 %
3720 27-02-2020 19:58:18 0.6 C 48 %
3721 27-02-2020 20:08:18 0.7 C 48 %
3722 27-02-2020 20:18:18 0.6 C 48 %
3723 27-02-2020 20:28:18 0.8 C 48 %
3724 27-02-2020 20:38:17 0.6 C 48 %
3725 27-02-2020 20:48:17 0.5 C 48 %
Sensor: Nr:Datum:Temp:Feuchte:
Aussen-T/F 3726 27-02-2020 20:58:17 0.6 C 48 %
3727 27-02-2020 21:08:17 0.6 C 48 %
3728 27-02-2020 21:18:17 0.7 C 47 %
3729 27-02-2020 21:28:17 0.7 C 47 %
3730 27-02-2020 21:38:17 0.7 C 47 %
3731 27-02-2020 21:48:17 0.7 C 47 %
3732 27-02-2020 21:58:17 0.7 C 48 %
3733 27-02-2020 22:08:18 0.7 C 48 %
3734 27-02-2020 22:18:17 0.6 C 48 %
3735 27-02-2020 22:28:18 0.7 C 49 %
3736 27-02-2020 22:38:18 1 C 47 %
3737 27-02-2020 22:48:17 1 C 45 %
3738 27-02-2020 22:58:18 1 C 46 %
3739 27-02-2020 23:08:18 1.1 C 46 %
3740 27-02-2020 23:18:18 1.4 C 46 %
3741 27-02-2020 23:28:18 1.6 C 45 %
3742 27-02-2020 23:38:18 1.5 C 44 %
3743 27-02-2020 23:48:18 1.7 C 44 %
3744 27-02-2020 23:58:18 1.6 C 43 %
3745 28-02-2020 00:08:18 1.7 C 43 %
3746 28-02-2020 00:18:17 1.9 C 43 %
3747 28-02-2020 00:28:17 1.7 C 43 %
3748 28-02-2020 00:38:18 1.6 C 45 %
3749 28-02-2020 00:48:17 1.5 C 45 %
3750 28-02-2020 00:58:17 1.7 C 45 %
Sensor: Nr:Datum:Temp:Feuchte:
Aussen-T/F 3751 28-02-2020 01:08:17 1.4 C 46 %
3752 28-02-2020 01:18:17 1.4 C 46 %
3753 28-02-2020 01:28:17 1.3 C 46 %
3754 28-02-2020 01:38:17 1.5 C 45 %
3755 28-02-2020 01:48:18 1.5 C 45 %
3756 28-02-2020 01:58:18 1.4 C 45 %
3757 28-02-2020 02:08:18 1.4 C 46 %
3758 28-02-2020 02:18:18 1.4 C 45 %
3759 28-02-2020 02:28:18 1.5 C 45 %
3760 28-02-2020 02:38:18 1.4 C 44 %
3761 28-02-2020 02:48:17 1.4 C 44 %
3762 28-02-2020 02:58:18 1.4 C 43 %
3763 28-02-2020 03:08:18 1.5 C 42 %
3764 28-02-2020 03:18:18 1.3 C 43 %
3765 28-02-2020 03:28:18 1.1 C 43 %
3766 28-02-2020 03:38:18 1 C 43 %
3767 28-02-2020 03:48:17 0.9 C 44 %
3768 28-02-2020 03:58:17 1.1 C 44 %
3769 28-02-2020 04:08:17 1.2 C 43 %
3770 28-02-2020 04:18:17 1.3 C 43 %
3771 28-02-2020 04:28:18 1.3 C 43 %
3772 28-02-2020 04:38:18 1.3 C 43 %
3773 28-02-2020 04:48:17 1.3 C 43 %
3774 28-02-2020 04:58:17 1.4 C 42 %
3775 28-02-2020 05:08:17 1.2 C 42 %
Sensor: Nr:Datum:Temp:Feuchte:
Aussen-T/F 3776 28-02-2020 05:18:17 1 C 43 %
3777 28-02-2020 05:28:17 0.9 C 45 %
3778 28-02-2020 05:38:17 1 C 43 %
3779 28-02-2020 05:48:17 1.1 C 42 %
3780 28-02-2020 05:58:17 1.1 C 43 %
3781 28-02-2020 06:08:17 0.8 C 44 %
3782 28-02-2020 06:18:17 0.6 C 45 %
3783 28-02-2020 06:28:17 0.8 C 44 %
3784 28-02-2020 06:38:18 0.8 C 43 %
3785 28-02-2020 06:48:18 0.7 C 44 %
3786 28-02-2020 06:58:18 0.5 C 43 %
3787 28-02-2020 07:08:18 0.6 C 43 %
3788 28-02-2020 07:18:17 0.2 C 45 %
3789 28-02-2020 07:28:17 0.7 C 43 %
3790 28-02-2020 07:38:17 0.7 C 43 %
3791 28-02-2020 07:48:18 0.4 C 44 %
3792 28-02-2020 07:58:18 0.4 C 44 %
3793 28-02-2020 08:08:18 0.2 C 45 %
3794 28-02-2020 08:18:18 0.4 C 44 %
3795 28-02-2020 08:28:18 0.2 C 45 %
3796 28-02-2020 08:38:17 0.7 C 44 %
3797 28-02-2020 08:48:17 0.8 C 43 %
3798 28-02-2020 08:58:17 1.1 C 42 %
3799 28-02-2020 09:08:17 1.4 C 41 %
3800 28-02-2020 09:18:17 1.3 C 42 %
Sensor: Nr:Datum:Temp:Feuchte:
Aussen-T/F 3801 28-02-2020 09:28:17 1.5 C 41 %
3802 28-02-2020 09:38:17 1.7 C 41 %
3803 28-02-2020 09:48:18 1.8 C 41 %
3804 28-02-2020 09:58:18 1.9 C 41 %
3805 28-02-2020 10:08:18 2.1 C 40 %
3806 28-02-2020 10:18:18 2.5 C 40 %
3807 28-02-2020 10:28:18 2.8 C 39 %
3808 28-02-2020 10:38:17 3.2 C 37 %
3809 28-02-2020 10:48:17 3.1 C 37 %
3810 28-02-2020 10:58:17 3.3 C 37 %
3811 28-02-2020 11:08:17 3.6 C 37 %
3812 28-02-2020 11:18:17 3.8 C 37 %
3813 28-02-2020 11:28:17 4.2 C 36 %
3814 28-02-2020 11:38:17 4.5 C 36 %
3815 28-02-2020 11:48:18 3.8 C 37 %
3816 28-02-2020 11:58:18 4.1 C 35 %
3817 28-02-2020 12:08:18 4.3 C 35 %
3818 28-02-2020 12:18:18 4.3 C 36 %
3819 28-02-2020 12:28:18 4.6 C 35 %
3820 28-02-2020 12:38:18 5.1 C 34 %
3821 28-02-2020 12:48:18 6.3 C 33 %
3822 28-02-2020 12:58:18 6.5 C 33 %
3823 28-02-2020 13:08:18 6.8 C 32 %
3824 28-02-2020 13:18:18 7.2 C 31 %
3825 28-02-2020 13:28:18 6.7 C 31 %
Sensor: Nr:Datum:Temp:Feuchte:
Aussen-T/F 3826 28-02-2020 13:38:18 7 C 30 %
3827 28-02-2020 13:48:17 7.8 C 29 %
3828 28-02-2020 13:58:17 8 C 28 %
3829 28-02-2020 14:08:18 8.1 C 27 %
3830 28-02-2020 14:18:18 8 C 28 %
3831 28-02-2020 14:28:18 8.2 C 28 %
3832 28-02-2020 14:38:18 8.1 C 27 %
3833 28-02-2020 14:48:17 8.3 C 27 %
3834 28-02-2020 14:58:18 7.7 C 27 %
3835 28-02-2020 15:08:18 8 C 27 %
3836 28-02-2020 15:18:17 8 C 27 %
3837 28-02-2020 15:28:17 8.8 C 26 %
3838 28-02-2020 15:38:18 8.5 C 25 %
3839 28-02-2020 15:48:18 7.8 C 26 %
3840 28-02-2020 15:58:18 7.8 C 26 %
3841 28-02-2020 16:08:18 7.3 C 26 %
3842 28-02-2020 16:18:18 7.5 C 27 %
3843 28-02-2020 16:28:18 7 C 30 %
3844 28-02-2020 16:38:18 6.8 C 31 %
3845 28-02-2020 16:48:17 6.6 C 32 %
3846 28-02-2020 16:58:18 6.7 C 31 %
3847 28-02-2020 17:08:18 6.1 C 32 %
3848 28-02-2020 17:18:18 5.8 C 35 %
3849 28-02-2020 17:28:18 5.1 C 35 %
3850 28-02-2020 17:38:18 5.2 C 35 %
Sensor: Nr:Datum:Temp:Feuchte:
Aussen-T/F 3851 28-02-2020 17:48:17 4.8 C 37 %
3852 28-02-2020 17:58:18 4.6 C 37 %
3853 28-02-2020 18:08:17 4.5 C 37 %
3854 28-02-2020 18:18:17 4.5 C 37 %
3855 28-02-2020 18:28:17 4.7 C 36 %
3856 28-02-2020 18:38:18 5.1 C 34 %
3857 28-02-2020 18:48:17 5.1 C 33 %
3858 28-02-2020 18:58:17 4.9 C 35 %
3859 28-02-2020 19:08:17 5 C 32 %
3860 28-02-2020 19:18:17 5 C 32 %
3861 28-02-2020 19:28:18 4.8 C 35 %
3862 28-02-2020 19:38:17 5.3 C 33 %
3863 28-02-2020 19:48:17 5 C 34 %
3864 28-02-2020 19:58:17 5 C 34 %
3865 28-02-2020 20:08:17 4.7 C 35 %
3866 28-02-2020 20:18:18 4.9 C 33 %
3867 28-02-2020 20:28:18 4.5 C 35 %
3868 28-02-2020 20:38:18 4.4 C 36 %
3869 28-02-2020 20:48:17 4.1 C 36 %
3870 28-02-2020 20:58:17 4 C 38 %
3871 28-02-2020 21:08:18 3.7 C 40 %
3872 28-02-2020 21:18:18 3.7 C 41 %
3873 28-02-2020 21:28:18 3.8 C 40 %
3874 28-02-2020 21:38:18 3.8 C 40 %
3875 28-02-2020 21:48:17 4.2 C 37 %
Sensor: Nr:Datum:Temp:Feuchte:
Aussen-T/F 3876 28-02-2020 21:58:17 4 C 38 %
3877 28-02-2020 22:08:18 3.9 C 39 %
3878 28-02-2020 22:18:18 3.7 C 40 %
3879 28-02-2020 22:28:18 3.7 C 41 %
3880 28-02-2020 22:38:17 3.6 C 42 %
3881 28-02-2020 22:48:17 3.5 C 44 %
3882 28-02-2020 22:58:17 3.6 C 45 %
3883 28-02-2020 23:08:17 3.4 C 46 %
3884 28-02-2020 23:18:17 3.5 C 46 %
3885 28-02-2020 23:28:18 3.6 C 45 %
3886 28-02-2020 23:38:18 3.8 C 43 %
3887 28-02-2020 23:48:18 3.9 C 44 %
3888 28-02-2020 23:58:18 3.9 C 44 %
3889 29-02-2020 00:08:18 4.3 C 42 %
3890 29-02-2020 00:18:18 4.5 C 42 %
3891 29-02-2020 00:28:18 4.7 C 41 %
3892 29-02-2020 00:38:18 5.1 C 40 %
3893 29-02-2020 00:48:17 5 C 41 %
3894 29-02-2020 00:58:17 4.8 C 42 %
3895 29-02-2020 01:08:18 5 C 42 %
3896 29-02-2020 01:18:18 4.8 C 43 %
3897 29-02-2020 01:28:18 4.9 C 45 %
3898 29-02-2020 01:38:18 5 C 44 %
3899 29-02-2020 01:48:17 5.1 C 45 %
3900 29-02-2020 01:58:17 5.1 C 45 %
Sensor: Nr:Datum:Temp:Feuchte:
Aussen-T/F 3901 29-02-2020 02:08:18 5.2 C 44 %
3902 29-02-2020 02:18:18 5.2 C 45 %
3903 29-02-2020 02:28:18 5.3 C 45 %
3904 29-02-2020 02:38:18 5.6 C 44 %
3905 29-02-2020 02:48:17 5.9 C 43 %
3906 29-02-2020 02:58:17 7 C 41 %
3907 29-02-2020 03:08:18 7.5 C 40 %
3908 29-02-2020 03:18:18 7.8 C 39 %
3909 29-02-2020 03:28:18 8.5 C 38 %
3910 29-02-2020 03:38:18 8.3 C 38 %
3911 29-02-2020 03:48:17 8.8 C 38 %
3912 29-02-2020 03:58:17 8.9 C 38 %
3913 29-02-2020 04:08:18 9.1 C 37 %
3914 29-02-2020 04:18:17 9.4 C 37 %
3915 29-02-2020 04:28:18 9.5 C 37 %
3916 29-02-2020 04:38:18 9 C 37 %
3917 29-02-2020 04:48:17 9.3 C 37 %
3918 29-02-2020 04:58:17 9 C 37 %
3919 29-02-2020 05:08:18 9.1 C 37 %
3920 29-02-2020 05:18:17 9 C 37 %
3921 29-02-2020 05:28:17 9.2 C 36 %
3922 29-02-2020 05:38:17 8.6 C 37 %
3923 29-02-2020 05:48:18 8.8 C 37 %
3924 29-02-2020 05:58:18 9.1 C 36 %
3925 29-02-2020 06:08:17 8.8 C 37 %
Sensor: Nr:Datum:Temp:Feuchte:
Aussen-T/F 3926 29-02-2020 06:18:17 8.4 C 37 %
3927 29-02-2020 06:28:17 8.6 C 37 %
3928 29-02-2020 06:38:17 8.7 C 37 %
3929 29-02-2020 06:48:17 8.6 C 37 %
3930 29-02-2020 06:58:17 8.4 C 37 %
3931 29-02-2020 07:08:17 8.1 C 37 %
3932 29-02-2020 07:18:17 8 C 37 %
3933 29-02-2020 07:28:17 8.3 C 37 %
3934 29-02-2020 07:38:17 7.8 C 38 %
3935 29-02-2020 07:48:17 7.6 C 38 %
3936 29-02-2020 07:58:17 7.3 C 39 %
3937 29-02-2020 08:08:17 7.6 C 38 %
3938 29-02-2020 08:18:17 7.4 C 39 %
3939 29-02-2020 08:28:17 7.5 C 39 %
3940 29-02-2020 08:38:17 7.4 C 39 %
3941 29-02-2020 08:48:17 7.6 C 39 %
3942 29-02-2020 08:58:17 8 C 38 %
3943 29-02-2020 09:08:17 8.3 C 37 %
3944 29-02-2020 09:18:17 8.9 C 36 %
3945 29-02-2020 09:28:17 9.2 C 36 %
3946 29-02-2020 09:38:17 9.6 C 35 %
3947 29-02-2020 09:48:17 10 C 33 %
3948 29-02-2020 09:58:17 10 C 32 %
3949 29-02-2020 10:08:17 10 C 32 %
3950 29-02-2020 10:18:17 9.9 C 33 %
Sensor: Nr:Datum:Temp:Feuchte:
Aussen-T/F 3951 29-02-2020 10:28:17 10.1 C 31 %
3952 29-02-2020 10:38:18 10.4 C 31 %
3953 29-02-2020 10:48:17 10.7 C 31 %
3954 29-02-2020 10:58:17 10.7 C 31 %
3955 29-02-2020 11:08:18 11.1 C 30 %
3956 29-02-2020 11:18:17 12.1 C 30 %
3957 29-02-2020 11:28:17 13.9 C 25 %
3958 29-02-2020 11:38:17 13.7 C 23 %
3959 29-02-2020 11:48:17 13.4 C 24 %
3960 29-02-2020 11:58:17 14.3 C 23 %
3961 29-02-2020 12:08:17 15.5 C 20 %
3962 29-02-2020 12:18:18 15.4 C 20 %
3963 29-02-2020 12:28:18 15.1 C 20 %
3964 29-02-2020 12:38:17 16.2 C 20 %
3965 29-02-2020 12:48:17 15.1 C 20 %
3966 29-02-2020 12:58:17 15.4 C 20 %
3967 29-02-2020 13:08:17 15.5 C 20 %
3968 29-02-2020 13:18:17 15 C 20 %
3969 29-02-2020 13:28:17 14.8 C 20 %
3970 29-02-2020 13:38:18 15.4 C 20 %
3971 29-02-2020 13:48:18 15.6 C 20 %
3972 29-02-2020 13:58:18 16.4 C 20 %
3973 29-02-2020 14:08:18 15.1 C 20 %
3974 29-02-2020 14:18:17 15.1 C 20 %
3975 29-02-2020 14:28:17 14.8 C 21 %
Sensor: Nr:Datum:Temp:Feuchte:
Aussen-T/F 3976 29-02-2020 14:38:17 13.1 C 26 %
3977 29-02-2020 14:48:17 12 C 32 %
3978 29-02-2020 14:58:17 10.5 C 38 %
3979 29-02-2020 15:08:17 10.4 C 39 %
3980 29-02-2020 15:18:17 10.8 C 39 %
3981 29-02-2020 15:28:17 10.6 C 40 %
3982 29-02-2020 15:38:18 10.4 C 39 %
3983 29-02-2020 15:48:17 10.7 C 37 %
3984 29-02-2020 15:58:17 11.3 C 35 %
3985 29-02-2020 16:08:18 12.6 C 32 %
3986 29-02-2020 16:18:17 12 C 32 %
3987 29-02-2020 16:28:18 10.7 C 35 %
3988 29-02-2020 16:38:18 10.1 C 37 %
3989 29-02-2020 16:48:17 9.9 C 37 %
3990 29-02-2020 16:58:17 9.5 C 36 %
3991 29-02-2020 17:08:18 9 C 35 %
3992 29-02-2020 17:18:17 8.9 C 35 %
3993 29-02-2020 17:28:18 8.8 C 34 %
3994 29-02-2020 17:38:18 8.6 C 34 %
3995 29-02-2020 17:48:18 8.6 C 35 %
3996 29-02-2020 17:58:18 8.7 C 34 %
3997 29-02-2020 18:08:18 8.6 C 35 %
3998 29-02-2020 18:18:18 8.2 C 35 %
3999 29-02-2020 18:28:18 8.1 C 35 %
4000 29-02-2020 18:38:18 8 C 35 %
Sensor: Nr:Datum:Temp:Feuchte:
Aussen-T/F 4001 29-02-2020 18:48:17 6.7 C 36 %
4002 29-02-2020 18:58:17 5.9 C 36 %
4003 29-02-2020 19:08:17 5.9 C 37 %
4004 29-02-2020 19:18:18 6 C 36 %
4005 29-02-2020 19:28:18 6.3 C 35 %
4006 29-02-2020 19:38:18 6.7 C 34 %
4007 29-02-2020 19:48:18 6.6 C 34 %
4008 29-02-2020 19:58:18 6.7 C 34 %
4009 29-02-2020 20:08:18 6.6 C 34 %
4010 29-02-2020 20:18:18 6.3 C 34 %
4011 29-02-2020 20:28:18 6.3 C 34 %
4012 29-02-2020 20:38:18 5.9 C 35 %
4013 29-02-2020 20:48:18 5.7 C 35 %
4014 29-02-2020 20:58:18 5.3 C 35 %
4015 29-02-2020 21:08:18 5.2 C 35 %
4016 29-02-2020 21:18:17 5.7 C 34 %
4017 29-02-2020 21:28:17 5 C 35 %
4018 29-02-2020 21:38:17 5 C 35 %
4019 29-02-2020 21:48:17 4.3 C 36 %
4020 29-02-2020 21:58:17 3.9 C 38 %
4021 29-02-2020 22:08:17 3.7 C 38 %
4022 29-02-2020 22:18:18 3.4 C 39 %
4023 29-02-2020 22:28:18 3.3 C 40 %
4024 29-02-2020 22:38:18 3.3 C 41 %
4025 29-02-2020 22:48:17 3.7 C 40 %
Sensor: Nr:Datum:Temp:Feuchte:
Aussen-T/F 4026 29-02-2020 22:58:18 4 C 39 %
4027 29-02-2020 23:08:18 4.2 C 38 %
4028 29-02-2020 23:18:18 4.4 C 38 %
4029 29-02-2020 23:28:18 4.5 C 38 %
4030 29-02-2020 23:38:18 4.7 C 38 %
4031 29-02-2020 23:48:18 5.4 C 36 %
4032 29-02-2020 23:58:18 6.3 C 35 %
4033 01-03-2020 00:08:18 6.6 C 35 %
4034 01-03-2020 00:18:18 6.6 C 35 %
4035 01-03-2020 00:28:18 6.3 C 35 %
4036 01-03-2020 00:38:18 6.2 C 35 %
4037 01-03-2020 00:48:17 6.2 C 35 %
4038 01-03-2020 00:58:18 6.2 C 35 %
4039 01-03-2020 01:08:17 6.1 C 35 %
4040 01-03-2020 01:18:18 6 C 35 %
4041 01-03-2020 01:28:18 5.7 C 35 %
4042 01-03-2020 01:38:18 5.5 C 36 %
4043 01-03-2020 01:48:17 5.8 C 36 %
4044 01-03-2020 01:58:17 5.8 C 35 %
4045 01-03-2020 02:08:17 5.3 C 36 %
4046 01-03-2020 02:18:17 5.8 C 36 %
4047 01-03-2020 02:28:17 5.7 C 36 %
4048 01-03-2020 02:38:17 5.8 C 36 %
4049 01-03-2020 02:48:17 6.2 C 35 %
4050 01-03-2020 02:58:17 6.5 C 35 %
Sensor: Nr:Datum:Temp:Feuchte:
Aussen-T/F 4051 01-03-2020 03:08:18 6.5 C 35 %
4052 01-03-2020 03:18:17 6.6 C 35 %
4053 01-03-2020 03:28:17 6.7 C 35 %
4054 01-03-2020 03:38:18 6.5 C 35 %
4055 01-03-2020 03:48:17 6.4 C 35 %
4056 01-03-2020 03:58:17 6.8 C 35 %
4057 01-03-2020 04:08:17 6.6 C 35 %
4058 01-03-2020 04:18:17 6.9 C 34 %
4059 01-03-2020 04:28:17 7 C 33 %
4060 01-03-2020 04:38:18 6.9 C 34 %
4061 01-03-2020 04:48:17 7.1 C 33 %
4062 01-03-2020 04:58:17 7 C 33 %
4063 01-03-2020 05:08:17 7.1 C 33 %
4064 01-03-2020 05:18:18 6.8 C 34 %
4065 01-03-2020 05:28:18 7.2 C 32 %
4066 01-03-2020 05:38:18 6.8 C 34 %
4067 01-03-2020 05:48:17 6.9 C 34 %
4068 01-03-2020 05:58:18 6.6 C 34 %
4069 01-03-2020 06:08:18 6.7 C 34 %
4070 01-03-2020 06:18:17 6.8 C 34 %
4071 01-03-2020 06:28:17 7 C 33 %
4072 01-03-2020 06:38:17 7.1 C 33 %
4073 01-03-2020 06:48:17 6.4 C 35 %
4074 01-03-2020 06:58:17 5.9 C 36 %
4075 01-03-2020 07:08:17 5.4 C 38 %
Sensor: Nr:Datum:Temp:Feuchte:
Aussen-T/F 4076 01-03-2020 07:18:17 5.4 C 39 %
4077 01-03-2020 07:28:18 5.2 C 39 %
4078 01-03-2020 07:38:18 5.1 C 41 %
4079 01-03-2020 07:48:18 5.2 C 41 %
4080 01-03-2020 07:58:18 5.2 C 42 %
4081 01-03-2020 08:08:18 5.2 C 42 %
4082 01-03-2020 08:18:17 5.3 C 42 %
4083 01-03-2020 08:28:17 5 C 40 %
4084 01-03-2020 08:38:17 4.7 C 41 %
4085 01-03-2020 08:48:17 4 C 41 %
4086 01-03-2020 08:58:17 4 C 42 %
4087 01-03-2020 09:08:17 4.1 C 42 %
4088 01-03-2020 09:18:17 4.3 C 41 %
4089 01-03-2020 09:28:17 4.8 C 40 %
4090 01-03-2020 09:38:17 4.8 C 41 %
4091 01-03-2020 09:48:18 4.7 C 41 %
4092 01-03-2020 09:58:18 4.8 C 41 %
4093 01-03-2020 10:08:17 5.3 C 40 %
4094 01-03-2020 10:18:17 5.7 C 39 %
4095 01-03-2020 10:28:17 7.1 C 36 %
4096 01-03-2020 10:38:17 7.6 C 36 %
4097 01-03-2020 10:48:17 7.8 C 35 %
4098 01-03-2020 10:58:17 8 C 34 %
4099 01-03-2020 11:08:17 8.1 C 33 %
4100 01-03-2020 11:18:17 8.6 C 33 %
Sensor: Nr:Datum:Temp:Feuchte:
Aussen-T/F 4101 01-03-2020 11:28:18 10 C 30 %
4102 01-03-2020 11:38:18 10.2 C 28 %
4103 01-03-2020 11:48:17 8.8 C 29 %
4104 01-03-2020 11:58:17 10.2 C 27 %
4105 01-03-2020 12:08:17 8.9 C 30 %
4106 01-03-2020 12:18:17 9.3 C 28 %
4107 01-03-2020 12:28:17 9.7 C 27 %
4108 01-03-2020 12:38:18 9.2 C 28 %
4109 01-03-2020 12:48:18 11.4 C 26 %
4110 01-03-2020 12:58:18 12.3 C 21 %
4111 01-03-2020 13:08:18 11.4 C 24 %
4112 01-03-2020 13:18:17 10.4 C 25 %
4113 01-03-2020 13:28:17 10.4 C 25 %
4114 01-03-2020 13:38:17 10.6 C 22 %
4115 01-03-2020 13:48:17 10.2 C 22 %
4116 01-03-2020 13:58:17 10.8 C 22 %
4117 01-03-2020 14:08:18 10.1 C 23 %
4118 01-03-2020 14:18:18 9.9 C 25 %
4119 01-03-2020 14:28:18 10.9 C 25 %
4120 01-03-2020 14:38:18 10.5 C 23 %
4121 01-03-2020 14:48:17 10.9 C 25 %
4122 01-03-2020 14:58:18 10.1 C 25 %
4123 01-03-2020 15:08:18 10.1 C 25 %
4124 01-03-2020 15:18:17 12.6 C 20 %
4125 01-03-2020 15:28:17 11.9 C 22 %
Sensor: Nr:Datum:Temp:Feuchte:
Aussen-T/F 4126 01-03-2020 15:38:18 12 C 20 %
4127 01-03-2020 15:48:18 12.8 C 20 %
4128 01-03-2020 15:58:18 11.7 C 21 %
4129 01-03-2020 16:08:18 10.8 C 25 %
4130 01-03-2020 16:18:18 10.5 C 25 %
4131 01-03-2020 16:28:18 10.7 C 25 %
4132 01-03-2020 16:38:18 10.3 C 30 %
4133 01-03-2020 16:48:18 10.2 C 29 %
4134 01-03-2020 16:58:18 9.7 C 31 %
4135 01-03-2020 17:08:18 8.4 C 35 %
4136 01-03-2020 17:18:17 7.8 C 39 %
4137 01-03-2020 17:28:17 7.6 C 42 %
4138 01-03-2020 17:38:17 7.3 C 43 %
4139 01-03-2020 17:48:17 7 C 44 %
4140 01-03-2020 17:58:17 6.9 C 45 %
4141 01-03-2020 18:08:18 6.8 C 45 %
4142 01-03-2020 18:18:18 6.7 C 45 %
4143 01-03-2020 18:28:18 6.7 C 45 %
4144 01-03-2020 18:38:18 6.7 C 45 %
4145 01-03-2020 18:48:18 6.6 C 45 %
4146 01-03-2020 18:58:18 6.5 C 45 %
4147 01-03-2020 19:08:18 6.5 C 45 %
4148 01-03-2020 19:18:17 6.5 C 45 %
4149 01-03-2020 19:28:17 6.4 C 45 %
4150 01-03-2020 19:38:17 6.3 C 45 %
Sensor: Nr:Datum:Temp:Feuchte:
Aussen-T/F 4151 01-03-2020 19:48:17 6.3 C 45 %
4152 01-03-2020 19:58:17 6.2 C 45 %
4153 01-03-2020 20:08:17 6.3 C 45 %
4154 01-03-2020 20:18:17 6.2 C 45 %
4155 01-03-2020 20:28:17 6 C 45 %
4156 01-03-2020 20:38:17 5.8 C 45 %
4157 01-03-2020 20:48:17 5.7 C 45 %
4158 01-03-2020 20:58:17 5.6 C 45 %
4159 01-03-2020 21:08:17 5.6 C 45 %
4160 01-03-2020 21:18:17 5.5 C 45 %
4161 01-03-2020 21:28:17 5.4 C 45 %
4162 01-03-2020 21:38:17 5.7 C 45 %
4163 01-03-2020 21:48:17 5.8 C 45 %
4164 01-03-2020 21:58:17 5.9 C 45 %
4165 01-03-2020 22:08:17 6 C 45 %
4166 01-03-2020 22:18:17 6 C 45 %
4167 01-03-2020 22:28:17 6.1 C 45 %
4168 01-03-2020 22:38:18 6.2 C 45 %
4169 01-03-2020 22:48:17 6.2 C 45 %
4170 01-03-2020 22:58:17 6.3 C 45 %
4171 01-03-2020 23:08:18 6.4 C 45 %
4172 01-03-2020 23:18:18 5.8 C 45 %
4173 01-03-2020 23:28:18 4.3 C 40 %
4174 01-03-2020 23:38:18 3.1 C 41 %
4175 01-03-2020 23:48:18 2.9 C 44 %
Sensor: Nr:Datum:Temp:Feuchte:
Aussen-T/F 4176 01-03-2020 23:58:18 3.1 C 44 %
4177 02-03-2020 00:08:18 3.3 C 44 %
4178 02-03-2020 00:18:17 3.3 C 43 %
4179 02-03-2020 00:28:17 3.5 C 43 %
4180 02-03-2020 00:38:17 3.5 C 43 %
4181 02-03-2020 00:48:17 3.7 C 42 %
4182 02-03-2020 00:58:18 3.6 C 42 %
4183 02-03-2020 01:08:18 3.7 C 42 %
4184 02-03-2020 01:18:17 3.9 C 41 %
4185 02-03-2020 01:28:17 3.8 C 42 %
4186 02-03-2020 01:38:17 3.8 C 41 %
4187 02-03-2020 01:48:18 4 C 40 %
4188 02-03-2020 01:58:18 3.5 C 42 %
4189 02-03-2020 02:08:18 3.7 C 42 %
4190 02-03-2020 02:18:17 3.6 C 42 %
4191 02-03-2020 02:28:17 3.5 C 42 %
4192 02-03-2020 02:38:17 4 C 40 %
4193 02-03-2020 02:48:17 3.8 C 41 %
4194 02-03-2020 02:58:18 3.5 C 42 %
4195 02-03-2020 03:08:18 3.3 C 43 %
4196 02-03-2020 03:18:18 3.4 C 42 %
4197 02-03-2020 03:28:18 2.9 C 44 %
4198 02-03-2020 03:38:18 2.4 C 45 %
4199 02-03-2020 03:48:18 2.9 C 45 %
4200 02-03-2020 03:58:18 2.6 C 45 %
Sensor: Nr:Datum:Temp:Feuchte:
Aussen-T/F 4201 02-03-2020 04:08:18 2.3 C 45 %
4202 02-03-2020 04:18:17 2 C 46 %
4203 02-03-2020 04:28:17 2.2 C 46 %
4204 02-03-2020 04:38:18 2.3 C 47 %
4205 02-03-2020 04:48:18 2.2 C 46 %
4206 02-03-2020 04:58:18 1.9 C 48 %
4207 02-03-2020 05:08:18 1.7 C 48 %
4208 02-03-2020 05:18:17 1.5 C 48 %
4209 02-03-2020 05:28:17 1.3 C 48 %
4210 02-03-2020 05:38:18 1.4 C 48 %
4211 02-03-2020 05:48:18 1.4 C 48 %
4212 02-03-2020 05:58:18 1.3 C 48 %
4213 02-03-2020 06:08:18 1.1 C 48 %
4214 02-03-2020 06:18:18 1.3 C 48 %
4215 02-03-2020 06:28:18 1.3 C 48 %
4216 02-03-2020 06:38:18 1.4 C 48 %
4217 02-03-2020 06:48:17 1.4 C 48 %
4218 02-03-2020 06:58:17 1.5 C 48 %
4219 02-03-2020 07:08:18 1.5 C 48 %
4220 02-03-2020 07:18:18 1.7 C 48 %
4221 02-03-2020 07:28:18 1.8 C 48 %
4222 02-03-2020 07:38:18 2.1 C 47 %
4223 02-03-2020 07:48:18 2.3 C 47 %
4224 02-03-2020 07:58:18 2.5 C 47 %
4225 02-03-2020 08:08:18 2.5 C 47 %
Sensor: Nr:Datum:Temp:Feuchte:
Aussen-T/F 4226 02-03-2020 08:18:17 2.7 C 47 %
4227 02-03-2020 08:28:17 3 C 46 %
4228 02-03-2020 08:38:18 3.2 C 46 %
4229 02-03-2020 08:48:18 3.5 C 46 %
4230 02-03-2020 08:58:18 3.8 C 45 %
4231 02-03-2020 09:08:17 4.1 C 43 %
4232 02-03-2020 09:18:17 4.5 C 42 %
4233 02-03-2020 09:28:17 4.9 C 40 %
4234 02-03-2020 09:38:17 5.4 C 39 %
4235 02-03-2020 09:48:17 5.7 C 39 %
4236 02-03-2020 09:58:17 6.1 C 38 %
4237 02-03-2020 10:08:17 6.6 C 37 %
4238 02-03-2020 10:18:17 6.9 C 36 %
4239 02-03-2020 10:28:17 7.4 C 35 %
4240 02-03-2020 10:38:18 8.2 C 34 %
4241 02-03-2020 10:48:17 8.9 C 34 %
4242 02-03-2020 10:58:17 9 C 33 %
4243 02-03-2020 11:08:17 9 C 33 %
4244 02-03-2020 11:18:17 11.5 C 30 %
4245 02-03-2020 11:28:17 13 C 26 %
4246 02-03-2020 11:38:17 13.9 C 25 %
4247 02-03-2020 11:48:17 11.8 C 27 %
4248 02-03-2020 11:58:17 13.6 C 24 %
4249 02-03-2020 12:08:17 13.3 C 21 %
4250 02-03-2020 12:18:17 13.2 C 21 %
Sensor: Nr:Datum:Temp:Feuchte:
Aussen-T/F 4251 02-03-2020 12:28:17 12.3 C 23 %
4252 02-03-2020 12:38:18 13 C 23 %
4253 02-03-2020 12:48:18 11.8 C 24 %
4254 02-03-2020 12:58:18 11.7 C 25 %
4255 02-03-2020 13:08:18 12.4 C 23 %
4256 02-03-2020 13:18:18 14.7 C 20 %
4257 02-03-2020 13:28:18 14.2 C 20 %
4258 02-03-2020 13:38:17 15.6 C 20 %
4259 02-03-2020 13:48:17 14.1 C 20 %
4260 02-03-2020 13:58:17 12.3 C 21 %
4261 02-03-2020 14:08:17 11.8 C 23 %
4262 02-03-2020 14:18:17 12.1 C 23 %
4263 02-03-2020 14:28:17 11.7 C 25 %
4264 02-03-2020 14:38:17 11.2 C 25 %
4265 02-03-2020 14:48:17 10.9 C 25 %
4266 02-03-2020 14:58:17 10.8 C 26 %
4267 02-03-2020 15:08:18 10.9 C 26 %
4268 02-03-2020 15:18:18 10.9 C 26 %
4269 02-03-2020 15:28:18 10.2 C 26 %
4270 02-03-2020 15:38:18 9.2 C 30 %
4271 02-03-2020 15:48:17 8.7 C 33 %
4272 02-03-2020 15:58:18 8.4 C 36 %
4273 02-03-2020 16:08:18 8 C 40 %
4274 02-03-2020 16:18:18 7.6 C 41 %
4275 02-03-2020 16:28:18 7.3 C 42 %
Sensor: Nr:Datum:Temp:Feuchte:
Aussen-T/F 4276 02-03-2020 16:38:18 7.2 C 43 %
4277 02-03-2020 16:48:17 7.1 C 43 %
4278 02-03-2020 16:58:17 7 C 44 %
4279 02-03-2020 17:08:17 6.9 C 45 %
4280 02-03-2020 17:18:17 6.6 C 45 %
4281 02-03-2020 17:28:17 6.6 C 45 %
4282 02-03-2020 17:38:18 6.4 C 45 %
4283 02-03-2020 17:48:17 6.3 C 45 %
4284 02-03-2020 17:58:18 6.3 C 45 %
4285 02-03-2020 18:08:18 6.2 C 45 %
4286 02-03-2020 18:18:18 6.1 C 45 %
4287 02-03-2020 18:28:18 6 C 45 %
4288 02-03-2020 18:38:18 5.9 C 46 %
4289 02-03-2020 18:48:17 5.9 C 46 %
4290 02-03-2020 18:58:18 5.8 C 46 %
4291 02-03-2020 19:08:18 5.7 C 46 %
4292 02-03-2020 19:18:18 5.7 C 46 %
4293 02-03-2020 19:28:18 5.7 C 46 %
4294 02-03-2020 19:38:18 5.7 C 46 %
4295 02-03-2020 19:48:17 5.7 C 45 %
4296 02-03-2020 19:58:18 5.7 C 45 %
4297 02-03-2020 20:08:18 5.7 C 45 %
4298 02-03-2020 20:18:17 5.7 C 45 %
4299 02-03-2020 20:28:18 5.6 C 45 %
4300 02-03-2020 20:38:18 5.6 C 45 %
Sensor: Nr:Datum:Temp:Feuchte:
Aussen-T/F 4301 02-03-2020 20:48:17 5.6 C 45 %
4302 02-03-2020 20:58:17 5.5 C 45 %
4303 02-03-2020 21:08:18 5.4 C 45 %
4304 02-03-2020 21:18:18 5.4 C 45 %
4305 02-03-2020 21:28:18 5.4 C 45 %
4306 02-03-2020 21:38:18 5.4 C 45 %
4307 02-03-2020 21:48:18 5.4 C 45 %
4308 02-03-2020 21:58:18 5.4 C 45 %
4309 02-03-2020 22:08:18 5.4 C 45 %
4310 02-03-2020 22:18:17 5.4 C 45 %
4311 02-03-2020 22:28:17 5.5 C 45 %
4312 02-03-2020 22:38:17 5.4 C 45 %
4313 02-03-2020 22:48:17 5.5 C 45 %
4314 02-03-2020 22:58:17 5.5 C 45 %
4315 02-03-2020 23:08:17 5.5 C 45 %
4316 02-03-2020 23:18:17 5.2 C 45 %
4317 02-03-2020 23:28:17 5.2 C 45 %
4318 02-03-2020 23:38:17 5.2 C 45 %
4319 02-03-2020 23:48:17 5.3 C 45 %
4320 02-03-2020 23:58:17 5.3 C 45 %
4321 03-03-2020 00:08:18 5.2 C 45 %
4322 03-03-2020 00:18:18 5.1 C 44 %
4323 03-03-2020 00:28:18 5 C 44 %
4324 03-03-2020 00:38:18 5 C 44 %
4325 03-03-2020 00:48:17 4.9 C 45 %
Sensor: Nr:Datum:Temp:Feuchte:
Aussen-T/F 4326 03-03-2020 00:58:17 4.9 C 45 %
4327 03-03-2020 01:08:17 5.1 C 44 %
4328 03-03-2020 01:18:17 5 C 43 %
4329 03-03-2020 01:28:17 5 C 43 %
4330 03-03-2020 01:38:18 4.6 C 41 %
4331 03-03-2020 01:48:17 4.5 C 42 %
4332 03-03-2020 01:58:17 4.4 C 43 %
4333 03-03-2020 02:08:17 4.4 C 43 %
4334 03-03-2020 02:18:17 4.2 C 42 %
4335 03-03-2020 02:28:17 4.1 C 41 %
4336 03-03-2020 02:38:18 4.1 C 41 %
4337 03-03-2020 02:48:18 4.1 C 41 %
4338 03-03-2020 02:58:18 3.9 C 42 %
4339 03-03-2020 03:08:17 3.8 C 41 %
4340 03-03-2020 03:18:17 3.7 C 40 %
4341 03-03-2020 03:28:17 3.4 C 41 %
4342 03-03-2020 03:38:18 3.5 C 41 %
4343 03-03-2020 03:48:18 3 C 42 %
4344 03-03-2020 03:58:18 3.1 C 42 %
4345 03-03-2020 04:08:17 2.8 C 43 %
4346 03-03-2020 04:18:17 3.2 C 41 %
4347 03-03-2020 04:28:17 3.2 C 41 %
4348 03-03-2020 04:38:18 2.9 C 42 %
4349 03-03-2020 04:48:17 2.9 C 43 %
4350 03-03-2020 04:58:18 3.2 C 41 %
Sensor: Nr:Datum:Temp:Feuchte:
Aussen-T/F 4351 03-03-2020 05:08:18 3.1 C 41 %
4352 03-03-2020 05:18:18 2.7 C 43 %
4353 03-03-2020 05:28:18 2.3 C 44 %
4354 03-03-2020 05:38:17 2.6 C 43 %
4355 03-03-2020 05:48:18 2.7 C 42 %
4356 03-03-2020 05:58:18 2.4 C 44 %
4357 03-03-2020 06:08:17 3 C 42 %
4358 03-03-2020 06:18:18 3.1 C 41 %
4359 03-03-2020 06:28:18 2.8 C 42 %
4360 03-03-2020 06:38:17 2.6 C 43 %
4361 03-03-2020 06:48:18 2.7 C 42 %
4362 03-03-2020 06:58:18 2.8 C 42 %
4363 03-03-2020 07:08:18 2.8 C 42 %
4364 03-03-2020 07:18:18 2.6 C 43 %
4365 03-03-2020 07:28:18 2.7 C 43 %
4366 03-03-2020 07:38:18 2.6 C 43 %
4367 03-03-2020 07:48:17 2.5 C 43 %
4368 03-03-2020 07:58:17 2.5 C 43 %
4369 03-03-2020 08:08:18 2.7 C 43 %
4370 03-03-2020 08:18:18 3.3 C 41 %
4371 03-03-2020 08:28:18 3.2 C 41 %
4372 03-03-2020 08:38:17 3.5 C 40 %
4373 03-03-2020 08:48:17 3.6 C 40 %
4374 03-03-2020 08:58:18 3.4 C 40 %
4375 03-03-2020 09:08:18 3.5 C 40 %
Sensor: Nr:Datum:Temp:Feuchte:
Aussen-T/F 4376 03-03-2020 09:18:17 3.2 C 40 %
4377 03-03-2020 09:28:17 3.5 C 40 %
4378 03-03-2020 09:38:17 3.6 C 40 %
4379 03-03-2020 09:48:18 4.1 C 39 %
4380 03-03-2020 09:58:18 4.6 C 38 %
4381 03-03-2020 10:08:18 5.3 C 36 %
4382 03-03-2020 10:18:18 5.1 C 36 %
4383 03-03-2020 10:28:18 5.2 C 35 %
4384 03-03-2020 10:38:18 5.4 C 35 %
4385 03-03-2020 10:48:17 4.9 C 35 %
4386 03-03-2020 10:58:18 5 C 35 %
4387 03-03-2020 11:08:17 5.2 C 35 %
4388 03-03-2020 11:18:17 5.2 C 35 %
4389 03-03-2020 11:28:17 5.3 C 35 %
4390 03-03-2020 11:38:17 5.1 C 35 %
4391 03-03-2020 11:48:17 5.8 C 35 %
4392 03-03-2020 11:58:17 5.7 C 35 %
4393 03-03-2020 12:08:17 6.1 C 35 %
4394 03-03-2020 12:18:17 6.4 C 34 %
4395 03-03-2020 12:28:17 6.6 C 34 %
4396 03-03-2020 12:38:17 6.5 C 33 %
4397 03-03-2020 12:48:17 7.1 C 33 %
4398 03-03-2020 12:58:17 6.6 C 33 %
4399 03-03-2020 13:08:17 6.6 C 33 %
4400 03-03-2020 13:18:17 9.6 C 28 %
Sensor: Nr:Datum:Temp:Feuchte:
Aussen-T/F 4401 03-03-2020 13:28:18 9.8 C 27 %
4402 03-03-2020 13:38:18 8.9 C 27 %
4403 03-03-2020 13:48:17 9.7 C 25 %
4404 03-03-2020 13:58:17 6.2 C 31 %
4405 03-03-2020 14:08:18 5.8 C 35 %
4406 03-03-2020 14:18:18 5.4 C 39 %
4407 03-03-2020 14:28:18 5.7 C 38 %
4408 03-03-2020 14:38:18 5 C 37 %
4409 03-03-2020 14:48:18 4.7 C 39 %
4410 03-03-2020 14:58:18 4.7 C 40 %
4411 03-03-2020 15:08:18 4.7 C 39 %
4412 03-03-2020 15:18:18 6.8 C 36 %
4413 03-03-2020 15:28:18 6.9 C 35 %
4414 03-03-2020 15:38:18 8.9 C 32 %
4415 03-03-2020 15:48:17 8.9 C 30 %
4416 03-03-2020 15:58:17 7.4 C 32 %
4417 03-03-2020 16:08:18 11.8 C 23 %
4418 03-03-2020 16:18:18 9.3 C 25 %
4419 03-03-2020 16:28:18 7.4 C 30 %
4420 03-03-2020 16:38:18 7.2 C 30 %
4421 03-03-2020 16:48:17 7.3 C 31 %
4422 03-03-2020 16:58:17 7.6 C 30 %
4423 03-03-2020 17:08:17 6.7 C 32 %
4424 03-03-2020 17:18:17 6.7 C 33 %
4425 03-03-2020 17:28:18 6.5 C 34 %
Sensor: Nr:Datum:Temp:Feuchte:
Aussen-T/F 4426 03-03-2020 17:38:18 6.4 C 34 %
4427 03-03-2020 17:48:17 6 C 35 %
4428 03-03-2020 17:58:18 5.4 C 36 %
4429 03-03-2020 18:08:18 4.3 C 38 %
4430 03-03-2020 18:18:18 4.4 C 39 %
4431 03-03-2020 18:28:18 4 C 39 %
4432 03-03-2020 18:38:18 3.7 C 41 %
4433 03-03-2020 18:48:17 3.5 C 41 %
4434 03-03-2020 18:58:17 3.6 C 41 %
4435 03-03-2020 19:08:17 3.6 C 40 %
4436 03-03-2020 19:18:17 3.8 C 40 %
4437 03-03-2020 19:28:17 3.1 C 41 %
4438 03-03-2020 19:38:17 3.2 C 41 %
4439 03-03-2020 19:48:17 2.7 C 42 %
4440 03-03-2020 19:58:17 2.3 C 42 %
4441 03-03-2020 20:08:17 1.7 C 45 %
4442 03-03-2020 20:18:17 1.8 C 47 %
4443 03-03-2020 20:28:17 1.7 C 47 %
4444 03-03-2020 20:38:17 1.3 C 46 %
4445 03-03-2020 20:48:17 1.4 C 47 %
4446 03-03-2020 20:58:17 1.3 C 47 %
4447 03-03-2020 21:08:17 1.2 C 47 %
4448 03-03-2020 21:18:17 1.6 C 48 %
4449 03-03-2020 21:28:17 2 C 47 %
4450 03-03-2020 21:38:17 2.1 C 45 %
Sensor: Nr:Datum:Temp:Feuchte:
Aussen-T/F 4451 03-03-2020 21:48:17 2 C 45 %
4452 03-03-2020 21:58:17 2.2 C 45 %
4453 03-03-2020 22:08:17 1.9 C 46 %
4454 03-03-2020 22:18:17 1.5 C 46 %
4455 03-03-2020 22:28:17 1.4 C 47 %
4456 03-03-2020 22:38:17 1.2 C 47 %
4457 03-03-2020 22:48:17 1 C 47 %
4458 03-03-2020 22:58:17 1.2 C 48 %
4459 03-03-2020 23:08:17 1.7 C 48 %
4460 03-03-2020 23:18:18 2.3 C 46 %
4461 03-03-2020 23:28:18 2.4 C 44 %
4462 03-03-2020 23:38:17 2.6 C 44 %
4463 03-03-2020 23:48:17 2.7 C 43 %
4464 03-03-2020 23:58:17 2.8 C 43 %
4465 04-03-2020 00:08:17 3.1 C 42 %
4466 04-03-2020 00:18:18 3 C 41 %
4467 04-03-2020 00:28:18 2.9 C 42 %
4468 04-03-2020 00:38:18 3.1 C 41 %
4469 04-03-2020 00:48:17 2.5 C 42 %
4470 04-03-2020 00:58:17 2.3 C 44 %
4471 04-03-2020 01:08:17 2.6 C 43 %
4472 04-03-2020 01:18:17 2.6 C 42 %
4473 04-03-2020 01:28:17 2.4 C 42 %
4474 04-03-2020 01:38:17 2.5 C 42 %
4475 04-03-2020 01:48:17 2.6 C 42 %
Sensor: Nr:Datum:Temp:Feuchte:
Aussen-T/F 4476 04-03-2020 01:58:17 2.6 C 42 %
4477 04-03-2020 02:08:17 2.7 C 42 %
4478 04-03-2020 02:18:17 2.8 C 42 %
4479 04-03-2020 02:28:18 2.7 C 42 %
4480 04-03-2020 02:38:18 3.2 C 41 %
4481 04-03-2020 02:48:17 3.6 C 40 %
4482 04-03-2020 02:58:18 3.4 C 40 %
4483 04-03-2020 03:08:17 3.3 C 40 %
4484 04-03-2020 03:18:17 3 C 41 %
4485 04-03-2020 03:28:17 3.2 C 41 %
4486 04-03-2020 03:38:17 2.9 C 42 %
4487 04-03-2020 03:48:17 2.6 C 42 %
4488 04-03-2020 03:58:18 2.5 C 44 %
4489 04-03-2020 04:08:18 3.4 C 41 %
4490 04-03-2020 04:18:18 3.4 C 41 %
4491 04-03-2020 04:28:18 3.6 C 40 %
4492 04-03-2020 04:38:18 3.6 C 40 %
4493 04-03-2020 04:48:17 3.7 C 40 %
4494 04-03-2020 04:58:18 3.5 C 41 %
4495 04-03-2020 05:08:18 3.4 C 41 %
4496 04-03-2020 05:18:18 3.2 C 42 %
4497 04-03-2020 05:28:18 3.1 C 44 %
4498 04-03-2020 05:38:18 3.2 C 44 %
4499 04-03-2020 05:48:17 3.2 C 43 %
4500 04-03-2020 05:58:18 3.2 C 43 %
Sensor: Nr:Datum:Temp:Feuchte:
Aussen-T/F 4501 04-03-2020 06:08:18 3.3 C 43 %
4502 04-03-2020 06:18:18 3.3 C 42 %
4503 04-03-2020 06:28:18 3.4 C 42 %
4504 04-03-2020 06:38:18 3.6 C 42 %
4505 04-03-2020 06:48:17 3.6 C 42 %
4506 04-03-2020 06:58:17 3.7 C 41 %
4507 04-03-2020 07:08:17 3.7 C 41 %
4508 04-03-2020 07:18:17 3.9 C 41 %
4509 04-03-2020 07:28:17 3.9 C 41 %
4510 04-03-2020 07:38:18 4 C 40 %
4511 04-03-2020 07:48:17 3.9 C 41 %
4512 04-03-2020 07:58:17 3.7 C 41 %
4513 04-03-2020 08:08:18 3.3 C 42 %
4514 04-03-2020 08:18:17 3.4 C 42 %
4515 04-03-2020 08:28:17 3.8 C 41 %
4516 04-03-2020 08:38:18 3.7 C 41 %
4517 04-03-2020 08:48:18 4.1 C 40 %
4518 04-03-2020 08:58:18 3.7 C 41 %
4519 04-03-2020 09:08:18 3.9 C 41 %
4520 04-03-2020 09:18:18 4.2 C 40 %
4521 04-03-2020 09:28:18 4.6 C 40 %
4522 04-03-2020 09:38:18 4.7 C 39 %
4523 04-03-2020 09:48:17 5.1 C 38 %
4524 04-03-2020 09:58:18 5.4 C 37 %
4525 04-03-2020 10:08:18 5.6 C 37 %
Sensor: Nr:Datum:Temp:Feuchte:
Aussen-T/F 4526 04-03-2020 10:18:18 5.8 C 37 %
4527 04-03-2020 10:28:18 6 C 36 %
4528 04-03-2020 10:38:17 6.6 C 36 %
4529 04-03-2020 10:48:18 6.4 C 36 %
4530 04-03-2020 10:58:18 6.5 C 36 %
4531 04-03-2020 11:08:18 6.8 C 35 %
4532 04-03-2020 11:18:18 7.7 C 34 %
4533 04-03-2020 11:28:18 8.2 C 33 %
4534 04-03-2020 11:38:18 8.3 C 32 %
4535 04-03-2020 11:48:18 8.8 C 32 %
4536 04-03-2020 11:58:18 9.5 C 31 %
4537 04-03-2020 12:08:18 9.6 C 31 %
4538 04-03-2020 12:18:18 10.1 C 30 %
4539 04-03-2020 12:28:18 9 C 30 %
4540 04-03-2020 12:38:18 9.9 C 29 %
4541 04-03-2020 12:48:17 10.9 C 28 %
4542 04-03-2020 12:58:17 9.1 C 29 %
4543 04-03-2020 13:08:17 9.3 C 28 %
4544 04-03-2020 13:18:17 9.4 C 28 %
4545 04-03-2020 13:28:17 10.7 C 27 %
4546 04-03-2020 13:38:18 9.5 C 28 %
4547 04-03-2020 13:48:17 9.6 C 28 %
4548 04-03-2020 13:58:17 10.2 C 26 %
4549 04-03-2020 14:08:18 10.6 C 26 %
4550 04-03-2020 14:18:18 9.6 C 27 %
Sensor: Nr:Datum:Temp:Feuchte:
Aussen-T/F 4551 04-03-2020 14:28:18 9.6 C 27 %
4552 04-03-2020 14:38:18 10.1 C 26 %
4553 04-03-2020 14:48:18 9.5 C 28 %
4554 04-03-2020 14:58:18 9 C 28 %
4555 04-03-2020 15:08:18 9.4 C 28 %
4556 04-03-2020 15:18:18 9.5 C 28 %
4557 04-03-2020 15:28:18 9.7 C 27 %
4558 04-03-2020 15:38:18 9.4 C 29 %
4559 04-03-2020 15:48:17 9.5 C 28 %
4560 04-03-2020 15:58:18 10.6 C 26 %
4561 04-03-2020 16:08:17 10.1 C 26 %
4562 04-03-2020 16:18:17 10.9 C 26 %
4563 04-03-2020 16:28:17 10 C 26 %
4564 04-03-2020 16:38:17 10.9 C 26 %
4565 04-03-2020 16:48:17 11 C 25 %
4566 04-03-2020 16:58:17 11.5 C 25 %
4567 04-03-2020 17:08:17 10.6 C 25 %
4568 04-03-2020 17:18:17 8.8 C 27 %
4569 04-03-2020 17:28:18 8 C 29 %
4570 04-03-2020 17:38:18 7.3 C 32 %
4571 04-03-2020 17:48:17 6.4 C 35 %
4572 04-03-2020 17:58:17 5.7 C 36 %
4573 04-03-2020 18:08:17 5.2 C 37 %
4574 04-03-2020 18:18:17 4.8 C 38 %
4575 04-03-2020 18:28:17 4.7 C 39 %
Sensor: Nr:Datum:Temp:Feuchte:
Aussen-T/F 4576 04-03-2020 18:38:17 4.5 C 39 %
4577 04-03-2020 18:48:17 4.3 C 39 %
4578 04-03-2020 18:58:17 4 C 39 %
4579 04-03-2020 19:08:17 3.9 C 40 %
4580 04-03-2020 19:18:17 4 C 40 %
4581 04-03-2020 19:28:17 4.1 C 40 %
4582 04-03-2020 19:38:17 4.1 C 40 %
4583 04-03-2020 19:48:18 4 C 40 %
4584 04-03-2020 19:58:18 3.7 C 41 %
4585 04-03-2020 20:08:17 3.8 C 41 %
4586 04-03-2020 20:18:17 3.7 C 41 %
4587 04-03-2020 20:28:17 3.4 C 41 %
4588 04-03-2020 20:38:17 3.1 C 42 %
4589 04-03-2020 20:48:18 3.1 C 42 %
4590 04-03-2020 20:58:18 2.9 C 43 %
4591 04-03-2020 21:08:18 3.3 C 42 %
4592 04-03-2020 21:18:18 3 C 42 %
4593 04-03-2020 21:28:18 3.1 C 42 %
4594 04-03-2020 21:38:18 3.3 C 42 %
4595 04-03-2020 21:48:18 3.1 C 42 %
4596 04-03-2020 21:58:18 3.1 C 42 %
4597 04-03-2020 22:08:18 2.6 C 44 %
4598 04-03-2020 22:18:17 2.5 C 45 %
4599 04-03-2020 22:28:17 2.4 C 45 %
4600 04-03-2020 22:38:17 2.9 C 46 %
Sensor: Nr:Datum:Temp:Feuchte:
Aussen-T/F 4601 04-03-2020 22:48:17 2.9 C 46 %
4602 04-03-2020 22:58:17 3.2 C 45 %
4603 04-03-2020 23:08:17 3.3 C 43 %
4604 04-03-2020 23:18:17 3.6 C 43 %
4605 04-03-2020 23:28:18 3.5 C 43 %
4606 04-03-2020 23:38:18 3.6 C 43 %
4607 04-03-2020 23:48:18 3.7 C 45 %
4608 04-03-2020 23:58:18 3.6 C 45 %
4609 05-03-2020 00:08:18 3.6 C 46 %
4610 05-03-2020 00:18:18 3.6 C 46 %
4611 05-03-2020 00:28:18 3.8 C 47 %
4612 05-03-2020 00:38:17 3.8 C 47 %
4613 05-03-2020 00:48:17 3.6 C 47 %
4614 05-03-2020 00:58:17 3.5 C 47 %
4615 05-03-2020 01:08:17 3.5 C 47 %
4616 05-03-2020 01:18:17 3.5 C 47 %
4617 05-03-2020 01:28:17 3.4 C 47 %
4618 05-03-2020 01:38:17 3.4 C 47 %
4619 05-03-2020 01:48:18 3.5 C 47 %
4620 05-03-2020 01:58:18 3.5 C 47 %
4621 05-03-2020 02:08:18 3.6 C 46 %
4622 05-03-2020 02:18:18 3.7 C 46 %
4623 05-03-2020 02:28:18 3.7 C 45 %
4624 05-03-2020 02:38:18 3.7 C 44 %
4625 05-03-2020 02:48:18 3.9 C 43 %
Sensor: Nr:Datum:Temp:Feuchte:
Aussen-T/F 4626 05-03-2020 02:58:18 3.9 C 43 %
4627 05-03-2020 03:08:18 4 C 42 %
4628 05-03-2020 03:18:17 4.1 C 42 %
4629 05-03-2020 03:28:17 4 C 41 %
4630 05-03-2020 03:38:17 4.1 C 41 %
4631 05-03-2020 03:48:17 4 C 42 %
4632 05-03-2020 03:58:17 3.8 C 43 %
4633 05-03-2020 04:08:17 3.8 C 44 %
4634 05-03-2020 04:18:17 3.9 C 44 %
4635 05-03-2020 04:28:18 3.9 C 43 %
4636 05-03-2020 04:38:18 3.9 C 43 %
4637 05-03-2020 04:48:17 3.8 C 43 %
4638 05-03-2020 04:58:18 3.8 C 43 %
4639 05-03-2020 05:08:18 3.9 C 44 %
4640 05-03-2020 05:18:18 3.9 C 44 %
4641 05-03-2020 05:28:18 3.8 C 44 %
4642 05-03-2020 05:38:18 3.9 C 44 %
4643 05-03-2020 05:48:17 3.7 C 44 %
4644 05-03-2020 05:58:18 3.9 C 44 %
4645 05-03-2020 06:08:18 4 C 43 %
4646 05-03-2020 06:18:18 3.9 C 43 %
4647 05-03-2020 06:28:18 4 C 42 %
4648 05-03-2020 06:38:18 4 C 42 %
4649 05-03-2020 06:48:17 4.1 C 42 %
4650 05-03-2020 06:58:17 4.1 C 42 %
Sensor: Nr:Datum:Temp:Feuchte:
Aussen-T/F 4651 05-03-2020 07:08:18 4.2 C 42 %
4652 05-03-2020 07:18:17 4.3 C 42 %
4653 05-03-2020 07:28:18 4.4 C 42 %
4654 05-03-2020 07:38:18 4.5 C 41 %
4655 05-03-2020 07:48:17 4.7 C 41 %
4656 05-03-2020 07:58:17 4.8 C 41 %
4657 05-03-2020 08:08:18 4.7 C 41 %
4658 05-03-2020 08:18:18 4.8 C 41 %
4659 05-03-2020 08:28:18 4.8 C 41 %
4660 05-03-2020 08:38:17 5.1 C 40 %
4661 05-03-2020 08:48:17 5.3 C 40 %
4662 05-03-2020 08:58:17 5.4 C 40 %
4663 05-03-2020 09:08:17 5.9 C 40 %
4664 05-03-2020 09:18:17 6.1 C 38 %
4665 05-03-2020 09:28:17 6.4 C 38 %
4666 05-03-2020 09:38:17 6.4 C 38 %
4667 05-03-2020 09:48:17 6.6 C 38 %
4668 05-03-2020 09:58:17 6.6 C 38 %
4669 05-03-2020 10:08:18 6.9 C 38 %
4670 05-03-2020 10:18:17 6.4 C 38 %
4671 05-03-2020 10:28:17 6.3 C 38 %
4672 05-03-2020 10:38:18 6.2 C 38 %
4673 05-03-2020 10:48:18 6.3 C 39 %
4674 05-03-2020 10:58:18 6.7 C 38 %
4675 05-03-2020 11:08:17 7 C 38 %
Sensor: Nr:Datum:Temp:Feuchte:
Aussen-T/F 4676 05-03-2020 11:18:17 7.1 C 37 %
4677 05-03-2020 11:28:17 7.3 C 37 %
4678 05-03-2020 11:38:18 7.7 C 37 %
4679 05-03-2020 11:48:18 7.8 C 37 %